Time,TemperatureF,DewpointF,PressureIn,WindDirection,WindDirectionDegrees,WindSpeedMPH,WindSpeedGustMPH,Humidity,HourlyPrecipIn,Conditions,Clouds,dailyrainin,SoftwareType,DateUTC
2013-04-11 00:00:00,41.9,13.5,25.37,SE,135,2.5,2.5,31,0.00,,---,0.00,VWS V14.01,2013-04-11 05:00:00,
2013-04-11 00:01:00,41.9,13.5,25.37,SE,135,3.1,3.1,31,0.00,,---,0.00,VWS V14.01,2013-04-11 05:01:00,
2013-04-11 00:02:00,41.7,13.3,25.37,SE,135,3.8,3.8,31,0.00,,---,0.00,VWS V14.01,2013-04-11 05:02:00,
2013-04-11 00:03:00,41.9,14.2,25.37,ESE,112,3.8,4.0,32,0.00,,---,0.00,VWS V14.01,2013-04-11 05:03:00,
2013-04-11 00:04:00,41.9,14.2,25.37,ESE,112,3.8,3.8,32,0.00,,---,0.00,VWS V14.01,2013-04-11 05:04:00,
2013-04-11 00:05:00,41.9,14.2,25.37,ESE,112,3.8,3.8,32,0.00,,---,0.00,VWS V14.01,2013-04-11 05:05:00,
2013-04-11 00:06:00,41.7,13.3,25.37,SSE,158,4.9,5.4,31,0.00,,---,0.00,VWS V14.01,2013-04-11 05:06:00,
2013-04-11 00:07:00,41.7,13.3,25.37,SSE,158,4.9,6.0,31,0.00,,---,0.00,VWS V14.01,2013-04-11 05:07:00,
2013-04-11 00:08:00,41.5,13.2,25.37,South,180,5.4,5.4,31,0.00,,---,0.00,VWS V14.01,2013-04-11 05:08:00,
2013-04-11 00:09:00,41.5,13.2,25.37,South,180,5.4,5.4,31,0.00,,---,0.00,VWS V14.01,2013-04-11 05:09:00,
2013-04-11 00:10:00,41.5,13.2,25.37,SSE,158,6.5,6.5,31,0.00,,---,0.00,VWS V14.01,2013-04-11 05:10:00,
2013-04-11 00:11:00,41.4,13.0,25.37,South,180,5.4,6.5,31,0.00,,---,0.00,VWS V14.01,2013-04-11 05:11:00,
2013-04-11 00:12:00,41.4,13.0,25.37,South,180,6.5,7.2,31,0.00,,---,0.00,VWS V14.01,2013-04-11 05:12:00,
2013-04-11 00:14:00,41.2,12.9,25.37,SE,135,4.9,6.5,31,0.00,,---,0.00,VWS V14.01,2013-04-11 05:14:00,
2013-04-11 00:15:00,41.4,13.7,25.37,SSE,158,5.6,6.5,32,0.00,,---,0.00,VWS V14.01,2013-04-11 05:15:00,
2013-04-11 00:16:00,41.5,13.9,25.37,SE,135,6.5,6.7,32,0.00,,---,0.00,VWS V14.01,2013-04-11 05:16:00,
2013-04-11 00:17:00,41.7,14.1,25.37,SE,135,6.0,7.2,32,0.00,,---,0.00,VWS V14.01,2013-04-11 05:17:00,
2013-04-11 00:18:00,41.9,14.2,25.37,SSE,158,6.0,6.3,32,0.00,,---,0.00,VWS V14.01,2013-04-11 05:18:00,
2013-04-11 00:19:00,42.1,14.4,25.37,South,180,7.4,7.4,32,0.00,,---,0.00,VWS V14.01,2013-04-11 05:19:00,
2013-04-11 00:20:00,42.1,14.4,25.37,South,180,4.5,7.4,32,0.00,,---,0.00,VWS V14.01,2013-04-11 05:20:00,
2013-04-11 00:21:00,42.1,14.4,25.37,South,180,2.2,4.5,32,0.00,,---,0.00,VWS V14.01,2013-04-11 05:21:00,
2013-04-11 00:22:00,42.3,14.5,25.37,South,180,3.8,3.8,32,0.00,,---,0.00,VWS V14.01,2013-04-11 05:22:00,
2013-04-11 00:23:00,42.3,14.5,25.37,SSE,158,5.4,5.6,32,0.00,,---,0.00,VWS V14.01,2013-04-11 05:23:00,
2013-04-11 00:24:00,42.3,14.5,25.37,ESE,112,4.0,5.8,32,0.00,,---,0.00,VWS V14.01,2013-04-11 05:24:00,
2013-04-11 00:25:00,42.3,14.5,25.37,SSE,158,4.3,6.5,32,0.00,,---,0.00,VWS V14.01,2013-04-11 05:25:00,
2013-04-11 00:26:00,42.3,14.5,25.37,South,180,5.4,5.6,32,0.00,,---,0.00,VWS V14.01,2013-04-11 05:26:00,
2013-04-11 00:27:00,42.6,14.8,25.37,South,180,3.1,5.6,32,0.00,,---,0.00,VWS V14.01,2013-04-11 05:27:00,
2013-04-11 00:28:00,42.6,14.8,25.37,SSE,158,3.8,3.8,32,0.00,,---,0.00,VWS V14.01,2013-04-11 05:28:00,
2013-04-11 00:29:00,42.6,14.8,25.37,SSE,158,4.3,4.3,32,0.00,,---,0.00,VWS V14.01,2013-04-11 05:29:00,
2013-04-11 00:30:00,42.4,14.7,25.37,SE,135,4.5,5.4,32,0.00,,---,0.00,VWS V14.01,2013-04-11 05:30:00,
2013-04-11 00:31:00,42.4,14.7,25.37,SE,135,4.9,4.9,32,0.00,,---,0.00,VWS V14.01,2013-04-11 05:31:00,
2013-04-11 00:32:00,42.4,14.7,25.37,SE,135,6.0,6.0,32,0.00,,---,0.00,VWS V14.01,2013-04-11 05:32:00,
2013-04-11 00:33:00,42.4,14.7,25.37,SSE,158,5.4,6.0,32,0.00,,---,0.00,VWS V14.01,2013-04-11 05:33:00,
2013-04-11 00:34:00,42.4,14.7,25.37,SSE,158,5.6,6.3,32,0.00,,---,0.00,VWS V14.01,2013-04-11 05:34:00,
2013-04-11 00:35:00,42.4,14.7,25.37,SE,135,5.6,5.6,32,0.00,,---,0.00,VWS V14.01,2013-04-11 05:35:00,
2013-04-11 00:36:00,42.4,14.7,25.37,SSE,158,6.3,6.3,32,0.00,,---,0.00,VWS V14.01,2013-04-11 05:36:00,
2013-04-11 00:37:00,42.3,14.5,25.37,SE,135,4.9,6.3,32,0.00,,---,0.00,VWS V14.01,2013-04-11 05:37:00,
2013-04-11 00:38:00,42.3,14.5,25.37,SSW,202,4.9,5.8,32,0.00,,---,0.00,VWS V14.01,2013-04-11 05:38:00,
2013-04-11 00:39:00,42.3,14.5,25.37,SSE,158,4.0,4.0,32,0.00,,---,0.00,VWS V14.01,2013-04-11 05:39:00,
2013-04-11 00:40:00,42.3,14.5,25.37,SSE,158,4.9,6.0,32,0.00,,---,0.00,VWS V14.01,2013-04-11 05:40:00,
2013-04-11 00:41:00,42.3,14.5,25.37,SSE,158,5.4,6.5,32,0.00,,---,0.00,VWS V14.01,2013-04-11 05:41:00,
2013-04-11 00:42:00,42.3,14.5,25.37,SSE,158,6.5,8.5,32,0.00,,---,0.00,VWS V14.01,2013-04-11 05:42:00,
2013-04-11 00:44:00,42.6,14.8,25.37,SSE,158,5.6,6.5,32,0.00,,---,0.00,VWS V14.01,2013-04-11 05:44:00,
2013-04-11 00:45:00,42.8,14.3,25.37,South,180,6.5,6.5,31,0.00,,---,0.00,VWS V14.01,2013-04-11 05:45:00,
2013-04-11 00:46:00,42.8,14.3,25.37,SSE,158,4.3,6.5,31,0.00,,---,0.00,VWS V14.01,2013-04-11 05:46:00,
2013-04-11 00:47:00,42.8,14.3,25.37,SSE,158,5.6,6.0,31,0.00,,---,0.00,VWS V14.01,2013-04-11 05:47:00,
2013-04-11 00:48:00,42.8,14.3,25.37,SE,135,4.9,6.5,31,0.00,,---,0.00,VWS V14.01,2013-04-11 05:48:00,
2013-04-11 00:49:00,42.8,14.3,25.37,SSE,158,5.6,5.6,31,0.00,,---,0.00,VWS V14.01,2013-04-11 05:49:00,
2013-04-11 00:50:00,42.8,14.3,25.37,SSE,158,5.8,5.8,31,0.00,,---,0.00,VWS V14.01,2013-04-11 05:50:00,
2013-04-11 00:51:00,42.8,14.3,25.37,SSE,158,6.0,6.3,31,0.00,,---,0.00,VWS V14.01,2013-04-11 05:51:00,
2013-04-11 00:52:00,42.8,14.3,25.37,SE,135,5.8,6.0,31,0.00,,---,0.00,VWS V14.01,2013-04-11 05:52:00,
2013-04-11 00:53:00,42.8,14.3,25.37,SE,135,8.1,8.1,31,0.00,,---,0.00,VWS V14.01,2013-04-11 05:53:00,
2013-04-11 00:54:00,42.8,14.3,25.37,SE,135,5.6,8.1,31,0.00,,---,0.00,VWS V14.01,2013-04-11 05:54:00,
2013-04-11 00:55:00,43.0,14.4,25.37,SSE,158,7.8,7.8,31,0.00,,---,0.00,VWS V14.01,2013-04-11 05:55:00,
2013-04-11 00:56:00,43.0,14.4,25.37,SSE,158,8.5,8.5,31,0.00,,---,0.00,VWS V14.01,2013-04-11 05:56:00,
2013-04-11 00:57:00,43.0,14.4,25.37,ESE,112,6.5,8.7,31,0.00,,---,0.00,VWS V14.01,2013-04-11 05:57:00,
2013-04-11 00:58:00,43.2,14.6,25.37,ESE,112,7.4,7.4,31,0.00,,---,0.00,VWS V14.01,2013-04-11 05:58:00,
2013-04-11 00:59:00,43.2,14.6,25.37,SE,135,7.6,7.6,31,0.00,,---,0.00,VWS V14.01,2013-04-11 05:59:00,
2013-04-11 01:00:00,43.2,14.6,25.37,SE,135,5.8,7.6,31,0.00,,---,0.00,VWS V14.01,2013-04-11 06:00:00,
2013-04-11 01:01:00,43.2,14.6,25.37,ESE,112,4.9,7.2,31,0.00,,---,0.00,VWS V14.01,2013-04-11 06:01:00,
2013-04-11 01:02:00,42.8,14.3,25.37,SE,135,5.8,6.3,31,0.00,,---,0.00,VWS V14.01,2013-04-11 06:02:00,
2013-04-11 01:03:00,42.8,14.3,25.37,ESE,112,5.8,5.8,31,0.00,,---,0.00,VWS V14.01,2013-04-11 06:03:00,
2013-04-11 01:04:00,42.6,14.8,25.37,ESE,112,8.1,8.1,32,0.00,,---,0.00,VWS V14.01,2013-04-11 06:04:00,
2013-04-11 01:05:00,42.4,14.7,25.37,ESE,112,6.0,8.1,32,0.00,,---,0.00,VWS V14.01,2013-04-11 06:05:00,
2013-04-11 01:06:00,42.4,14.7,25.37,ESE,112,6.0,6.0,32,0.00,,---,0.00,VWS V14.01,2013-04-11 06:06:00,
2013-04-11 01:07:00,42.4,14.7,25.37,ESE,112,5.8,6.0,32,0.00,,---,0.00,VWS V14.01,2013-04-11 06:07:00,
2013-04-11 01:08:00,42.4,14.7,25.37,ESE,112,7.2,7.8,32,0.00,,---,0.00,VWS V14.01,2013-04-11 06:08:00,
2013-04-11 01:09:00,42.4,14.7,25.37,East,90,5.6,7.2,32,0.00,,---,0.00,VWS V14.01,2013-04-11 06:09:00,
2013-04-11 01:10:00,42.4,14.7,25.37,East,90,6.3,8.7,32,0.00,,---,0.00,VWS V14.01,2013-04-11 06:10:00,
2013-04-11 01:11:00,42.4,14.7,25.37,East,90,6.3,6.3,32,0.00,,---,0.00,VWS V14.01,2013-04-11 06:11:00,
2013-04-11 01:12:00,42.6,14.8,25.37,ENE,68,8.1,8.1,32,0.00,,---,0.00,VWS V14.01,2013-04-11 06:12:00,
2013-04-11 01:13:00,42.6,14.8,25.37,ENE,68,6.0,8.1,32,0.00,,---,0.00,VWS V14.01,2013-04-11 06:13:00,
2013-04-11 01:14:00,42.8,14.3,25.37,ESE,112,4.9,6.0,31,0.00,,---,0.00,VWS V14.01,2013-04-11 06:14:00,
2013-04-11 01:15:00,42.8,14.3,25.37,ESE,112,3.1,4.9,31,0.00,,---,0.00,VWS V14.01,2013-04-11 06:15:00,
2013-04-11 01:16:00,42.6,14.8,25.37,ENE,68,6.7,6.7,32,0.00,,---,0.00,VWS V14.01,2013-04-11 06:16:00,
2013-04-11 01:18:00,42.4,14.7,25.37,SE,135,2.7,6.7,32,0.00,,---,0.00,VWS V14.01,2013-04-11 06:18:00,
2013-04-11 01:19:00,42.3,14.5,25.37,ESE,112,2.0,2.7,32,0.00,,---,0.00,VWS V14.01,2013-04-11 06:19:00,
2013-04-11 01:20:00,42.3,14.5,25.37,SE,135,2.5,2.5,32,0.00,,---,0.00,VWS V14.01,2013-04-11 06:20:00,
2013-04-11 01:21:00,42.3,14.5,25.37,ESE,112,3.4,3.4,32,0.00,,---,0.00,VWS V14.01,2013-04-11 06:21:00,
2013-04-11 01:22:00,42.1,14.4,25.37,SE,135,2.2,3.4,32,0.00,,---,0.00,VWS V14.01,2013-04-11 06:22:00,
2013-04-11 01:23:00,42.1,14.4,25.37,SE,135,1.6,2.2,32,0.00,,---,0.00,VWS V14.01,2013-04-11 06:23:00,
2013-04-11 01:25:00,41.9,14.2,25.37,SSE,158,4.9,4.9,32,0.00,,---,0.00,VWS V14.01,2013-04-11 06:25:00,
2013-04-11 01:27:00,41.9,14.2,25.37,SSE,158,5.6,5.6,32,0.00,,---,0.00,VWS V14.01,2013-04-11 06:27:00,
2013-04-11 01:28:00,42.8,15.0,25.37,SSW,202,7.8,7.8,32,0.00,,---,0.00,VWS V14.01,2013-04-11 06:28:00,
2013-04-11 01:29:00,43.0,15.2,25.37,SSE,158,8.5,8.5,32,0.00,,---,0.00,VWS V14.01,2013-04-11 06:29:00,
2013-04-11 01:30:00,43.5,14.9,25.37,SSE,158,5.6,12.5,31,0.00,,---,0.00,VWS V14.01,2013-04-11 06:30:00,
2013-04-11 01:31:00,43.5,14.9,25.37,SSW,202,6.5,6.5,31,0.00,,---,0.00,VWS V14.01,2013-04-11 06:31:00,
2013-04-11 01:32:00,43.5,14.9,25.37,South,180,5.4,5.4,31,0.00,,---,0.00,VWS V14.01,2013-04-11 06:32:00,
2013-04-11 01:33:00,43.5,14.9,25.37,South,180,5.4,5.4,31,0.00,,---,0.00,VWS V14.01,2013-04-11 06:33:00,
2013-04-11 01:34:00,44.2,15.5,25.37,SSE,158,4.9,6.3,31,0.00,,---,0.00,VWS V14.01,2013-04-11 06:34:00,
2013-04-11 01:35:00,44.2,15.5,25.37,SSW,202,4.9,10.3,31,0.00,,---,0.00,VWS V14.01,2013-04-11 06:35:00,
2013-04-11 01:36:00,44.4,15.7,25.37,South,180,7.8,7.8,31,0.00,,---,0.00,VWS V14.01,2013-04-11 06:36:00,
2013-04-11 01:37:00,44.4,15.7,25.37,SE,135,4.7,7.8,31,0.00,,---,0.00,VWS V14.01,2013-04-11 06:37:00,
2013-04-11 01:38:00,44.6,15.1,25.37,SSW,202,5.4,6.5,30,0.00,,---,0.00,VWS V14.01,2013-04-11 06:38:00,
2013-04-11 01:39:00,44.6,15.1,25.37,SSE,158,6.0,6.9,30,0.00,,---,0.00,VWS V14.01,2013-04-11 06:39:00,
2013-04-11 01:40:00,44.8,15.3,25.37,South,180,7.6,7.6,30,0.00,,---,0.00,VWS V14.01,2013-04-11 06:40:00,
2013-04-11 01:41:00,44.8,15.3,25.39,South,180,6.3,7.6,30,0.00,,---,0.00,VWS V14.01,2013-04-11 06:41:00,
2013-04-11 01:42:00,44.8,15.3,25.39,South,180,6.0,6.0,30,0.00,,---,0.00,VWS V14.01,2013-04-11 06:42:00,
2013-04-11 01:43:00,44.8,15.3,25.39,SSW,202,4.9,6.0,30,0.00,,---,0.00,VWS V14.01,2013-04-11 06:43:00,
2013-04-11 01:44:00,44.8,15.3,25.39,SSW,202,2.7,4.3,30,0.00,,---,0.00,VWS V14.01,2013-04-11 06:44:00,
2013-04-11 01:45:00,44.8,15.3,25.39,South,180,2.9,4.3,30,0.00,,---,0.00,VWS V14.01,2013-04-11 06:45:00,
2013-04-11 01:46:00,44.8,15.3,25.39,South,180,3.8,3.8,30,0.00,,---,0.00,VWS V14.01,2013-04-11 06:46:00,
2013-04-11 01:47:00,45.0,15.4,25.39,SSW,202,3.4,3.4,30,0.00,,---,0.00,VWS V14.01,2013-04-11 06:47:00,
2013-04-11 01:48:00,45.0,15.4,25.39,South,180,3.8,5.8,30,0.00,,---,0.00,VWS V14.01,2013-04-11 06:48:00,
2013-04-11 01:50:00,45.0,15.4,25.39,South,180,3.6,3.8,30,0.00,,---,0.00,VWS V14.01,2013-04-11 06:50:00,
2013-04-11 01:51:00,44.8,15.3,25.39,South,180,3.8,3.8,30,0.00,,---,0.00,VWS V14.01,2013-04-11 06:51:00,
2013-04-11 01:52:00,44.8,15.3,25.39,South,180,3.1,5.8,30,0.00,,---,0.00,VWS V14.01,2013-04-11 06:52:00,
2013-04-11 01:53:00,44.8,15.3,25.39,East,90,4.9,4.9,30,0.00,,---,0.00,VWS V14.01,2013-04-11 06:53:00,
2013-04-11 01:54:00,44.8,15.3,25.39,SSE,158,6.3,6.3,30,0.00,,---,0.00,VWS V14.01,2013-04-11 06:54:00,
2013-04-11 01:55:00,44.8,15.3,25.39,SSE,158,7.8,7.8,30,0.00,,---,0.00,VWS V14.01,2013-04-11 06:55:00,
2013-04-11 01:56:00,45.0,15.4,25.39,South,180,6.5,6.5,30,0.00,,---,0.00,VWS V14.01,2013-04-11 06:56:00,
2013-04-11 01:57:00,45.0,15.4,25.39,South,180,5.4,7.2,30,0.00,,---,0.00,VWS V14.01,2013-04-11 06:57:00,
2013-04-11 01:58:00,45.1,15.6,25.39,South,180,5.8,8.5,30,0.00,,---,0.00,VWS V14.01,2013-04-11 06:58:00,
2013-04-11 01:59:00,45.1,15.6,25.39,SW,225,4.9,6.3,30,0.00,,---,0.00,VWS V14.01,2013-04-11 06:59:00,
2013-04-11 02:00:00,45.1,15.6,25.39,SSE,158,6.0,6.3,30,0.00,,---,0.00,VWS V14.01,2013-04-11 07:00:00,
2013-04-11 02:01:00,45.1,15.6,25.39,SSW,202,3.8,3.8,30,0.00,,---,0.00,VWS V14.01,2013-04-11 07:01:00,
2013-04-11 02:02:00,45.1,15.6,25.39,SSW,202,3.4,5.6,30,0.00,,---,0.00,VWS V14.01,2013-04-11 07:02:00,
2013-04-11 02:03:00,45.1,15.6,25.39,SSW,202,4.0,4.0,30,0.00,,---,0.00,VWS V14.01,2013-04-11 07:03:00,
2013-04-11 02:04:00,45.0,15.4,25.39,SSW,202,5.6,5.6,30,0.00,,---,0.00,VWS V14.01,2013-04-11 07:04:00,
2013-04-11 02:05:00,45.0,15.4,25.39,SSE,158,2.5,5.6,30,0.00,,---,0.00,VWS V14.01,2013-04-11 07:05:00,
2013-04-11 02:06:00,45.0,15.4,25.39,SSW,202,4.7,4.7,30,0.00,,---,0.00,VWS V14.01,2013-04-11 07:06:00,
2013-04-11 02:07:00,45.0,15.4,25.39,SSW,202,3.4,4.7,30,0.00,,---,0.00,VWS V14.01,2013-04-11 07:07:00,
2013-04-11 02:08:00,45.1,15.6,25.39,SSW,202,2.9,3.8,30,0.00,,---,0.00,VWS V14.01,2013-04-11 07:08:00,
2013-04-11 02:10:00,45.5,15.9,25.37,South,180,2.9,2.9,30,0.00,,---,0.00,VWS V14.01,2013-04-11 07:10:00,
2013-04-11 02:11:00,45.5,15.9,25.37,South,180,2.9,3.8,30,0.00,,---,0.00,VWS V14.01,2013-04-11 07:11:00,
2013-04-11 02:12:00,45.5,15.9,25.37,SSW,202,2.0,2.9,30,0.00,,---,0.00,VWS V14.01,2013-04-11 07:12:00,
2013-04-11 02:13:00,45.3,15.7,25.37,SSE,158,3.6,3.6,30,0.00,,---,0.00,VWS V14.01,2013-04-11 07:13:00,
2013-04-11 02:14:00,45.3,15.7,25.37,SSE,158,4.3,4.3,30,0.00,,---,0.00,VWS V14.01,2013-04-11 07:14:00,
2013-04-11 02:15:00,45.3,15.7,25.37,SSE,158,3.6,4.3,30,0.00,,---,0.00,VWS V14.01,2013-04-11 07:15:00,
2013-04-11 02:16:00,45.3,15.7,25.37,SE,135,1.1,1.1,30,0.00,,---,0.00,VWS V14.01,2013-04-11 07:16:00,
2013-04-11 02:17:00,45.3,15.7,25.37,South,180,3.4,3.8,30,0.00,,---,0.00,VWS V14.01,2013-04-11 07:17:00,
2013-04-11 02:18:00,45.3,15.7,25.37,South,180,3.4,3.4,30,0.00,,---,0.00,VWS V14.01,2013-04-11 07:18:00,
2013-04-11 02:19:00,45.3,15.7,25.37,South,180,2.7,4.3,30,0.00,,---,0.00,VWS V14.01,2013-04-11 07:19:00,
2013-04-11 02:20:00,45.1,15.6,25.37,SSE,158,2.7,4.0,30,0.00,,---,0.00,VWS V14.01,2013-04-11 07:20:00,
2013-04-11 02:21:00,45.3,15.7,25.37,SW,225,2.9,2.9,30,0.00,,---,0.00,VWS V14.01,2013-04-11 07:21:00,
2013-04-11 02:22:00,45.3,15.7,25.37,SSW,202,6.3,6.3,30,0.00,,---,0.00,VWS V14.01,2013-04-11 07:22:00,
2013-04-11 02:23:00,45.3,15.7,25.37,SSW,202,1.6,6.3,30,0.00,,---,0.00,VWS V14.01,2013-04-11 07:23:00,
2013-04-11 02:24:00,45.3,15.7,25.37,SSW,202,2.0,2.0,30,0.00,,---,0.00,VWS V14.01,2013-04-11 07:24:00,
2013-04-11 02:25:00,45.1,15.6,25.37,SSW,202,2.0,2.7,30,0.00,,---,0.00,VWS V14.01,2013-04-11 07:25:00,
2013-04-11 02:26:00,45.3,15.7,25.37,SSW,202,2.0,2.9,30,0.00,,---,0.00,VWS V14.01,2013-04-11 07:26:00,
2013-04-11 02:28:00,45.1,15.6,25.37,SSW,202,1.6,2.5,30,0.00,,---,0.00,VWS V14.01,2013-04-11 07:28:00,
2013-04-11 02:29:00,45.1,15.6,25.37,SW,225,2.9,2.9,30,0.00,,---,0.00,VWS V14.01,2013-04-11 07:29:00,
2013-04-11 02:30:00,45.1,15.6,25.37,South,180,4.0,4.0,30,0.00,,---,0.00,VWS V14.01,2013-04-11 07:30:00,
2013-04-11 02:31:00,45.1,15.6,25.37,SW,225,3.1,4.5,30,0.00,,---,0.00,VWS V14.01,2013-04-11 07:31:00,
2013-04-11 02:32:00,45.3,15.7,25.37,SSW,202,4.9,4.9,30,0.00,,---,0.00,VWS V14.01,2013-04-11 07:32:00,
2013-04-11 02:33:00,45.1,15.6,25.37,SW,225,3.8,5.4,30,0.00,,---,0.00,VWS V14.01,2013-04-11 07:33:00,
2013-04-11 02:34:00,45.1,15.6,25.37,SW,225,3.8,4.0,30,0.00,,---,0.00,VWS V14.01,2013-04-11 07:34:00,
2013-04-11 02:35:00,45.1,15.6,25.37,SSW,202,3.1,4.0,30,0.00,,---,0.00,VWS V14.01,2013-04-11 07:35:00,
2013-04-11 02:36:00,45.1,15.6,25.37,SW,225,6.5,6.5,30,0.00,,---,0.00,VWS V14.01,2013-04-11 07:36:00,
2013-04-11 02:37:00,45.1,15.6,25.37,SW,225,3.4,6.7,30,0.00,,---,0.00,VWS V14.01,2013-04-11 07:37:00,
2013-04-11 02:38:00,45.5,15.9,25.37,SW,225,6.0,6.0,30,0.00,,---,0.00,VWS V14.01,2013-04-11 07:38:00,
2013-04-11 02:39:00,45.5,15.9,25.37,SW,225,3.1,6.0,30,0.00,,---,0.00,VWS V14.01,2013-04-11 07:39:00,
2013-04-11 02:40:00,45.3,15.7,25.37,SW,225,2.2,3.1,30,0.00,,---,0.00,VWS V14.01,2013-04-11 07:40:00,
2013-04-11 02:41:00,45.3,15.7,25.37,SSE,158,2.7,2.7,30,0.00,,---,0.00,VWS V14.01,2013-04-11 07:41:00,
2013-04-11 02:42:00,45.3,15.7,25.37,SSW,202,1.3,3.4,30,0.00,,---,0.00,VWS V14.01,2013-04-11 07:42:00,
2013-04-11 02:43:00,45.1,15.6,25.37,West,270,4.3,4.3,30,0.00,,---,0.00,VWS V14.01,2013-04-11 07:43:00,
2013-04-11 02:44:00,45.1,15.6,25.37,West,270,4.0,4.3,30,0.00,,---,0.00,VWS V14.01,2013-04-11 07:44:00,
2013-04-11 02:45:00,44.8,15.3,25.37,SSW,202,1.6,4.0,30,0.00,,---,0.00,VWS V14.01,2013-04-11 07:45:00,
2013-04-11 02:46:00,44.8,15.3,25.37,SW,225,2.7,2.7,30,0.00,,---,0.00,VWS V14.01,2013-04-11 07:46:00,
2013-04-11 02:47:00,44.8,15.3,25.37,WSW,248,5.8,5.8,30,0.00,,---,0.00,VWS V14.01,2013-04-11 07:47:00,
2013-04-11 02:48:00,45.1,15.6,25.37,West,270,5.8,8.1,30,0.00,,---,0.00,VWS V14.01,2013-04-11 07:48:00,
2013-04-11 02:49:00,45.5,15.9,25.37,West,270,5.6,6.0,30,0.00,,---,0.00,VWS V14.01,2013-04-11 07:49:00,
2013-04-11 02:50:00,45.5,15.9,25.37,West,270,5.6,5.6,30,0.00,,---,0.00,VWS V14.01,2013-04-11 07:50:00,
2013-04-11 02:51:00,45.3,15.7,25.37,WSW,248,4.7,5.6,30,0.00,,---,0.00,VWS V14.01,2013-04-11 07:51:00,
2013-04-11 02:52:00,45.1,15.6,25.37,SE,135,2.9,4.7,30,0.00,,---,0.00,VWS V14.01,2013-04-11 07:52:00,
2013-04-11 02:53:00,45.0,15.4,25.37,SSW,202,2.5,2.9,30,0.00,,---,0.00,VWS V14.01,2013-04-11 07:53:00,
2013-04-11 02:54:00,45.0,15.4,25.37,SSW,202,2.7,2.9,30,0.00,,---,0.00,VWS V14.01,2013-04-11 07:54:00,
2013-04-11 02:55:00,45.0,15.4,25.37,SW,225,3.6,3.6,30,0.00,,---,0.00,VWS V14.01,2013-04-11 07:55:00,
2013-04-11 02:56:00,45.0,15.4,25.37,SSW,202,1.3,3.6,30,0.00,,---,0.00,VWS V14.01,2013-04-11 07:56:00,
2013-04-11 02:57:00,44.8,15.3,25.37,WSW,248,2.9,2.9,30,0.00,,---,0.00,VWS V14.01,2013-04-11 07:57:00,
2013-04-11 02:58:00,44.8,15.3,25.37,WSW,248,1.3,3.1,30,0.00,,---,0.00,VWS V14.01,2013-04-11 07:58:00,
2013-04-11 02:59:00,44.8,15.3,25.37,WSW,248,0.0,1.3,30,0.00,,---,0.00,VWS V14.01,2013-04-11 07:59:00,
2013-04-11 03:00:00,44.6,15.1,25.37,NW,315,1.1,1.1,30,0.00,,---,0.00,VWS V14.01,2013-04-11 08:00:00,
2013-04-11 03:01:00,44.6,15.1,25.37,South,180,1.3,1.6,30,0.00,,---,0.00,VWS V14.01,2013-04-11 08:01:00,
2013-04-11 03:02:00,44.6,15.1,25.37,South,180,0.0,1.3,30,0.00,,---,0.00,VWS V14.01,2013-04-11 08:02:00,
2013-04-11 03:03:00,44.4,14.9,25.37,South,180,0.0,0.0,30,0.00,,---,0.00,VWS V14.01,2013-04-11 08:03:00,
2013-04-11 03:04:00,44.4,14.9,25.37,ESE,112,2.0,2.0,30,0.00,,---,0.00,VWS V14.01,2013-04-11 08:04:00,
2013-04-11 03:05:00,44.4,14.9,25.37,East,90,2.9,3.1,30,0.00,,---,0.00,VWS V14.01,2013-04-11 08:05:00,
2013-04-11 03:06:00,44.4,14.9,25.37,SSE,158,2.0,2.9,30,0.00,,---,0.00,VWS V14.01,2013-04-11 08:06:00,
2013-04-11 03:07:00,44.4,14.9,25.37,ESE,112,1.1,2.0,30,0.00,,---,0.00,VWS V14.01,2013-04-11 08:07:00,
2013-04-11 03:08:00,44.2,14.8,25.37,SE,135,1.3,1.6,30,0.00,,---,0.00,VWS V14.01,2013-04-11 08:08:00,
2013-04-11 03:09:00,44.2,14.8,25.34,SE,135,0.0,1.3,30,0.00,,---,0.00,VWS V14.01,2013-04-11 08:09:00,
2013-04-11 03:10:00,44.1,14.6,25.34,NNW,338,2.5,2.5,30,0.00,,---,0.00,VWS V14.01,2013-04-11 08:10:00,
2013-04-11 03:11:00,43.9,14.5,25.34,West,270,2.7,3.6,30,0.00,,---,0.00,VWS V14.01,2013-04-11 08:11:00,
2013-04-11 03:12:00,43.9,14.5,25.34,West,270,2.2,2.7,30,0.00,,---,0.00,VWS V14.01,2013-04-11 08:12:00,
2013-04-11 03:13:00,43.7,14.3,25.34,WNW,292,3.8,3.8,30,0.00,,---,0.00,VWS V14.01,2013-04-11 08:13:00,
2013-04-11 03:14:00,43.7,14.3,25.34,WNW,292,4.9,5.4,30,0.00,,---,0.00,VWS V14.01,2013-04-11 08:14:00,
2013-04-11 03:15:00,43.9,14.5,25.34,WNW,292,4.9,4.9,30,0.00,,---,0.00,VWS V14.01,2013-04-11 08:15:00,
2013-04-11 03:16:00,44.1,14.6,25.34,West,270,4.3,5.8,30,0.00,,---,0.00,VWS V14.01,2013-04-11 08:16:00,
2013-04-11 03:17:00,44.1,14.6,25.34,West,270,3.1,4.3,30,0.00,,---,0.00,VWS V14.01,2013-04-11 08:17:00,
2013-04-11 03:18:00,44.1,14.6,25.34,WNW,292,3.1,4.0,30,0.00,,---,0.00,VWS V14.01,2013-04-11 08:18:00,
2013-04-11 03:19:00,44.1,14.6,25.34,WNW,292,5.6,5.6,30,0.00,,---,0.00,VWS V14.01,2013-04-11 08:19:00,
2013-04-11 03:20:00,44.2,14.8,25.34,NNW,338,3.6,7.4,30,0.00,,---,0.00,VWS V14.01,2013-04-11 08:20:00,
2013-04-11 03:21:00,44.2,14.8,25.34,West,270,4.0,5.4,30,0.00,,---,0.00,VWS V14.01,2013-04-11 08:21:00,
2013-04-11 03:22:00,44.2,14.8,25.34,West,270,4.0,4.0,30,0.00,,---,0.00,VWS V14.01,2013-04-11 08:22:00,
2013-04-11 03:23:00,44.8,15.3,25.34,WNW,292,4.7,4.7,30,0.00,,---,0.00,VWS V14.01,2013-04-11 08:23:00,
2013-04-11 03:24:00,44.8,15.3,25.37,West,270,2.2,4.7,30,0.00,,---,0.00,VWS V14.01,2013-04-11 08:24:00,
2013-04-11 03:25:00,44.8,15.3,25.37,SSW,202,2.5,2.5,30,0.00,,---,0.00,VWS V14.01,2013-04-11 08:25:00,
2013-04-11 03:26:00,44.8,15.3,25.37,SSW,202,1.1,2.5,30,0.00,,---,0.00,VWS V14.01,2013-04-11 08:26:00,
2013-04-11 03:27:00,44.8,15.3,25.37,SW,225,3.4,4.5,30,0.00,,---,0.00,VWS V14.01,2013-04-11 08:27:00,
2013-04-11 03:28:00,44.8,15.3,25.37,West,270,3.1,4.0,30,0.00,,---,0.00,VWS V14.01,2013-04-11 08:28:00,
2013-04-11 03:29:00,45.0,15.4,25.37,WNW,292,3.8,3.8,30,0.00,,---,0.00,VWS V14.01,2013-04-11 08:29:00,
2013-04-11 03:30:00,45.1,15.6,25.37,WSW,248,5.6,5.6,30,0.00,,---,0.00,VWS V14.01,2013-04-11 08:30:00,
2013-04-11 03:31:00,45.5,15.9,25.37,South,180,4.7,7.8,30,0.00,,---,0.00,VWS V14.01,2013-04-11 08:31:00,
2013-04-11 03:32:00,45.7,16.0,25.37,SSE,158,3.8,4.7,30,0.00,,---,0.00,VWS V14.01,2013-04-11 08:32:00,
2013-04-11 03:33:00,45.5,15.9,25.37,SW,225,2.7,4.3,30,0.00,,---,0.00,VWS V14.01,2013-04-11 08:33:00,
2013-04-11 03:34:00,45.3,15.7,25.37,SSW,202,1.3,2.9,30,0.00,,---,0.00,VWS V14.01,2013-04-11 08:34:00,
2013-04-11 03:35:00,45.5,15.9,25.37,SW,225,4.3,4.3,30,0.00,,---,0.00,VWS V14.01,2013-04-11 08:35:00,
2013-04-11 03:36:00,45.7,16.0,25.37,SSW,202,3.4,5.6,30,0.00,,---,0.00,VWS V14.01,2013-04-11 08:36:00,
2013-04-11 03:37:00,45.9,16.2,25.37,SW,225,1.6,3.4,30,0.00,,---,0.00,VWS V14.01,2013-04-11 08:37:00,
2013-04-11 03:38:00,45.9,16.2,25.37,SW,225,3.6,4.3,30,0.00,,---,0.00,VWS V14.01,2013-04-11 08:38:00,
2013-04-11 03:39:00,46.0,16.4,25.34,SSE,158,1.6,1.6,30,0.00,,---,0.00,VWS V14.01,2013-04-11 08:39:00,
2013-04-11 03:40:00,46.0,16.4,25.34,SW,225,1.6,3.4,30,0.00,,---,0.00,VWS V14.01,2013-04-11 08:40:00,
2013-04-11 03:41:00,46.0,16.4,25.34,SSW,202,3.6,3.6,30,0.00,,---,0.00,VWS V14.01,2013-04-11 08:41:00,
2013-04-11 03:42:00,46.0,16.4,25.34,WSW,248,3.1,3.6,30,0.00,,---,0.00,VWS V14.01,2013-04-11 08:42:00,
2013-04-11 03:43:00,46.0,16.4,25.34,SW,225,3.4,3.4,30,0.00,,---,0.00,VWS V14.01,2013-04-11 08:43:00,
2013-04-11 03:44:00,46.0,16.4,25.34,SW,225,1.1,3.4,30,0.00,,---,0.00,VWS V14.01,2013-04-11 08:44:00,
2013-04-11 03:45:00,45.5,15.9,25.34,SW,225,1.6,2.7,30,0.00,,---,0.00,VWS V14.01,2013-04-11 08:45:00,
2013-04-11 03:46:00,45.5,15.9,25.34,SW,225,1.6,1.6,30,0.00,,---,0.00,VWS V14.01,2013-04-11 08:46:00,
2013-04-11 03:47:00,45.3,15.7,25.34,SSW,202,2.2,2.2,30,0.00,,---,0.00,VWS V14.01,2013-04-11 08:47:00,
2013-04-11 03:48:00,45.1,15.6,25.34,SW,225,1.3,2.2,30,0.00,,---,0.00,VWS V14.01,2013-04-11 08:48:00,
2013-04-11 03:49:00,45.1,15.6,25.34,South,180,2.7,2.7,30,0.00,,---,0.00,VWS V14.01,2013-04-11 08:49:00,
2013-04-11 03:50:00,45.0,15.4,25.34,South,180,1.3,2.7,30,0.00,,---,0.00,VWS V14.01,2013-04-11 08:50:00,
2013-04-11 03:51:00,45.0,15.4,25.34,South,180,2.2,2.5,30,0.00,,---,0.00,VWS V14.01,2013-04-11 08:51:00,
2013-04-11 03:52:00,45.0,15.4,25.34,South,180,1.1,1.1,30,0.00,,---,0.00,VWS V14.01,2013-04-11 08:52:00,
2013-04-11 03:53:00,45.1,15.6,25.34,SSW,202,2.9,2.9,30,0.00,,---,0.00,VWS V14.01,2013-04-11 08:53:00,
2013-04-11 03:54:00,45.3,15.7,25.34,South,180,2.5,2.9,30,0.00,,---,0.00,VWS V14.01,2013-04-11 08:54:00,
2013-04-11 03:55:00,45.3,15.7,25.34,South,180,2.2,2.7,30,0.00,,---,0.00,VWS V14.01,2013-04-11 08:55:00,
2013-04-11 03:56:00,45.1,15.6,25.34,South,180,1.6,2.2,30,0.00,,---,0.00,VWS V14.01,2013-04-11 08:56:00,
2013-04-11 03:57:00,45.1,15.6,25.34,South,180,2.7,2.7,30,0.00,,---,0.00,VWS V14.01,2013-04-11 08:57:00,
2013-04-11 03:58:00,45.1,15.6,25.34,South,180,2.7,2.7,30,0.00,,---,0.00,VWS V14.01,2013-04-11 08:58:00,
2013-04-11 03:59:00,45.1,15.6,25.34,South,180,2.0,2.7,30,0.00,,---,0.00,VWS V14.01,2013-04-11 08:59:00,
2013-04-11 04:00:00,45.0,15.4,25.34,SSW,202,2.7,3.6,30,0.00,,---,0.00,VWS V14.01,2013-04-11 09:00:00,
2013-04-11 04:01:00,44.8,15.3,25.34,SSW,202,2.9,2.9,30,0.00,,---,0.00,VWS V14.01,2013-04-11 09:01:00,
2013-04-11 04:02:00,44.8,15.3,25.34,SSW,202,1.6,2.9,30,0.00,,---,0.00,VWS V14.01,2013-04-11 09:02:00,
2013-04-11 04:03:00,44.8,15.3,25.34,SSW,202,2.0,2.0,30,0.00,,---,0.00,VWS V14.01,2013-04-11 09:03:00,
2013-04-11 04:04:00,44.4,14.9,25.34,South,180,2.5,2.5,30,0.00,,---,0.00,VWS V14.01,2013-04-11 09:04:00,
2013-04-11 04:05:00,44.2,14.8,25.34,South,180,2.7,3.1,30,0.00,,---,0.00,VWS V14.01,2013-04-11 09:05:00,
2013-04-11 04:06:00,44.2,14.8,25.34,South,180,2.5,3.1,30,0.00,,---,0.00,VWS V14.01,2013-04-11 09:06:00,
2013-04-11 04:07:00,44.2,14.8,25.34,South,180,1.3,1.3,30,0.00,,---,0.00,VWS V14.01,2013-04-11 09:07:00,
2013-04-11 04:08:00,44.1,14.6,25.34,SSW,202,1.1,1.6,30,0.00,,---,0.00,VWS V14.01,2013-04-11 09:08:00,
2013-04-11 04:09:00,44.1,14.6,25.34,SSW,202,0.0,1.1,30,0.00,,---,0.00,VWS V14.01,2013-04-11 09:09:00,
2013-04-11 04:10:00,44.1,14.6,25.34,SW,225,0.9,2.0,30,0.00,,---,0.00,VWS V14.01,2013-04-11 09:10:00,
2013-04-11 04:11:00,43.5,14.2,25.34,West,270,1.6,1.6,30,0.00,,---,0.00,VWS V14.01,2013-04-11 09:11:00,
2013-04-11 04:12:00,43.0,13.7,25.34,WNW,292,2.2,2.2,30,0.00,,---,0.00,VWS V14.01,2013-04-11 09:12:00,
2013-04-11 04:13:00,43.0,13.7,25.34,West,270,2.2,2.2,30,0.00,,---,0.00,VWS V14.01,2013-04-11 09:13:00,
2013-04-11 04:14:00,42.8,13.5,25.34,West,270,1.3,2.2,30,0.00,,---,0.00,VWS V14.01,2013-04-11 09:14:00,
2013-04-11 04:15:00,42.6,13.4,25.34,West,270,1.3,1.6,30,0.00,,---,0.00,VWS V14.01,2013-04-11 09:15:00,
2013-04-11 04:16:00,42.4,13.2,25.34,WSW,248,0.9,1.3,30,0.00,,---,0.00,VWS V14.01,2013-04-11 09:16:00,
2013-04-11 04:17:00,42.4,13.2,25.34,SW,225,0.0,0.0,30,0.00,,---,0.00,VWS V14.01,2013-04-11 09:17:00,
2013-04-11 04:18:00,42.3,13.1,25.34,SW,225,0.0,0.0,30,0.00,,---,0.00,VWS V14.01,2013-04-11 09:18:00,
2013-04-11 04:19:00,42.1,12.9,25.34,SW,225,0.0,0.0,30,0.00,,---,0.00,VWS V14.01,2013-04-11 09:19:00,
2013-04-11 04:21:00,42.1,12.9,25.34,SW,225,0.0,0.0,30,0.00,,---,0.00,VWS V14.01,2013-04-11 09:21:00,
2013-04-11 04:22:00,41.5,12.4,25.34,SW,225,0.0,0.0,30,0.00,,---,0.00,VWS V14.01,2013-04-11 09:22:00,
2013-04-11 04:23:00,41.5,12.4,25.34,SW,225,0.0,0.0,30,0.00,,---,0.00,VWS V14.01,2013-04-11 09:23:00,
2013-04-11 04:24:00,41.4,12.3,25.34,SW,225,0.0,0.0,30,0.00,,---,0.00,VWS V14.01,2013-04-11 09:24:00,
2013-04-11 04:25:00,41.4,12.3,25.34,SW,225,0.0,0.0,30,0.00,,---,0.00,VWS V14.01,2013-04-11 09:25:00,
2013-04-11 04:26:00,41.2,12.1,25.34,WNW,292,2.5,2.5,30,0.00,,---,0.00,VWS V14.01,2013-04-11 09:26:00,
2013-04-11 04:27:00,41.4,12.3,25.34,NW,315,2.9,2.9,30,0.00,,---,0.00,VWS V14.01,2013-04-11 09:27:00,
2013-04-11 04:28:00,41.5,13.2,25.34,SSW,202,0.0,2.9,31,0.00,,---,0.00,VWS V14.01,2013-04-11 09:28:00,
2013-04-11 04:29:00,41.5,13.2,25.34,SSW,202,0.0,0.0,31,0.00,,---,0.00,VWS V14.01,2013-04-11 09:29:00,
2013-04-11 04:30:00,41.5,13.2,25.34,SSW,202,0.0,0.0,31,0.00,,---,0.00,VWS V14.01,2013-04-11 09:30:00,
2013-04-11 04:31:00,41.5,13.2,25.34,WNW,292,0.0,0.0,31,0.00,,---,0.00,VWS V14.01,2013-04-11 09:31:00,
2013-04-11 04:32:00,41.7,13.3,25.34,WNW,292,0.0,0.0,31,0.00,,---,0.00,VWS V14.01,2013-04-11 09:32:00,
2013-04-11 04:33:00,41.5,13.2,25.34,WNW,292,0.0,0.0,31,0.00,,---,0.00,VWS V14.01,2013-04-11 09:33:00,
2013-04-11 04:34:00,41.5,13.2,25.34,WNW,292,0.0,0.0,31,0.00,,---,0.00,VWS V14.01,2013-04-11 09:34:00,
2013-04-11 04:35:00,41.5,13.2,25.34,ENE,68,0.0,0.0,31,0.00,,---,0.00,VWS V14.01,2013-04-11 09:35:00,
2013-04-11 04:36:00,41.5,13.2,25.34,ENE,68,0.0,0.0,31,0.00,,---,0.00,VWS V14.01,2013-04-11 09:36:00,
2013-04-11 04:37:00,41.5,13.2,25.34,ENE,68,0.0,0.0,31,0.00,,---,0.00,VWS V14.01,2013-04-11 09:37:00,
2013-04-11 04:38:00,41.5,13.2,25.34,NE,45,0.0,0.0,31,0.00,,---,0.00,VWS V14.01,2013-04-11 09:38:00,
2013-04-11 04:39:00,41.5,13.2,25.34,NE,45,0.0,0.0,31,0.00,,---,0.00,VWS V14.01,2013-04-11 09:39:00,
2013-04-11 04:40:00,41.5,13.2,25.34,NNE,22,0.0,0.0,31,0.00,,---,0.00,VWS V14.01,2013-04-11 09:40:00,
2013-04-11 04:41:00,41.4,13.0,25.34,NE,45,0.0,0.0,31,0.00,,---,0.00,VWS V14.01,2013-04-11 09:41:00,
2013-04-11 04:42:00,41.4,13.0,25.34,ENE,68,0.0,0.0,31,0.00,,---,0.00,VWS V14.01,2013-04-11 09:42:00,
2013-04-11 04:43:00,41.4,13.0,25.34,ENE,68,0.0,0.0,31,0.00,,---,0.00,VWS V14.01,2013-04-11 09:43:00,
2013-04-11 04:44:00,41.5,13.2,25.34,East,90,2.5,2.5,31,0.00,,---,0.00,VWS V14.01,2013-04-11 09:44:00,
2013-04-11 04:45:00,41.7,13.3,25.34,ESE,112,2.9,3.6,31,0.00,,---,0.00,VWS V14.01,2013-04-11 09:45:00,
2013-04-11 04:46:00,41.9,13.5,25.34,ESE,112,2.7,2.9,31,0.00,,---,0.00,VWS V14.01,2013-04-11 09:46:00,
2013-04-11 04:47:00,42.1,13.6,25.34,ESE,112,2.2,2.7,31,0.00,,---,0.00,VWS V14.01,2013-04-11 09:47:00,
2013-04-11 04:48:00,42.1,13.6,25.34,ESE,112,2.0,2.2,31,0.00,,---,0.00,VWS V14.01,2013-04-11 09:48:00,
2013-04-11 04:49:00,42.1,13.6,25.34,East,90,2.2,2.2,31,0.00,,---,0.00,VWS V14.01,2013-04-11 09:49:00,
2013-04-11 04:50:00,42.1,13.6,25.34,East,90,2.2,2.5,31,0.00,,---,0.00,VWS V14.01,2013-04-11 09:50:00,
2013-04-11 04:51:00,42.1,13.6,25.34,East,90,2.2,2.2,31,0.00,,---,0.00,VWS V14.01,2013-04-11 09:51:00,
2013-04-11 04:52:00,42.1,13.6,25.34,ENE,68,3.1,3.1,31,0.00,,---,0.00,VWS V14.01,2013-04-11 09:52:00,
2013-04-11 04:53:00,42.3,13.8,25.34,East,90,2.7,3.1,31,0.00,,---,0.00,VWS V14.01,2013-04-11 09:53:00,
2013-04-11 04:54:00,42.4,14.0,25.34,ESE,112,2.5,2.7,31,0.00,,---,0.00,VWS V14.01,2013-04-11 09:54:00,
2013-04-11 04:55:00,42.4,14.0,25.34,ESE,112,1.1,1.3,31,0.00,,---,0.00,VWS V14.01,2013-04-11 09:55:00,
2013-04-11 04:56:00,42.3,13.8,25.34,SSE,158,0.0,1.3,31,0.00,,---,0.00,VWS V14.01,2013-04-11 09:56:00,
2013-04-11 04:57:00,42.1,13.6,25.34,SSE,158,0.0,0.0,31,0.00,,---,0.00,VWS V14.01,2013-04-11 09:57:00,
2013-04-11 04:58:00,42.1,13.6,25.34,SSE,158,1.6,1.6,31,0.00,,---,0.00,VWS V14.01,2013-04-11 09:58:00,
2013-04-11 04:59:00,42.1,13.6,25.34,ESE,112,2.2,2.2,31,0.00,,---,0.00,VWS V14.01,2013-04-11 09:59:00,
2013-04-11 05:00:00,42.1,13.6,25.34,ESE,112,2.0,2.2,31,0.00,,---,0.00,VWS V14.01,2013-04-11 10:00:00,
2013-04-11 05:01:00,42.3,13.8,25.34,East,90,1.6,2.2,31,0.00,,---,0.00,VWS V14.01,2013-04-11 10:01:00,
2013-04-11 05:02:00,42.3,13.8,25.34,East,90,1.1,1.6,31,0.00,,---,0.00,VWS V14.01,2013-04-11 10:02:00,
2013-04-11 05:03:00,42.3,13.8,25.34,ESE,112,1.1,1.1,31,0.00,,---,0.00,VWS V14.01,2013-04-11 10:03:00,
2013-04-11 05:04:00,42.1,13.6,25.34,ESE,112,2.0,2.0,31,0.00,,---,0.00,VWS V14.01,2013-04-11 10:04:00,
2013-04-11 05:05:00,42.3,13.8,25.34,ESE,112,1.1,2.0,31,0.00,,---,0.00,VWS V14.01,2013-04-11 10:05:00,
2013-04-11 05:06:00,42.3,13.8,25.34,ESE,112,0.9,1.1,31,0.00,,---,0.00,VWS V14.01,2013-04-11 10:06:00,
2013-04-11 05:07:00,42.1,13.6,25.34,ESE,112,0.0,0.9,31,0.00,,---,0.00,VWS V14.01,2013-04-11 10:07:00,
2013-04-11 05:08:00,42.1,13.6,25.34,ESE,112,0.0,0.0,31,0.00,,---,0.00,VWS V14.01,2013-04-11 10:08:00,
2013-04-11 05:09:00,42.1,13.6,25.34,South,180,0.0,0.0,31,0.00,,---,0.00,VWS V14.01,2013-04-11 10:09:00,
2013-04-11 05:10:00,42.3,13.8,25.34,SSW,202,0.0,0.0,31,0.00,,---,0.00,VWS V14.01,2013-04-11 10:10:00,
2013-04-11 05:11:00,42.3,13.8,25.34,SE,135,1.6,1.6,31,0.00,,---,0.00,VWS V14.01,2013-04-11 10:11:00,
2013-04-11 05:12:00,42.4,14.0,25.34,SE,135,1.6,2.5,31,0.00,,---,0.00,VWS V14.01,2013-04-11 10:12:00,
2013-04-11 05:13:00,42.4,14.7,25.34,SSE,158,2.7,2.7,32,0.00,,---,0.00,VWS V14.01,2013-04-11 10:13:00,
2013-04-11 05:14:00,42.6,14.8,25.34,SSE,158,1.6,2.7,32,0.00,,---,0.00,VWS V14.01,2013-04-11 10:14:00,
2013-04-11 05:15:00,42.8,14.3,25.34,SSE,158,2.7,2.9,31,0.00,,---,0.00,VWS V14.01,2013-04-11 10:15:00,
2013-04-11 05:16:00,42.8,14.3,25.34,SSE,158,2.5,2.9,31,0.00,,---,0.00,VWS V14.01,2013-04-11 10:16:00,
2013-04-11 05:17:00,42.8,14.3,25.34,SSE,158,2.5,2.5,31,0.00,,---,0.00,VWS V14.01,2013-04-11 10:17:00,
2013-04-11 05:18:00,42.8,14.3,25.34,South,180,2.7,2.7,31,0.00,,---,0.00,VWS V14.01,2013-04-11 10:18:00,
2013-04-11 05:19:00,43.2,14.6,25.34,South,180,1.1,2.7,31,0.00,,---,0.00,VWS V14.01,2013-04-11 10:19:00,
2013-04-11 05:20:00,43.2,14.6,25.34,South,180,1.6,2.5,31,0.00,,---,0.00,VWS V14.01,2013-04-11 10:20:00,
2013-04-11 05:21:00,43.2,14.6,25.34,South,180,1.1,2.0,31,0.00,,---,0.00,VWS V14.01,2013-04-11 10:21:00,
2013-04-11 05:22:00,43.3,14.8,25.34,South,180,0.0,1.1,31,0.00,,---,0.00,VWS V14.01,2013-04-11 10:22:00,
2013-04-11 05:23:00,43.3,14.8,25.34,South,180,0.0,0.0,31,0.00,,---,0.00,VWS V14.01,2013-04-11 10:23:00,
2013-04-11 05:24:00,43.3,14.8,25.34,SSW,202,3.1,3.4,31,0.00,,---,0.00,VWS V14.01,2013-04-11 10:24:00,
2013-04-11 05:25:00,43.5,14.9,25.34,SSW,202,3.4,3.4,31,0.00,,---,0.00,VWS V14.01,2013-04-11 10:25:00,
2013-04-11 05:26:00,43.5,14.9,25.34,SSW,202,3.1,3.4,31,0.00,,---,0.00,VWS V14.01,2013-04-11 10:26:00,
2013-04-11 05:27:00,43.3,14.8,25.34,SSW,202,3.1,3.1,31,0.00,,---,0.00,VWS V14.01,2013-04-11 10:27:00,
2013-04-11 05:28:00,43.2,14.6,25.34,SSW,202,3.4,3.6,31,0.00,,---,0.00,VWS V14.01,2013-04-11 10:28:00,
2013-04-11 05:29:00,43.0,14.4,25.34,SSW,202,3.4,3.4,31,0.00,,---,0.00,VWS V14.01,2013-04-11 10:29:00,
2013-04-11 05:30:00,42.8,14.3,25.34,SSW,202,2.7,3.4,31,0.00,,---,0.00,VWS V14.01,2013-04-11 10:30:00,
2013-04-11 05:31:00,42.6,14.1,25.34,SSW,202,2.2,2.7,31,0.00,,---,0.00,VWS V14.01,2013-04-11 10:31:00,
2013-04-11 05:33:00,42.4,14.0,25.34,SSW,202,2.0,2.5,31,0.00,,---,0.00,VWS V14.01,2013-04-11 10:33:00,
2013-04-11 05:34:00,42.3,14.5,25.34,SSW,202,2.0,2.2,32,0.00,,---,0.00,VWS V14.01,2013-04-11 10:34:00,
2013-04-11 05:35:00,42.1,13.6,25.34,SSW,202,2.2,2.5,31,0.00,,---,0.00,VWS V14.01,2013-04-11 10:35:00,
2013-04-11 05:36:00,42.1,13.6,25.34,South,180,2.9,2.9,31,0.00,,---,0.00,VWS V14.01,2013-04-11 10:36:00,
2013-04-11 05:37:00,42.1,14.4,25.34,South,180,3.8,3.8,32,0.00,,---,0.00,VWS V14.01,2013-04-11 10:37:00,
2013-04-11 05:38:00,42.1,14.4,25.34,South,180,4.0,4.0,32,0.00,,---,0.00,VWS V14.01,2013-04-11 10:38:00,
2013-04-11 05:39:00,42.1,14.4,25.34,South,180,3.8,4.3,32,0.00,,---,0.00,VWS V14.01,2013-04-11 10:39:00,
2013-04-11 05:40:00,42.3,14.5,25.34,South,180,2.9,3.4,32,0.00,,---,0.00,VWS V14.01,2013-04-11 10:40:00,
2013-04-11 05:41:00,42.3,14.5,25.34,South,180,3.4,3.4,32,0.00,,---,0.00,VWS V14.01,2013-04-11 10:41:00,
2013-04-11 05:42:00,42.3,14.5,25.34,SSE,158,5.6,5.6,32,0.00,,---,0.00,VWS V14.01,2013-04-11 10:42:00,
2013-04-11 05:43:00,42.3,14.5,25.34,South,180,3.8,5.6,32,0.00,,---,0.00,VWS V14.01,2013-04-11 10:43:00,
2013-04-11 05:44:00,42.3,14.5,25.34,South,180,3.6,4.0,32,0.00,,---,0.00,VWS V14.01,2013-04-11 10:44:00,
2013-04-11 05:45:00,42.3,14.5,25.34,South,180,4.0,4.0,32,0.00,,---,0.00,VWS V14.01,2013-04-11 10:45:00,
2013-04-11 05:46:00,42.3,14.5,25.34,South,180,4.3,4.3,32,0.00,,---,0.00,VWS V14.01,2013-04-11 10:46:00,
2013-04-11 05:47:00,42.3,14.5,25.34,SSE,158,3.8,4.3,32,0.00,,---,0.00,VWS V14.01,2013-04-11 10:47:00,
2013-04-11 05:48:00,42.3,14.5,25.34,SSE,158,4.0,4.3,32,0.00,,---,0.00,VWS V14.01,2013-04-11 10:48:00,
2013-04-11 05:49:00,42.4,14.7,25.34,South,180,4.3,6.3,32,0.00,,---,0.00,VWS V14.01,2013-04-11 10:49:00,
2013-04-11 05:50:00,43.5,14.9,25.34,South,180,3.1,3.1,31,0.00,,---,0.00,VWS V14.01,2013-04-11 10:50:00,
2013-04-11 05:51:00,43.5,14.9,25.34,South,180,4.0,4.3,31,0.00,,---,0.00,VWS V14.01,2013-04-11 10:51:00,
2013-04-11 05:52:00,43.7,15.1,25.34,SSW,202,2.0,4.0,31,0.00,,---,0.00,VWS V14.01,2013-04-11 10:52:00,
2013-04-11 05:53:00,43.5,14.9,25.34,South,180,2.2,2.7,31,0.00,,---,0.00,VWS V14.01,2013-04-11 10:53:00,
2013-04-11 05:54:00,43.5,14.9,25.34,South,180,2.9,3.4,31,0.00,,---,0.00,VWS V14.01,2013-04-11 10:54:00,
2013-04-11 05:55:00,43.5,14.9,25.34,South,180,3.4,3.4,31,0.00,,---,0.00,VWS V14.01,2013-04-11 10:55:00,
2013-04-11 05:56:00,43.5,14.9,25.34,SSW,202,3.1,3.4,31,0.00,,---,0.00,VWS V14.01,2013-04-11 10:56:00,
2013-04-11 05:57:00,43.3,14.8,25.34,SSE,158,3.4,4.3,31,0.00,,---,0.00,VWS V14.01,2013-04-11 10:57:00,
2013-04-11 05:58:00,43.2,14.6,25.34,South,180,2.9,3.4,31,0.00,,---,0.00,VWS V14.01,2013-04-11 10:58:00,
2013-04-11 05:59:00,43.0,14.4,25.34,South,180,3.4,3.4,31,0.00,,---,0.00,VWS V14.01,2013-04-11 10:59:00,
2013-04-11 06:00:00,43.0,14.4,25.34,South,180,3.4,3.6,31,0.00,,---,0.00,VWS V14.01,2013-04-11 11:00:00,
2013-04-11 06:01:00,42.8,14.3,25.34,SSW,202,3.1,3.4,31,0.00,,---,0.00,VWS V14.01,2013-04-11 11:01:00,
2013-04-11 06:02:00,42.8,14.3,25.34,South,180,2.7,3.1,31,0.00,,---,0.00,VWS V14.01,2013-04-11 11:02:00,
2013-04-11 06:03:00,42.8,14.3,25.34,SSW,202,2.5,2.7,31,0.00,,---,0.00,VWS V14.01,2013-04-11 11:03:00,
2013-04-11 06:04:00,42.4,14.0,25.34,South,180,2.5,2.9,31,0.00,,---,0.00,VWS V14.01,2013-04-11 11:04:00,
2013-04-11 06:05:00,42.1,13.6,25.34,SSW,202,2.5,2.5,31,0.00,,---,0.00,VWS V14.01,2013-04-11 11:05:00,
2013-04-11 06:06:00,41.9,13.5,25.34,SSW,202,2.5,2.7,31,0.00,,---,0.00,VWS V14.01,2013-04-11 11:06:00,
2013-04-11 06:07:00,41.9,14.2,25.34,SSW,202,2.7,3.1,32,0.00,,---,0.00,VWS V14.01,2013-04-11 11:07:00,
2013-04-11 06:08:00,41.9,14.2,25.34,SSW,202,2.5,2.7,32,0.00,,---,0.00,VWS V14.01,2013-04-11 11:08:00,
2013-04-11 06:09:00,42.3,14.5,25.34,SSW,202,2.5,2.5,32,0.00,,---,0.00,VWS V14.01,2013-04-11 11:09:00,
2013-04-11 06:10:00,42.1,14.4,25.34,SSW,202,4.9,4.9,32,0.00,,---,0.00,VWS V14.01,2013-04-11 11:10:00,
2013-04-11 06:11:00,42.4,14.7,25.34,SSW,202,4.5,4.9,32,0.00,,---,0.00,VWS V14.01,2013-04-11 11:11:00,
2013-04-11 06:12:00,42.4,14.7,25.34,SSW,202,6.0,6.0,32,0.00,,---,0.00,VWS V14.01,2013-04-11 11:12:00,
2013-04-11 06:13:00,42.8,14.3,25.34,SSW,202,5.4,6.0,31,0.00,,---,0.00,VWS V14.01,2013-04-11 11:13:00,
2013-04-11 06:14:00,42.8,14.3,25.34,SSW,202,5.4,5.6,31,0.00,,---,0.00,VWS V14.01,2013-04-11 11:14:00,
2013-04-11 06:15:00,43.2,14.6,25.34,SSW,202,5.8,5.8,31,0.00,,---,0.00,VWS V14.01,2013-04-11 11:15:00,
2013-04-11 06:16:00,43.3,14.8,25.34,SSW,202,4.9,6.3,31,0.00,,---,0.00,VWS V14.01,2013-04-11 11:16:00,
2013-04-11 06:17:00,43.2,14.6,25.34,SW,225,4.9,6.3,31,0.00,,---,0.00,VWS V14.01,2013-04-11 11:17:00,
2013-04-11 06:18:00,43.0,14.4,25.34,SW,225,5.4,5.6,31,0.00,,---,0.00,VWS V14.01,2013-04-11 11:18:00,
2013-04-11 06:19:00,43.0,14.4,25.34,SSW,202,6.0,6.3,31,0.00,,---,0.00,VWS V14.01,2013-04-11 11:19:00,
2013-04-11 06:20:00,43.0,14.4,25.34,SW,225,4.9,4.9,31,0.00,,---,0.00,VWS V14.01,2013-04-11 11:20:00,
2013-04-11 06:21:00,42.8,14.3,25.34,SW,225,4.7,4.9,31,0.00,,---,0.00,VWS V14.01,2013-04-11 11:21:00,
2013-04-11 06:22:00,42.6,14.8,25.34,SW,225,3.8,4.7,32,0.00,,---,0.00,VWS V14.01,2013-04-11 11:22:00,
2013-04-11 06:23:00,42.6,14.8,25.34,SW,225,4.5,4.7,32,0.00,,---,0.00,VWS V14.01,2013-04-11 11:23:00,
2013-04-11 06:24:00,42.8,14.3,25.34,SW,225,4.5,4.5,31,0.00,,---,0.00,VWS V14.01,2013-04-11 11:24:00,
2013-04-11 06:25:00,42.8,14.3,25.34,SW,225,4.7,4.7,31,0.00,,---,0.00,VWS V14.01,2013-04-11 11:25:00,
2013-04-11 06:26:00,42.8,14.3,25.34,SW,225,4.7,4.7,31,0.00,,---,0.00,VWS V14.01,2013-04-11 11:26:00,
2013-04-11 06:27:00,42.6,14.1,25.34,WSW,248,4.3,4.7,31,0.00,,---,0.00,VWS V14.01,2013-04-11 11:27:00,
2013-04-11 06:28:00,42.6,14.1,25.34,SW,225,5.4,5.4,31,0.00,,---,0.00,VWS V14.01,2013-04-11 11:28:00,
2013-04-11 06:29:00,42.6,14.1,25.34,SW,225,4.9,5.4,31,0.00,,---,0.00,VWS V14.01,2013-04-11 11:29:00,
2013-04-11 06:30:00,43.0,14.4,25.34,SW,225,4.9,4.9,31,0.00,,---,0.00,VWS V14.01,2013-04-11 11:30:00,
2013-04-11 06:31:00,43.0,14.4,25.34,SW,225,4.9,4.9,31,0.00,,---,0.00,VWS V14.01,2013-04-11 11:31:00,
2013-04-11 06:32:00,43.0,14.4,25.34,SW,225,4.9,4.9,31,0.00,,---,0.00,VWS V14.01,2013-04-11 11:32:00,
2013-04-11 06:33:00,43.5,14.9,25.34,SW,225,5.8,5.8,31,0.00,,---,0.00,VWS V14.01,2013-04-11 11:33:00,
2013-04-11 06:34:00,43.9,15.2,25.34,SW,225,5.8,5.8,31,0.00,,---,0.00,VWS V14.01,2013-04-11 11:34:00,
2013-04-11 06:35:00,43.9,15.2,25.34,SW,225,5.8,5.8,31,0.00,,---,0.00,VWS V14.01,2013-04-11 11:35:00,
2013-04-11 06:36:00,43.9,15.2,25.34,SW,225,5.8,5.8,31,0.00,,---,0.00,VWS V14.01,2013-04-11 11:36:00,
2013-04-11 06:37:00,43.9,15.2,25.34,SW,225,5.8,5.8,31,0.00,,---,0.00,VWS V14.01,2013-04-11 11:37:00,
2013-04-11 06:38:00,43.9,15.2,25.34,SW,225,5.8,5.8,31,0.00,,---,0.00,VWS V14.01,2013-04-11 11:38:00,
2013-04-11 06:39:00,43.9,15.2,25.34,SW,225,5.6,5.8,31,0.00,,---,0.00,VWS V14.01,2013-04-11 11:39:00,
2013-04-11 06:40:00,43.9,15.2,25.34,SW,225,6.3,6.3,31,0.00,,---,0.00,VWS V14.01,2013-04-11 11:40:00,
2013-04-11 06:41:00,43.9,15.2,25.34,SW,225,6.3,6.3,31,0.00,,---,0.00,VWS V14.01,2013-04-11 11:41:00,
2013-04-11 06:42:00,44.2,15.5,25.34,SSW,202,4.7,6.3,31,0.00,,---,0.00,VWS V14.01,2013-04-11 11:42:00,
2013-04-11 06:43:00,44.4,15.7,25.34,SSW,202,5.6,5.6,31,0.00,,---,0.00,VWS V14.01,2013-04-11 11:43:00,
2013-04-11 06:44:00,44.6,15.1,25.34,SSW,202,5.6,5.6,30,0.00,,---,0.00,VWS V14.01,2013-04-11 11:44:00,
2013-04-11 06:45:00,44.6,15.1,25.34,SSW,202,5.6,5.6,30,0.00,,---,0.00,VWS V14.01,2013-04-11 11:45:00,
2013-04-11 06:46:00,44.8,15.3,25.34,SSW,202,5.6,5.6,30,0.00,,---,0.00,VWS V14.01,2013-04-11 11:46:00,
2013-04-11 06:47:00,45.0,15.4,25.34,SSW,202,5.6,5.6,30,0.00,,---,0.00,VWS V14.01,2013-04-11 11:47:00,
2013-04-11 06:48:00,45.0,15.4,25.34,SSW,202,5.6,5.6,30,0.00,,---,0.00,VWS V14.01,2013-04-11 11:48:00,
2013-04-11 06:49:00,45.1,15.6,25.34,SSW,202,5.6,5.6,30,0.00,,---,0.00,VWS V14.01,2013-04-11 11:49:00,
2013-04-11 06:50:00,44.8,15.3,25.34,SSW,202,5.6,5.6,30,0.00,,---,0.00,VWS V14.01,2013-04-11 11:50:00,
2013-04-11 06:51:00,44.6,15.1,25.34,SSW,202,5.6,5.6,30,0.00,,---,0.00,VWS V14.01,2013-04-11 11:51:00,
2013-04-11 06:52:00,44.8,15.3,25.34,SSW,202,5.6,5.6,30,0.00,,---,0.00,VWS V14.01,2013-04-11 11:52:00,
2013-04-11 06:53:00,44.8,15.3,25.34,SSW,202,5.6,5.6,30,0.00,,---,0.00,VWS V14.01,2013-04-11 11:53:00,
2013-04-11 06:54:00,45.0,15.4,25.34,SSW,202,5.6,5.6,30,0.00,,---,0.00,VWS V14.01,2013-04-11 11:54:00,
2013-04-11 06:55:00,45.0,15.4,25.34,SSW,202,5.6,5.6,30,0.00,,---,0.00,VWS V14.01,2013-04-11 11:55:00,
2013-04-11 06:56:00,45.3,15.7,25.34,SSW,202,5.6,5.6,30,0.00,,---,0.00,VWS V14.01,2013-04-11 11:56:00,
2013-04-11 06:57:00,45.5,15.9,25.34,SSW,202,5.6,5.6,30,0.00,,---,0.00,VWS V14.01,2013-04-11 11:57:00,
2013-04-11 06:58:00,45.9,16.2,25.34,SSW,202,5.6,5.6,30,0.00,,---,0.00,VWS V14.01,2013-04-11 11:58:00,
2013-04-11 06:59:00,45.9,15.4,25.34,SSW,202,5.6,5.6,29,0.00,,---,0.00,VWS V14.01,2013-04-11 11:59:00,
2013-04-11 07:01:00,45.9,15.4,25.34,SSW,202,5.6,5.6,29,0.00,,---,0.00,VWS V14.01,2013-04-11 12:01:00,
2013-04-11 07:02:00,45.9,15.4,25.34,SSW,202,5.6,5.6,29,0.00,,---,0.00,VWS V14.01,2013-04-11 12:02:00,
2013-04-11 07:03:00,46.0,15.6,25.34,SSW,202,6.5,6.5,29,0.00,,---,0.00,VWS V14.01,2013-04-11 12:03:00,
2013-04-11 07:04:00,46.0,15.6,25.34,SSW,202,6.5,6.5,29,0.00,,---,0.00,VWS V14.01,2013-04-11 12:04:00,
2013-04-11 07:05:00,46.4,15.9,25.34,SSW,202,6.5,6.5,29,0.00,,---,0.00,VWS V14.01,2013-04-11 12:05:00,
2013-04-11 07:06:00,46.4,15.9,25.34,SSW,202,6.5,6.5,29,0.00,,---,0.00,VWS V14.01,2013-04-11 12:06:00,
2013-04-11 07:07:00,46.4,15.9,25.34,SSW,202,5.4,6.5,29,0.00,,---,0.00,VWS V14.01,2013-04-11 12:07:00,
2013-04-11 07:08:00,46.6,16.0,25.34,SSW,202,6.5,6.9,29,0.00,,---,0.00,VWS V14.01,2013-04-11 12:08:00,
2013-04-11 07:09:00,46.6,16.0,25.34,SSW,202,6.5,7.6,29,0.00,,---,0.00,VWS V14.01,2013-04-11 12:09:00,
2013-04-11 07:10:00,46.8,16.2,25.34,SSW,202,7.8,7.8,29,0.00,,---,0.00,VWS V14.01,2013-04-11 12:10:00,
2013-04-11 07:11:00,46.9,16.4,25.34,SSW,202,8.7,8.7,29,0.00,,---,0.00,VWS V14.01,2013-04-11 12:11:00,
2013-04-11 07:12:00,46.9,16.4,25.34,SSW,202,8.7,8.7,29,0.00,,---,0.00,VWS V14.01,2013-04-11 12:12:00,
2013-04-11 07:13:00,47.3,16.7,25.34,SSW,202,6.3,6.3,29,0.00,,---,0.00,VWS V14.01,2013-04-11 12:13:00,
2013-04-11 07:14:00,47.5,16.8,25.34,SW,225,8.7,10.1,29,0.00,,---,0.00,VWS V14.01,2013-04-11 12:14:00,
2013-04-11 07:15:00,47.7,17.0,25.34,SW,225,8.7,8.7,29,0.00,,---,0.00,VWS V14.01,2013-04-11 12:15:00,
2013-04-11 07:16:00,47.8,17.1,25.34,SW,225,8.5,8.7,29,0.00,,---,0.00,VWS V14.01,2013-04-11 12:16:00,
2013-04-11 07:17:00,47.8,17.1,25.34,SSW,202,9.0,9.0,29,0.00,,---,0.00,VWS V14.01,2013-04-11 12:17:00,
2013-04-11 07:18:00,48.0,17.3,25.34,SSW,202,8.1,9.0,29,0.00,,---,0.00,VWS V14.01,2013-04-11 12:18:00,
2013-04-11 07:19:00,48.2,16.6,25.34,SSW,202,7.4,8.1,28,0.00,,---,0.00,VWS V14.01,2013-04-11 12:19:00,
2013-04-11 07:20:00,48.4,16.8,25.34,SSW,202,6.7,6.7,28,0.00,,---,0.00,VWS V14.01,2013-04-11 12:20:00,
2013-04-11 07:21:00,48.4,16.8,25.34,SW,225,9.6,9.6,28,0.00,,---,0.00,VWS V14.01,2013-04-11 12:21:00,
2013-04-11 07:22:00,48.4,16.8,25.34,SW,225,9.6,9.6,28,0.00,,---,0.00,VWS V14.01,2013-04-11 12:22:00,
2013-04-11 07:23:00,48.7,17.1,25.34,SW,225,10.1,10.1,28,0.00,,---,0.00,VWS V14.01,2013-04-11 12:23:00,
2013-04-11 07:24:00,48.7,17.1,25.34,SW,225,8.5,10.1,28,0.00,,---,0.00,VWS V14.01,2013-04-11 12:24:00,
2013-04-11 07:25:00,48.9,17.3,25.34,SW,225,10.3,10.3,28,0.00,,---,0.00,VWS V14.01,2013-04-11 12:25:00,
2013-04-11 07:26:00,49.1,17.4,25.34,SW,225,7.6,10.3,28,0.00,,---,0.00,VWS V14.01,2013-04-11 12:26:00,
2013-04-11 07:27:00,49.1,17.4,25.34,SW,225,8.7,8.7,28,0.00,,---,0.00,VWS V14.01,2013-04-11 12:27:00,
2013-04-11 07:28:00,49.1,17.4,25.34,SW,225,10.5,10.5,28,0.00,,---,0.00,VWS V14.01,2013-04-11 12:28:00,
2013-04-11 07:29:00,49.5,17.7,25.34,SW,225,10.3,10.5,28,0.00,,---,0.00,VWS V14.01,2013-04-11 12:29:00,
2013-04-11 07:30:00,49.6,17.9,25.34,SW,225,8.7,10.3,28,0.00,,---,0.00,VWS V14.01,2013-04-11 12:30:00,
2013-04-11 07:31:00,49.6,17.9,25.34,SW,225,7.8,10.5,28,0.00,,---,0.00,VWS V14.01,2013-04-11 12:31:00,
2013-04-11 07:32:00,49.6,17.9,25.34,SW,225,7.8,10.3,28,0.00,,---,0.00,VWS V14.01,2013-04-11 12:32:00,
2013-04-11 07:33:00,49.8,18.0,25.34,SW,225,7.8,8.1,28,0.00,,---,0.00,VWS V14.01,2013-04-11 12:33:00,
2013-04-11 07:34:00,49.8,18.0,25.34,SW,225,7.4,7.8,28,0.00,,---,0.00,VWS V14.01,2013-04-11 12:34:00,
2013-04-11 07:35:00,50.0,17.4,25.34,SW,225,7.4,7.4,27,0.00,,---,0.00,VWS V14.01,2013-04-11 12:35:00,
2013-04-11 07:36:00,50.0,17.4,25.34,SW,225,7.4,7.4,27,0.00,,---,0.00,VWS V14.01,2013-04-11 12:36:00,
2013-04-11 07:37:00,50.2,17.5,25.34,SW,225,7.4,7.4,27,0.00,,---,0.00,VWS V14.01,2013-04-11 12:37:00,
2013-04-11 07:38:00,50.2,17.5,25.34,SW,225,7.4,7.4,27,0.00,,---,0.00,VWS V14.01,2013-04-11 12:38:00,
2013-04-11 07:39:00,50.2,17.5,25.34,SW,225,7.4,8.5,27,0.00,,---,0.00,VWS V14.01,2013-04-11 12:39:00,
2013-04-11 07:40:00,50.4,17.7,25.34,WSW,248,9.8,11.4,27,0.00,,---,0.00,VWS V14.01,2013-04-11 12:40:00,
2013-04-11 07:41:00,50.5,17.8,25.34,SW,225,7.2,9.8,27,0.00,,---,0.00,VWS V14.01,2013-04-11 12:41:00,
2013-04-11 07:42:00,50.5,17.8,25.34,SW,225,7.2,9.8,27,0.00,,---,0.00,VWS V14.01,2013-04-11 12:42:00,
2013-04-11 07:43:00,50.5,17.8,25.34,SW,225,9.6,9.6,27,0.00,,---,0.00,VWS V14.01,2013-04-11 12:43:00,
2013-04-11 07:44:00,50.7,18.0,25.34,SW,225,6.0,9.6,27,0.00,,---,0.00,VWS V14.01,2013-04-11 12:44:00,
2013-04-11 07:45:00,50.9,18.1,25.34,West,270,7.6,7.6,27,0.00,,---,0.00,VWS V14.01,2013-04-11 12:45:00,
2013-04-11 07:46:00,50.9,18.1,25.34,SW,225,6.0,8.5,27,0.00,,---,0.00,VWS V14.01,2013-04-11 12:46:00,
2013-04-11 07:47:00,50.9,18.1,25.34,SW,225,8.5,8.5,27,0.00,,---,0.00,VWS V14.01,2013-04-11 12:47:00,
2013-04-11 07:48:00,51.1,18.3,25.34,WSW,248,13.0,13.0,27,0.00,,---,0.00,VWS V14.01,2013-04-11 12:48:00,
2013-04-11 07:49:00,51.1,18.3,25.34,SW,225,15.7,16.1,27,0.00,,---,0.00,VWS V14.01,2013-04-11 12:49:00,
2013-04-11 07:50:00,51.3,18.4,25.34,WSW,248,12.1,15.7,27,0.00,,---,0.00,VWS V14.01,2013-04-11 12:50:00,
2013-04-11 07:51:00,51.3,18.4,25.34,WSW,248,14.3,14.8,27,0.00,,---,0.00,VWS V14.01,2013-04-11 12:51:00,
2013-04-11 07:52:00,51.4,18.6,25.34,WSW,248,13.0,15.2,27,0.00,,---,0.00,VWS V14.01,2013-04-11 12:52:00,
2013-04-11 07:53:00,51.6,18.8,25.34,West,270,8.5,13.0,27,0.00,,---,0.00,VWS V14.01,2013-04-11 12:53:00,
2013-04-11 07:54:00,51.4,18.6,25.34,WSW,248,14.8,16.8,27,0.00,,---,0.00,VWS V14.01,2013-04-11 12:54:00,
2013-04-11 07:55:00,51.6,18.8,25.34,SW,225,16.6,16.6,27,0.00,,---,0.00,VWS V14.01,2013-04-11 12:55:00,
2013-04-11 07:56:00,51.8,18.9,25.34,WSW,248,14.1,16.6,27,0.00,,---,0.00,VWS V14.01,2013-04-11 12:56:00,
2013-04-11 07:57:00,51.6,18.8,25.34,WSW,248,10.7,14.1,27,0.00,,---,0.00,VWS V14.01,2013-04-11 12:57:00,
2013-04-11 07:58:00,51.8,18.9,25.34,WSW,248,16.1,17.5,27,0.00,,---,0.00,VWS V14.01,2013-04-11 12:58:00,
2013-04-11 07:59:00,51.8,18.9,25.34,SW,225,12.8,16.1,27,0.00,,---,0.00,VWS V14.01,2013-04-11 12:59:00,
2013-04-11 08:00:00,52.0,19.1,25.34,WSW,248,13.2,13.2,27,0.00,,---,0.00,VWS V14.01,2013-04-11 13:00:00,
2013-04-11 08:01:00,52.0,19.1,25.34,WSW,248,14.5,14.5,27,0.00,,---,0.00,VWS V14.01,2013-04-11 13:01:00,
2013-04-11 08:02:00,52.0,18.2,25.34,WSW,248,12.8,14.5,26,0.00,,---,0.00,VWS V14.01,2013-04-11 13:02:00,
2013-04-11 08:03:00,52.2,18.3,25.34,SW,225,10.5,17.2,26,0.00,,---,0.00,VWS V14.01,2013-04-11 13:03:00,
2013-04-11 08:04:00,52.3,18.5,25.34,WSW,248,10.7,10.7,26,0.00,,---,0.00,VWS V14.01,2013-04-11 13:04:00,
2013-04-11 08:05:00,52.3,18.5,25.34,SW,225,12.3,14.1,26,0.00,,---,0.00,VWS V14.01,2013-04-11 13:05:00,
2013-04-11 08:06:00,52.5,18.6,25.34,WSW,248,10.7,12.5,26,0.00,,---,0.00,VWS V14.01,2013-04-11 13:06:00,
2013-04-11 08:07:00,52.5,18.6,25.34,SW,225,14.5,15.4,26,0.00,,---,0.00,VWS V14.01,2013-04-11 13:07:00,
2013-04-11 08:08:00,52.5,18.6,25.34,WSW,248,15.4,19.7,26,0.00,,---,0.00,VWS V14.01,2013-04-11 13:08:00,
2013-04-11 08:09:00,52.3,18.5,25.34,WSW,248,18.1,18.1,26,0.00,,---,0.00,VWS V14.01,2013-04-11 13:09:00,
2013-04-11 08:10:00,52.5,18.6,25.34,WSW,248,12.1,18.1,26,0.00,,---,0.00,VWS V14.01,2013-04-11 13:10:00,
2013-04-11 08:12:00,52.5,18.6,25.34,WSW,248,10.5,12.5,26,0.00,,---,0.00,VWS V14.01,2013-04-11 13:12:00,
2013-04-11 08:13:00,52.5,18.6,25.34,WSW,248,15.2,17.2,26,0.00,,---,0.00,VWS V14.01,2013-04-11 13:13:00,
2013-04-11 08:14:00,53.1,19.1,25.34,WSW,248,9.6,15.2,26,0.00,,---,0.00,VWS V14.01,2013-04-11 13:14:00,
2013-04-11 08:15:00,53.1,19.1,25.34,WSW,248,16.8,16.8,26,0.00,,---,0.00,VWS V14.01,2013-04-11 13:15:00,
2013-04-11 08:16:00,53.1,19.1,25.34,WSW,248,17.0,17.0,26,0.00,,---,0.00,VWS V14.01,2013-04-11 13:16:00,
2013-04-11 08:17:00,53.1,19.1,25.34,WSW,248,16.6,17.2,26,0.00,,---,0.00,VWS V14.01,2013-04-11 13:17:00,
2013-04-11 08:18:00,52.9,19.0,25.34,WSW,248,10.5,16.6,26,0.00,,---,0.00,VWS V14.01,2013-04-11 13:18:00,
2013-04-11 08:19:00,53.2,19.3,25.34,WSW,248,17.5,17.5,26,0.00,,---,0.00,VWS V14.01,2013-04-11 13:19:00,
2013-04-11 08:20:00,53.2,19.3,25.34,WSW,248,15.2,17.7,26,0.00,,---,0.00,VWS V14.01,2013-04-11 13:20:00,
2013-04-11 08:21:00,53.1,19.1,25.34,WSW,248,15.2,17.0,26,0.00,,---,0.00,VWS V14.01,2013-04-11 13:21:00,
2013-04-11 08:22:00,53.1,19.1,25.34,WSW,248,13.0,15.7,26,0.00,,---,0.00,VWS V14.01,2013-04-11 13:22:00,
2013-04-11 08:23:00,53.4,19.4,25.34,SW,225,15.2,15.2,26,0.00,,---,0.00,VWS V14.01,2013-04-11 13:23:00,
2013-04-11 08:24:00,53.2,19.3,25.34,SW,225,14.1,15.4,26,0.00,,---,0.00,VWS V14.01,2013-04-11 13:24:00,
2013-04-11 08:25:00,53.2,19.3,25.34,SW,225,13.9,14.8,26,0.00,,---,0.00,VWS V14.01,2013-04-11 13:25:00,
2013-04-11 08:26:00,53.4,19.4,25.34,WSW,248,10.5,14.8,26,0.00,,---,0.00,VWS V14.01,2013-04-11 13:26:00,
2013-04-11 08:27:00,53.6,19.6,25.34,WSW,248,15.2,15.2,26,0.00,,---,0.00,VWS V14.01,2013-04-11 13:27:00,
2013-04-11 08:28:00,53.8,19.7,25.34,WSW,248,13.2,17.5,26,0.00,,---,0.00,VWS V14.01,2013-04-11 13:28:00,
2013-04-11 08:29:00,53.8,19.7,25.34,West,270,12.8,13.2,26,0.00,,---,0.00,VWS V14.01,2013-04-11 13:29:00,
2013-04-11 08:30:00,54.0,19.9,25.34,SW,225,12.8,15.4,26,0.00,,---,0.00,VWS V14.01,2013-04-11 13:30:00,
2013-04-11 08:31:00,54.1,20.0,25.34,SW,225,12.1,14.8,26,0.00,,---,0.00,VWS V14.01,2013-04-11 13:31:00,
2013-04-11 08:32:00,54.0,19.9,25.34,WSW,248,13.0,13.0,26,0.00,,---,0.00,VWS V14.01,2013-04-11 13:32:00,
2013-04-11 08:33:00,54.0,19.9,25.34,WSW,248,12.3,16.6,26,0.00,,---,0.00,VWS V14.01,2013-04-11 13:33:00,
2013-04-11 08:34:00,54.1,20.0,25.34,WSW,248,13.2,13.2,26,0.00,,---,0.00,VWS V14.01,2013-04-11 13:34:00,
2013-04-11 08:35:00,54.3,20.2,25.34,SW,225,14.1,14.1,26,0.00,,---,0.00,VWS V14.01,2013-04-11 13:35:00,
2013-04-11 08:36:00,54.3,20.2,25.34,WSW,248,13.4,14.8,26,0.00,,---,0.00,VWS V14.01,2013-04-11 13:36:00,
2013-04-11 08:38:00,54.7,20.5,25.34,WSW,248,16.1,16.1,26,0.00,,---,0.00,VWS V14.01,2013-04-11 13:38:00,
2013-04-11 08:39:00,54.7,20.5,25.34,WSW,248,19.0,19.0,26,0.00,,---,0.00,VWS V14.01,2013-04-11 13:39:00,
2013-04-11 08:40:00,54.3,20.2,25.34,WSW,248,13.2,19.0,26,0.00,,---,0.00,VWS V14.01,2013-04-11 13:40:00,
2013-04-11 08:41:00,54.3,20.2,25.34,WSW,248,13.2,13.2,26,0.00,,---,0.00,VWS V14.01,2013-04-11 13:41:00,
2013-04-11 08:42:00,54.7,20.5,25.34,SW,225,12.5,13.2,26,0.00,,---,0.00,VWS V14.01,2013-04-11 13:42:00,
2013-04-11 08:43:00,54.9,20.6,25.34,WSW,248,10.1,12.5,26,0.00,,---,0.00,VWS V14.01,2013-04-11 13:43:00,
2013-04-11 08:44:00,54.9,20.6,25.34,WSW,248,17.0,17.0,26,0.00,,---,0.00,VWS V14.01,2013-04-11 13:44:00,
2013-04-11 08:45:00,54.7,20.5,25.34,SW,225,17.7,17.7,26,0.00,,---,0.00,VWS V14.01,2013-04-11 13:45:00,
2013-04-11 08:46:00,54.7,20.5,25.34,SW,225,17.7,17.7,26,0.00,,---,0.00,VWS V14.01,2013-04-11 13:46:00,
2013-04-11 08:47:00,54.7,20.5,25.34,WSW,248,17.2,17.7,26,0.00,,---,0.00,VWS V14.01,2013-04-11 13:47:00,
2013-04-11 08:48:00,54.7,20.5,25.34,SW,225,14.8,17.7,26,0.00,,---,0.00,VWS V14.01,2013-04-11 13:48:00,
2013-04-11 08:49:00,54.9,20.6,25.34,SW,225,13.9,14.8,26,0.00,,---,0.00,VWS V14.01,2013-04-11 13:49:00,
2013-04-11 08:50:00,54.9,20.6,25.34,WSW,248,13.0,15.4,26,0.00,,---,0.00,VWS V14.01,2013-04-11 13:50:00,
2013-04-11 08:51:00,54.9,20.6,25.34,WSW,248,12.8,14.5,26,0.00,,---,0.00,VWS V14.01,2013-04-11 13:51:00,
2013-04-11 08:52:00,55.0,20.8,25.34,WSW,248,13.0,13.0,26,0.00,,---,0.00,VWS V14.01,2013-04-11 13:52:00,
2013-04-11 08:54:00,55.0,20.8,25.34,SW,225,12.3,13.0,26,0.00,,---,0.00,VWS V14.01,2013-04-11 13:54:00,
2013-04-11 08:55:00,55.9,20.6,25.34,WSW,248,15.4,15.4,25,0.00,,---,0.00,VWS V14.01,2013-04-11 13:55:00,
2013-04-11 08:56:00,55.8,20.5,25.34,SW,225,12.3,16.8,25,0.00,,---,0.00,VWS V14.01,2013-04-11 13:56:00,
2013-04-11 08:57:00,55.8,20.5,25.34,WSW,248,10.5,12.3,25,0.00,,---,0.00,VWS V14.01,2013-04-11 13:57:00,
2013-04-11 08:58:00,55.8,20.5,25.34,SSW,202,12.8,12.8,25,0.00,,---,0.00,VWS V14.01,2013-04-11 13:58:00,
2013-04-11 08:59:00,55.6,20.3,25.34,WSW,248,14.5,14.5,25,0.00,,---,0.00,VWS V14.01,2013-04-11 13:59:00,
2013-04-11 09:00:00,55.6,20.3,25.34,WSW,248,15.2,15.2,25,0.00,,---,0.00,VWS V14.01,2013-04-11 14:00:00,
2013-04-11 09:01:00,55.9,20.6,25.34,WSW,248,13.2,15.7,25,0.00,,---,0.00,VWS V14.01,2013-04-11 14:01:00,
2013-04-11 09:02:00,55.9,20.6,25.34,WSW,248,16.1,16.1,25,0.00,,---,0.00,VWS V14.01,2013-04-11 14:02:00,
2013-04-11 09:03:00,55.9,20.6,25.34,West,270,17.7,17.7,25,0.00,,---,0.00,VWS V14.01,2013-04-11 14:03:00,
2013-04-11 09:04:00,55.6,20.3,25.34,WSW,248,11.0,12.5,25,0.00,,---,0.00,VWS V14.01,2013-04-11 14:04:00,
2013-04-11 09:05:00,55.9,20.6,25.34,WSW,248,12.1,12.1,25,0.00,,---,0.00,VWS V14.01,2013-04-11 14:05:00,
2013-04-11 09:06:00,55.9,20.6,25.34,WSW,248,16.3,17.0,25,0.00,,---,0.00,VWS V14.01,2013-04-11 14:06:00,
2013-04-11 09:07:00,55.9,20.6,25.34,WSW,248,13.2,16.3,25,0.00,,---,0.00,VWS V14.01,2013-04-11 14:07:00,
2013-04-11 09:08:00,55.9,20.6,25.34,WSW,248,14.5,15.4,25,0.00,,---,0.00,VWS V14.01,2013-04-11 14:08:00,
2013-04-11 09:09:00,55.9,20.6,25.34,WSW,248,13.2,14.5,25,0.00,,---,0.00,VWS V14.01,2013-04-11 14:09:00,
2013-04-11 09:10:00,55.9,20.6,25.34,West,270,15.2,15.2,25,0.00,,---,0.00,VWS V14.01,2013-04-11 14:10:00,
2013-04-11 09:11:00,55.6,20.3,25.34,WSW,248,17.2,19.7,25,0.00,,---,0.00,VWS V14.01,2013-04-11 14:11:00,
2013-04-11 09:12:00,55.9,20.6,25.34,West,270,20.8,20.8,25,0.00,,---,0.00,VWS V14.01,2013-04-11 14:12:00,
2013-04-11 09:14:00,56.1,20.8,25.34,WSW,248,14.5,20.8,25,0.00,,---,0.00,VWS V14.01,2013-04-11 14:14:00,
2013-04-11 09:15:00,56.1,20.8,25.34,SW,225,9.8,14.5,25,0.00,,---,0.00,VWS V14.01,2013-04-11 14:15:00,
2013-04-11 09:16:00,55.9,20.6,25.34,West,270,17.5,17.5,25,0.00,,---,0.00,VWS V14.01,2013-04-11 14:16:00,
2013-04-11 09:17:00,55.9,20.6,25.34,WSW,248,17.5,17.5,25,0.00,,---,0.00,VWS V14.01,2013-04-11 14:17:00,
2013-04-11 09:18:00,56.5,21.1,25.34,WSW,248,8.5,17.5,25,0.00,,---,0.00,VWS V14.01,2013-04-11 14:18:00,
2013-04-11 09:19:00,56.5,21.1,25.34,SW,225,14.1,14.1,25,0.00,,---,0.00,VWS V14.01,2013-04-11 14:19:00,
2013-04-11 09:20:00,56.7,21.3,25.34,WSW,248,7.8,14.1,25,0.00,,---,0.00,VWS V14.01,2013-04-11 14:20:00,
2013-04-11 09:21:00,56.7,21.3,25.34,West,270,8.7,10.7,25,0.00,,---,0.00,VWS V14.01,2013-04-11 14:21:00,
2013-04-11 09:22:00,56.8,21.4,25.34,West,270,10.1,15.2,25,0.00,,---,0.00,VWS V14.01,2013-04-11 14:22:00,
2013-04-11 09:23:00,57.4,20.9,25.34,WSW,248,9.8,10.3,24,0.00,,---,0.00,VWS V14.01,2013-04-11 14:23:00,
2013-04-11 09:24:00,57.6,21.1,25.31,WSW,248,10.3,10.7,24,0.00,,---,0.00,VWS V14.01,2013-04-11 14:24:00,
2013-04-11 09:25:00,57.2,20.8,25.31,West,270,8.1,13.0,24,0.00,,---,0.00,VWS V14.01,2013-04-11 14:25:00,
2013-04-11 09:26:00,57.2,20.8,25.31,West,270,13.2,13.2,24,0.00,,---,0.00,VWS V14.01,2013-04-11 14:26:00,
2013-04-11 09:27:00,57.4,20.9,25.31,WSW,248,16.6,20.4,24,0.00,,---,0.00,VWS V14.01,2013-04-11 14:27:00,
2013-04-11 09:28:00,57.4,20.9,25.31,WSW,248,17.7,17.7,24,0.00,,---,0.00,VWS V14.01,2013-04-11 14:28:00,
2013-04-11 09:29:00,57.4,20.9,25.31,WSW,248,15.4,17.7,24,0.00,,---,0.00,VWS V14.01,2013-04-11 14:29:00,
2013-04-11 09:30:00,57.4,20.9,25.31,SW,225,15.2,15.9,24,0.00,,---,0.00,VWS V14.01,2013-04-11 14:30:00,
2013-04-11 09:31:00,57.6,21.1,25.31,SW,225,18.1,18.1,24,0.00,,---,0.00,VWS V14.01,2013-04-11 14:31:00,
2013-04-11 09:32:00,57.6,21.1,25.31,West,270,19.9,19.9,24,0.00,,---,0.00,VWS V14.01,2013-04-11 14:32:00,
2013-04-11 09:33:00,57.2,20.8,25.31,WSW,248,14.1,19.9,24,0.00,,---,0.00,VWS V14.01,2013-04-11 14:33:00,
2013-04-11 09:34:00,56.7,21.3,25.31,WSW,248,17.5,17.9,25,0.00,,---,0.00,VWS V14.01,2013-04-11 14:34:00,
2013-04-11 09:35:00,57.2,20.8,25.31,WSW,248,10.5,14.8,24,0.00,,---,0.00,VWS V14.01,2013-04-11 14:35:00,
2013-04-11 09:36:00,57.2,20.8,25.31,WSW,248,15.4,15.4,24,0.00,,---,0.00,VWS V14.01,2013-04-11 14:36:00,
2013-04-11 09:37:00,57.2,20.8,25.31,WSW,248,19.2,19.2,24,0.00,,---,0.00,VWS V14.01,2013-04-11 14:37:00,
2013-04-11 09:39:00,57.7,21.2,25.31,SW,225,13.2,19.2,24,0.00,,---,0.00,VWS V14.01,2013-04-11 14:39:00,
2013-04-11 09:40:00,57.7,21.2,25.31,WSW,248,24.4,24.4,24,0.00,,---,0.00,VWS V14.01,2013-04-11 14:40:00,
2013-04-11 09:41:00,56.8,21.4,25.31,WSW,248,17.2,24.4,25,0.00,,---,0.00,VWS V14.01,2013-04-11 14:41:00,
2013-04-11 09:42:00,57.2,20.8,25.31,West,270,18.6,20.8,24,0.00,,---,0.00,VWS V14.01,2013-04-11 14:42:00,
2013-04-11 09:43:00,57.7,21.2,25.31,SW,225,15.7,17.7,24,0.00,,---,0.00,VWS V14.01,2013-04-11 14:43:00,
2013-04-11 09:44:00,57.9,21.4,25.31,SW,225,13.0,17.7,24,0.00,,---,0.00,VWS V14.01,2013-04-11 14:44:00,
2013-04-11 09:45:00,58.3,21.7,25.31,WSW,248,17.5,19.5,24,0.00,,---,0.00,VWS V14.01,2013-04-11 14:45:00,
2013-04-11 09:46:00,58.3,21.7,25.31,West,270,15.4,17.7,24,0.00,,---,0.00,VWS V14.01,2013-04-11 14:46:00,
2013-04-11 09:47:00,58.1,21.5,25.31,WSW,248,16.6,18.6,24,0.00,,---,0.00,VWS V14.01,2013-04-11 14:47:00,
2013-04-11 09:48:00,57.9,19.3,25.31,WSW,248,13.4,17.7,22,0.00,,---,0.00,VWS V14.01,2013-04-11 14:48:00,
2013-04-11 09:49:00,58.5,21.8,25.31,West,270,17.9,17.9,24,0.00,,---,0.00,VWS V14.01,2013-04-11 14:49:00,
2013-04-11 09:50:00,58.5,21.8,25.31,West,270,17.7,17.9,24,0.00,,---,0.00,VWS V14.01,2013-04-11 14:50:00,
2013-04-11 09:51:00,58.6,22.0,25.31,West,270,15.4,23.3,24,0.00,,---,0.00,VWS V14.01,2013-04-11 14:51:00,
2013-04-11 09:52:00,58.8,22.1,25.31,West,270,13.0,19.2,24,0.00,,---,0.00,VWS V14.01,2013-04-11 14:52:00,
2013-04-11 09:53:00,58.3,19.6,25.31,WSW,248,14.8,22.2,22,0.00,,---,0.00,VWS V14.01,2013-04-11 14:53:00,
2013-04-11 09:54:00,59.0,20.2,25.31,WSW,248,14.1,14.8,22,0.00,,---,0.00,VWS V14.01,2013-04-11 14:54:00,
2013-04-11 09:55:00,58.8,20.1,25.31,WSW,248,23.7,23.7,22,0.00,,---,0.00,VWS V14.01,2013-04-11 14:55:00,
2013-04-11 09:56:00,58.8,20.1,25.31,WSW,248,15.4,24.2,22,0.00,,---,0.00,VWS V14.01,2013-04-11 14:56:00,
2013-04-11 09:57:00,58.8,20.1,25.31,West,270,13.0,15.4,22,0.00,,---,0.00,VWS V14.01,2013-04-11 14:57:00,
2013-04-11 09:58:00,58.8,20.1,25.31,SW,225,17.5,17.5,22,0.00,,---,0.00,VWS V14.01,2013-04-11 14:58:00,
2013-04-11 09:59:00,58.8,20.1,25.31,West,270,16.6,17.5,22,0.00,,---,0.00,VWS V14.01,2013-04-11 14:59:00,
2013-04-11 10:00:00,58.8,20.1,25.31,WSW,248,17.2,17.5,22,0.00,,---,0.00,VWS V14.01,2013-04-11 15:00:00,
2013-04-11 10:01:00,59.4,20.5,25.31,SW,225,13.0,13.0,22,0.00,,---,0.00,VWS V14.01,2013-04-11 15:01:00,
2013-04-11 10:02:00,59.2,20.4,25.31,SW,225,13.2,17.5,22,0.00,,---,0.00,VWS V14.01,2013-04-11 15:02:00,
2013-04-11 10:03:00,59.7,20.8,25.31,WSW,248,17.9,17.9,22,0.00,,---,0.00,VWS V14.01,2013-04-11 15:03:00,
2013-04-11 10:04:00,59.4,20.5,25.31,West,270,14.8,25.7,22,0.00,,---,0.00,VWS V14.01,2013-04-11 15:04:00,
2013-04-11 10:05:00,59.0,20.2,25.31,SW,225,20.1,23.9,22,0.00,,---,0.00,VWS V14.01,2013-04-11 15:05:00,
2013-04-11 10:06:00,59.2,20.4,25.31,WSW,248,17.9,25.5,22,0.00,,---,0.00,VWS V14.01,2013-04-11 15:06:00,
2013-04-11 10:07:00,59.0,20.2,25.31,WSW,248,11.9,19.5,22,0.00,,---,0.00,VWS V14.01,2013-04-11 15:07:00,
2013-04-11 10:08:00,59.4,20.5,25.31,WSW,248,24.6,24.6,22,0.00,,---,0.00,VWS V14.01,2013-04-11 15:08:00,
2013-04-11 10:09:00,58.1,19.5,25.31,West,270,20.1,27.3,22,0.00,,---,0.00,VWS V14.01,2013-04-11 15:09:00,
2013-04-11 10:10:00,59.2,20.4,25.31,WSW,248,17.9,25.7,22,0.00,,---,0.00,VWS V14.01,2013-04-11 15:10:00,
2013-04-11 10:11:00,59.0,20.2,25.31,WSW,248,19.2,26.2,22,0.00,,---,0.00,VWS V14.01,2013-04-11 15:11:00,
2013-04-11 10:12:00,59.2,20.4,25.31,WSW,248,19.2,19.2,22,0.00,,---,0.00,VWS V14.01,2013-04-11 15:12:00,
2013-04-11 10:13:00,59.2,20.4,25.31,SW,225,13.9,19.2,22,0.00,,---,0.00,VWS V14.01,2013-04-11 15:13:00,
2013-04-11 10:14:00,59.7,20.8,25.31,WSW,248,16.6,16.6,22,0.00,,---,0.00,VWS V14.01,2013-04-11 15:14:00,
2013-04-11 10:15:00,59.7,20.8,25.31,WSW,248,16.6,16.6,22,0.00,,---,0.00,VWS V14.01,2013-04-11 15:15:00,
2013-04-11 10:17:00,59.7,20.8,25.31,WSW,248,19.9,22.6,22,0.00,,---,0.00,VWS V14.01,2013-04-11 15:17:00,
2013-04-11 10:18:00,60.4,21.4,25.31,WSW,248,16.3,19.9,22,0.00,,---,0.00,VWS V14.01,2013-04-11 15:18:00,
2013-04-11 10:19:00,60.4,21.4,25.31,SW,225,12.5,12.5,22,0.00,,---,0.00,VWS V14.01,2013-04-11 15:19:00,
2013-04-11 10:20:00,60.4,21.4,25.31,WSW,248,22.4,22.4,22,0.00,,---,0.00,VWS V14.01,2013-04-11 15:20:00,
2013-04-11 10:21:00,60.4,21.4,25.31,West,270,25.5,25.5,22,0.00,,---,0.00,VWS V14.01,2013-04-11 15:21:00,
2013-04-11 10:22:00,60.4,21.4,25.31,WSW,248,13.2,25.5,22,0.00,,---,0.00,VWS V14.01,2013-04-11 15:22:00,
2013-04-11 10:23:00,60.3,21.3,25.31,WSW,248,10.5,13.2,22,0.00,,---,0.00,VWS V14.01,2013-04-11 15:23:00,
2013-04-11 10:24:00,60.4,21.4,25.31,WSW,248,18.6,18.6,22,0.00,,---,0.00,VWS V14.01,2013-04-11 15:24:00,
2013-04-11 10:25:00,59.9,21.0,25.31,WSW,248,25.1,25.7,22,0.00,,---,0.00,VWS V14.01,2013-04-11 15:25:00,
2013-04-11 10:26:00,59.4,20.5,25.31,West,270,24.4,25.1,22,0.00,,---,0.00,VWS V14.01,2013-04-11 15:26:00,
2013-04-11 10:27:00,59.7,20.8,25.31,SW,225,15.2,28.9,22,0.00,,---,0.00,VWS V14.01,2013-04-11 15:27:00,
2013-04-11 10:28:00,59.7,20.8,25.31,SW,225,15.4,15.4,22,0.00,,---,0.00,VWS V14.01,2013-04-11 15:28:00,
2013-04-11 10:30:00,59.7,20.8,25.31,SW,225,12.8,15.4,22,0.00,,---,0.00,VWS V14.01,2013-04-11 15:30:00,
2013-04-11 10:31:00,59.9,21.0,25.31,SW,225,19.5,25.5,22,0.00,,---,0.00,VWS V14.01,2013-04-11 15:31:00,
2013-04-11 10:32:00,60.4,21.4,25.31,SW,225,13.9,19.7,22,0.00,,---,0.00,VWS V14.01,2013-04-11 15:32:00,
2013-04-11 10:33:00,60.6,21.6,25.31,SW,225,22.2,22.2,22,0.00,,---,0.00,VWS V14.01,2013-04-11 15:33:00,
2013-04-11 10:34:00,60.4,21.4,25.31,SW,225,26.0,26.0,22,0.00,,---,0.00,VWS V14.01,2013-04-11 15:34:00,
2013-04-11 10:35:00,60.6,21.6,25.31,SW,225,11.0,19.9,22,0.00,,---,0.00,VWS V14.01,2013-04-11 15:35:00,
2013-04-11 10:36:00,60.6,21.6,25.31,WSW,248,12.8,19.9,22,0.00,,---,0.00,VWS V14.01,2013-04-11 15:36:00,
2013-04-11 10:37:00,60.6,21.6,25.31,WSW,248,17.2,17.2,22,0.00,,---,0.00,VWS V14.01,2013-04-11 15:37:00,
2013-04-11 10:38:00,61.0,20.8,25.31,WSW,248,15.7,17.2,21,0.00,,---,0.00,VWS V14.01,2013-04-11 15:38:00,
2013-04-11 10:39:00,60.6,21.6,25.31,West,270,14.5,23.7,22,0.00,,---,0.00,VWS V14.01,2013-04-11 15:39:00,
2013-04-11 10:40:00,61.2,20.9,25.31,WSW,248,15.2,17.0,21,0.00,,---,0.00,VWS V14.01,2013-04-11 15:40:00,
2013-04-11 10:41:00,61.3,21.1,25.31,SW,225,16.3,16.3,21,0.00,,---,0.00,VWS V14.01,2013-04-11 15:41:00,
2013-04-11 10:42:00,61.5,21.2,25.31,WSW,248,15.4,17.0,21,0.00,,---,0.00,VWS V14.01,2013-04-11 15:42:00,
2013-04-11 10:43:00,61.2,20.9,25.31,SW,225,21.9,21.9,21,0.00,,---,0.00,VWS V14.01,2013-04-11 15:43:00,
2013-04-11 10:44:00,61.2,20.9,25.31,WSW,248,22.4,24.2,21,0.00,,---,0.00,VWS V14.01,2013-04-11 15:44:00,
2013-04-11 10:45:00,60.8,20.6,25.31,WSW,248,19.2,27.5,21,0.00,,---,0.00,VWS V14.01,2013-04-11 15:45:00,
2013-04-11 10:46:00,61.0,20.8,25.31,WSW,248,23.3,27.5,21,0.00,,---,0.00,VWS V14.01,2013-04-11 15:46:00,
2013-04-11 10:47:00,61.0,20.8,25.31,SW,225,25.1,30.0,21,0.00,,---,0.00,VWS V14.01,2013-04-11 15:47:00,
2013-04-11 10:48:00,60.8,20.6,25.31,WSW,248,23.7,25.1,21,0.00,,---,0.00,VWS V14.01,2013-04-11 15:48:00,
2013-04-11 10:49:00,60.6,21.6,25.31,WSW,248,20.1,23.7,22,0.00,,---,0.00,VWS V14.01,2013-04-11 15:49:00,
2013-04-11 10:50:00,60.4,21.4,25.31,SW,225,19.2,22.6,22,0.00,,---,0.00,VWS V14.01,2013-04-11 15:50:00,
2013-04-11 10:51:00,60.8,20.6,25.31,WSW,248,20.6,20.6,21,0.00,,---,0.00,VWS V14.01,2013-04-11 15:51:00,
2013-04-11 10:52:00,61.2,20.9,25.31,WSW,248,17.2,22.4,21,0.00,,---,0.00,VWS V14.01,2013-04-11 15:52:00,
2013-04-11 10:53:00,61.9,21.5,25.31,WSW,248,19.0,19.0,21,0.00,,---,0.00,VWS V14.01,2013-04-11 15:53:00,
2013-04-11 10:54:00,61.5,21.2,25.28,SW,225,17.5,22.2,21,0.00,,---,0.00,VWS V14.01,2013-04-11 15:54:00,
2013-04-11 10:55:00,61.3,21.1,25.28,WSW,248,27.7,27.7,21,0.00,,---,0.00,VWS V14.01,2013-04-11 15:55:00,
2013-04-11 10:56:00,61.0,20.8,25.28,WSW,248,25.1,28.6,21,0.00,,---,0.00,VWS V14.01,2013-04-11 15:56:00,
2013-04-11 10:57:00,61.3,21.1,25.28,SW,225,16.3,25.1,21,0.00,,---,0.00,VWS V14.01,2013-04-11 15:57:00,
2013-04-11 10:58:00,61.2,20.9,25.28,WSW,248,10.7,17.7,21,0.00,,---,0.00,VWS V14.01,2013-04-11 15:58:00,
2013-04-11 10:59:00,61.7,21.4,25.28,SW,225,21.3,25.5,21,0.00,,---,0.00,VWS V14.01,2013-04-11 15:59:00,
2013-04-11 11:00:00,61.3,21.1,25.28,WSW,248,15.4,15.4,21,0.00,,---,0.00,VWS V14.01,2013-04-11 16:00:00,
2013-04-11 11:01:00,61.9,21.5,25.28,SW,225,14.5,16.6,21,0.00,,---,0.00,VWS V14.01,2013-04-11 16:01:00,
2013-04-11 11:02:00,61.9,21.5,25.28,WSW,248,15.9,20.4,21,0.00,,---,0.00,VWS V14.01,2013-04-11 16:02:00,
2013-04-11 11:03:00,62.1,19.3,25.28,WSW,248,22.4,24.2,19,0.00,,---,0.00,VWS V14.01,2013-04-11 16:03:00,
2013-04-11 11:04:00,61.9,19.2,25.28,SW,225,23.9,23.9,19,0.00,,---,0.00,VWS V14.01,2013-04-11 16:04:00,
2013-04-11 11:05:00,61.7,19.0,25.28,SW,225,14.8,24.2,19,0.00,,---,0.00,VWS V14.01,2013-04-11 16:05:00,
2013-04-11 11:06:00,61.7,19.0,25.28,SW,225,19.7,23.0,19,0.00,,---,0.00,VWS V14.01,2013-04-11 16:06:00,
2013-04-11 11:07:00,61.7,19.0,25.28,SW,225,19.5,19.7,19,0.00,,---,0.00,VWS V14.01,2013-04-11 16:07:00,
2013-04-11 11:08:00,61.9,19.2,25.28,WSW,248,20.8,20.8,19,0.00,,---,0.00,VWS V14.01,2013-04-11 16:08:00,
2013-04-11 11:09:00,61.9,19.2,25.31,WSW,248,15.4,21.0,19,0.00,,---,0.00,VWS V14.01,2013-04-11 16:09:00,
2013-04-11 11:10:00,61.9,19.2,25.31,SW,225,13.2,15.4,19,0.00,,---,0.00,VWS V14.01,2013-04-11 16:10:00,
2013-04-11 11:11:00,61.9,19.2,25.31,SW,225,12.8,15.2,19,0.00,,---,0.00,VWS V14.01,2013-04-11 16:11:00,
2013-04-11 11:12:00,63.1,22.6,25.31,West,270,19.5,19.5,21,0.00,,---,0.00,VWS V14.01,2013-04-11 16:12:00,
2013-04-11 11:13:00,63.1,19.0,25.31,WSW,248,23.7,24.4,18,0.00,,---,0.00,VWS V14.01,2013-04-11 16:13:00,
2013-04-11 11:14:00,63.0,18.8,25.31,WSW,248,29.5,29.5,18,0.00,,---,0.00,VWS V14.01,2013-04-11 16:14:00,
2013-04-11 11:15:00,63.0,18.8,25.31,West,270,23.7,23.7,18,0.00,,---,0.00,VWS V14.01,2013-04-11 16:15:00,
2013-04-11 11:16:00,63.0,18.8,25.31,West,270,28.0,28.0,18,0.00,,---,0.00,VWS V14.01,2013-04-11 16:16:00,
2013-04-11 11:17:00,63.0,18.8,25.31,WSW,248,21.9,28.0,18,0.00,,---,0.00,VWS V14.01,2013-04-11 16:17:00,
2013-04-11 11:18:00,63.0,18.8,25.31,West,270,23.3,25.7,18,0.00,,---,0.00,VWS V14.01,2013-04-11 16:18:00,
2013-04-11 11:19:00,63.0,18.8,25.31,WSW,248,23.5,23.5,18,0.00,,---,0.00,VWS V14.01,2013-04-11 16:19:00,
2013-04-11 11:20:00,62.2,19.5,25.31,West,270,20.4,23.5,19,0.00,,---,0.00,VWS V14.01,2013-04-11 16:20:00,
2013-04-11 11:21:00,62.6,18.5,25.31,WSW,248,22.8,27.7,18,0.00,,---,0.00,VWS V14.01,2013-04-11 16:21:00,
2013-04-11 11:22:00,62.6,18.5,25.31,WSW,248,25.1,26.9,18,0.00,,---,0.00,VWS V14.01,2013-04-11 16:22:00,
2013-04-11 11:23:00,62.6,18.5,25.31,WSW,248,24.4,25.3,18,0.00,,---,0.00,VWS V14.01,2013-04-11 16:23:00,
2013-04-11 11:24:00,62.6,18.5,25.31,WSW,248,12.3,24.4,18,0.00,,---,0.00,VWS V14.01,2013-04-11 16:24:00,
2013-04-11 11:25:00,63.1,19.0,25.31,WSW,248,16.6,22.6,18,0.00,,---,0.00,VWS V14.01,2013-04-11 16:25:00,
2013-04-11 11:26:00,62.4,19.6,25.31,WSW,248,23.9,26.4,19,0.00,,---,0.00,VWS V14.01,2013-04-11 16:26:00,
2013-04-11 11:27:00,62.2,19.5,25.31,West,270,38.7,38.7,19,0.00,,---,0.00,VWS V14.01,2013-04-11 16:27:00,
2013-04-11 11:28:00,62.8,18.7,25.31,SW,225,17.5,38.7,18,0.00,,---,0.00,VWS V14.01,2013-04-11 16:28:00,
2013-04-11 11:29:00,62.8,18.7,25.31,WSW,248,16.3,17.5,18,0.00,,---,0.00,VWS V14.01,2013-04-11 16:29:00,
2013-04-11 11:30:00,62.8,18.7,25.31,WSW,248,16.3,16.3,18,0.00,,---,0.00,VWS V14.01,2013-04-11 16:30:00,
2013-04-11 11:31:00,62.8,18.7,25.31,WSW,248,25.1,30.7,18,0.00,,---,0.00,VWS V14.01,2013-04-11 16:31:00,
2013-04-11 11:32:00,62.8,18.7,25.31,West,270,26.4,29.8,18,0.00,,---,0.00,VWS V14.01,2013-04-11 16:32:00,
2013-04-11 11:33:00,62.8,18.7,25.31,WSW,248,31.1,31.1,18,0.00,,---,0.00,VWS V14.01,2013-04-11 16:33:00,
2013-04-11 11:34:00,62.2,19.5,25.31,WSW,248,29.3,31.1,19,0.00,,---,0.00,VWS V14.01,2013-04-11 16:34:00,
2013-04-11 11:35:00,62.8,18.7,25.31,West,270,19.9,29.3,18,0.00,,---,0.00,VWS V14.01,2013-04-11 16:35:00,
2013-04-11 11:36:00,62.6,18.5,25.31,WSW,248,28.4,32.0,18,0.00,,---,0.00,VWS V14.01,2013-04-11 16:36:00,
2013-04-11 11:37:00,61.9,19.2,25.31,WSW,248,25.3,31.1,19,0.00,,---,0.00,VWS V14.01,2013-04-11 16:37:00,
2013-04-11 11:38:00,61.9,19.2,25.31,West,270,25.3,28.9,19,0.00,,---,0.00,VWS V14.01,2013-04-11 16:38:00,
2013-04-11 11:39:00,61.9,19.2,25.31,West,270,25.7,25.7,19,0.00,,---,0.00,VWS V14.01,2013-04-11 16:39:00,
2013-04-11 11:40:00,62.4,19.6,25.31,WSW,248,25.5,25.7,19,0.00,,---,0.00,VWS V14.01,2013-04-11 16:40:00,
2013-04-11 11:41:00,62.4,19.6,25.31,SW,225,21.5,25.5,19,0.00,,---,0.00,VWS V14.01,2013-04-11 16:41:00,
2013-04-11 11:42:00,62.4,19.6,25.31,WSW,248,20.1,21.5,19,0.00,,---,0.00,VWS V14.01,2013-04-11 16:42:00,
2013-04-11 11:43:00,62.4,19.6,25.31,WSW,248,23.9,23.9,19,0.00,,---,0.00,VWS V14.01,2013-04-11 16:43:00,
2013-04-11 11:44:00,63.0,18.8,25.31,WSW,248,23.7,23.9,18,0.00,,---,0.00,VWS V14.01,2013-04-11 16:44:00,
2013-04-11 11:45:00,63.0,18.8,25.31,WSW,248,24.6,26.0,18,0.00,,---,0.00,VWS V14.01,2013-04-11 16:45:00,
2013-04-11 11:46:00,63.1,19.0,25.31,WSW,248,18.1,25.1,18,0.00,,---,0.00,VWS V14.01,2013-04-11 16:46:00,
2013-04-11 11:47:00,62.6,18.5,25.31,WSW,248,17.5,23.3,18,0.00,,---,0.00,VWS V14.01,2013-04-11 16:47:00,
2013-04-11 11:48:00,63.0,18.8,25.31,WSW,248,15.4,15.4,18,0.00,,---,0.00,VWS V14.01,2013-04-11 16:48:00,
2013-04-11 11:49:00,63.3,19.1,25.31,WSW,248,23.3,23.3,18,0.00,,---,0.00,VWS V14.01,2013-04-11 16:49:00,
2013-04-11 11:51:00,63.7,19.4,25.31,SW,225,24.4,24.4,18,0.00,,---,0.00,VWS V14.01,2013-04-11 16:51:00,
2013-04-11 11:52:00,63.7,19.4,25.31,SW,225,24.4,24.4,18,0.00,,---,0.00,VWS V14.01,2013-04-11 16:52:00,
2013-04-11 11:53:00,63.7,19.4,25.31,SW,225,29.5,29.5,18,0.00,,---,0.00,VWS V14.01,2013-04-11 16:53:00,
2013-04-11 11:54:00,63.1,19.0,25.31,SW,225,27.3,29.5,18,0.00,,---,0.00,VWS V14.01,2013-04-11 16:54:00,
2013-04-11 11:55:00,63.1,19.0,25.31,SW,225,26.6,27.3,18,0.00,,---,0.00,VWS V14.01,2013-04-11 16:55:00,
2013-04-11 11:56:00,63.5,19.3,25.31,SW,225,15.2,26.6,18,0.00,,---,0.00,VWS V14.01,2013-04-11 16:56:00,
2013-04-11 11:57:00,63.5,19.3,25.31,SW,225,17.7,17.7,18,0.00,,---,0.00,VWS V14.01,2013-04-11 16:57:00,
2013-04-11 11:58:00,63.5,19.3,25.31,SW,225,17.7,17.7,18,0.00,,---,0.00,VWS V14.01,2013-04-11 16:58:00,
2013-04-11 11:59:00,63.5,19.3,25.31,SW,225,19.9,19.9,18,0.00,,---,0.00,VWS V14.01,2013-04-11 16:59:00,
2013-04-11 12:00:00,63.9,19.6,25.31,SW,225,24.4,24.4,18,0.00,,---,0.00,VWS V14.01,2013-04-11 17:00:00,
2013-04-11 12:01:00,63.7,19.4,25.31,SW,225,23.5,33.1,18,0.00,,---,0.00,VWS V14.01,2013-04-11 17:01:00,
2013-04-11 12:02:00,63.5,19.3,25.31,SW,225,25.1,25.1,18,0.00,,---,0.00,VWS V14.01,2013-04-11 17:02:00,
2013-04-11 12:03:00,63.3,19.1,25.31,SW,225,28.6,28.6,18,0.00,,---,0.00,VWS V14.01,2013-04-11 17:03:00,
2013-04-11 12:04:00,63.3,19.1,25.31,WSW,248,23.7,28.6,18,0.00,,---,0.00,VWS V14.01,2013-04-11 17:04:00,
2013-04-11 12:05:00,63.5,19.3,25.31,SW,225,27.5,27.5,18,0.00,,---,0.00,VWS V14.01,2013-04-11 17:05:00,
2013-04-11 12:06:00,63.5,19.3,25.31,SW,225,35.4,35.4,18,0.00,,---,0.00,VWS V14.01,2013-04-11 17:06:00,
2013-04-11 12:07:00,62.6,18.5,25.31,SW,225,23.5,35.4,18,0.00,,---,0.00,VWS V14.01,2013-04-11 17:07:00,
2013-04-11 12:08:00,62.6,18.5,25.31,SW,225,25.7,25.7,18,0.00,,---,0.00,VWS V14.01,2013-04-11 17:08:00,
2013-04-11 12:09:00,62.6,18.5,25.28,SSW,202,24.4,25.7,18,0.00,,---,0.00,VWS V14.01,2013-04-11 17:09:00,
2013-04-11 12:10:00,62.6,18.5,25.28,SW,225,23.3,24.4,18,0.00,,---,0.00,VWS V14.01,2013-04-11 17:10:00,
2013-04-11 12:11:00,62.6,18.5,25.28,SW,225,23.3,23.3,18,0.00,,---,0.00,VWS V14.01,2013-04-11 17:11:00,
2013-04-11 12:12:00,62.6,18.5,25.28,SW,225,19.9,23.3,18,0.00,,---,0.00,VWS V14.01,2013-04-11 17:12:00,
2013-04-11 12:13:00,63.0,18.8,25.28,SW,225,22.4,26.9,18,0.00,,---,0.00,VWS V14.01,2013-04-11 17:13:00,
2013-04-11 12:15:00,63.5,19.3,25.28,SW,225,28.9,35.4,18,0.00,,---,0.00,VWS V14.01,2013-04-11 17:15:00,
2013-04-11 12:16:00,63.5,19.3,25.28,SW,225,22.8,35.4,18,0.00,,---,0.00,VWS V14.01,2013-04-11 17:16:00,
2013-04-11 12:17:00,63.7,19.4,25.28,WSW,248,30.0,30.0,18,0.00,,---,0.00,VWS V14.01,2013-04-11 17:17:00,
2013-04-11 12:18:00,63.0,18.8,25.28,SW,225,27.5,30.9,18,0.00,,---,0.00,VWS V14.01,2013-04-11 17:18:00,
2013-04-11 12:19:00,63.3,19.1,25.28,SW,225,24.2,28.4,18,0.00,,---,0.00,VWS V14.01,2013-04-11 17:19:00,
2013-04-11 12:20:00,63.1,19.0,25.28,SW,225,23.0,23.0,18,0.00,,---,0.00,VWS V14.01,2013-04-11 17:20:00,
2013-04-11 12:21:00,63.5,19.3,25.28,WSW,248,23.9,33.3,18,0.00,,---,0.00,VWS V14.01,2013-04-11 17:21:00,
2013-04-11 12:22:00,63.1,19.0,25.28,WSW,248,27.3,30.9,18,0.00,,---,0.00,VWS V14.01,2013-04-11 17:22:00,
2013-04-11 12:23:00,63.1,19.0,25.28,SW,225,22.8,28.0,18,0.00,,---,0.00,VWS V14.01,2013-04-11 17:23:00,
2013-04-11 12:24:00,63.1,19.0,25.28,WSW,248,27.3,30.2,18,0.00,,---,0.00,VWS V14.01,2013-04-11 17:24:00,
2013-04-11 12:25:00,63.1,19.0,25.28,WSW,248,26.4,27.3,18,0.00,,---,0.00,VWS V14.01,2013-04-11 17:25:00,
2013-04-11 12:26:00,62.8,18.7,25.28,WSW,248,23.7,28.0,18,0.00,,---,0.00,VWS V14.01,2013-04-11 17:26:00,
2013-04-11 12:28:00,63.1,19.0,25.28,WSW,248,30.0,39.8,18,0.00,,---,0.00,VWS V14.01,2013-04-11 17:28:00,
2013-04-11 12:29:00,63.1,19.0,25.28,WSW,248,24.4,30.9,18,0.00,,---,0.00,VWS V14.01,2013-04-11 17:29:00,
2013-04-11 12:30:00,62.6,18.5,25.28,WSW,248,26.2,31.3,18,0.00,,---,0.00,VWS V14.01,2013-04-11 17:30:00,
2013-04-11 12:31:00,62.6,18.5,25.28,SW,225,19.5,27.7,18,0.00,,---,0.00,VWS V14.01,2013-04-11 17:31:00,
2013-04-11 12:32:00,63.0,18.8,25.28,WSW,248,22.8,25.3,18,0.00,,---,0.00,VWS V14.01,2013-04-11 17:32:00,
2013-04-11 12:33:00,62.8,18.7,25.28,WSW,248,24.2,27.7,18,0.00,,---,0.00,VWS V14.01,2013-04-11 17:33:00,
2013-04-11 12:34:00,63.1,19.0,25.28,SW,225,24.6,25.7,18,0.00,,---,0.00,VWS V14.01,2013-04-11 17:34:00,
2013-04-11 12:35:00,63.1,19.0,25.28,WSW,248,23.7,24.6,18,0.00,,---,0.00,VWS V14.01,2013-04-11 17:35:00,
2013-04-11 12:36:00,63.1,19.0,25.28,WSW,248,24.4,34.5,18,0.00,,---,0.00,VWS V14.01,2013-04-11 17:36:00,
2013-04-11 12:37:00,63.5,19.3,25.28,SW,225,22.6,24.4,18,0.00,,---,0.00,VWS V14.01,2013-04-11 17:37:00,
2013-04-11 12:38:00,63.9,19.6,25.28,SW,225,28.6,28.6,18,0.00,,---,0.00,VWS V14.01,2013-04-11 17:38:00,
2013-04-11 12:39:00,63.9,19.6,25.28,SW,225,25.7,25.7,18,0.00,,---,0.00,VWS V14.01,2013-04-11 17:39:00,
2013-04-11 12:40:00,63.7,19.4,25.28,SW,225,22.6,30.2,18,0.00,,---,0.00,VWS V14.01,2013-04-11 17:40:00,
2013-04-11 12:41:00,63.7,19.4,25.28,SW,225,22.4,24.2,18,0.00,,---,0.00,VWS V14.01,2013-04-11 17:41:00,
2013-04-11 12:42:00,63.9,19.6,25.28,SW,225,19.9,25.7,18,0.00,,---,0.00,VWS V14.01,2013-04-11 17:42:00,
2013-04-11 12:43:00,64.0,19.7,25.28,WSW,248,23.7,28.0,18,0.00,,---,0.00,VWS V14.01,2013-04-11 17:43:00,
2013-04-11 12:44:00,64.0,19.7,25.28,WSW,248,21.3,26.0,18,0.00,,---,0.00,VWS V14.01,2013-04-11 17:44:00,
2013-04-11 12:45:00,64.2,19.9,25.28,WSW,248,25.1,25.1,18,0.00,,---,0.00,VWS V14.01,2013-04-11 17:45:00,
2013-04-11 12:46:00,64.4,20.0,25.28,West,270,23.5,25.1,18,0.00,,---,0.00,VWS V14.01,2013-04-11 17:46:00,
2013-04-11 12:47:00,64.4,20.0,25.28,WSW,248,26.9,26.9,18,0.00,,---,0.00,VWS V14.01,2013-04-11 17:47:00,
2013-04-11 12:48:00,64.8,20.3,25.28,WSW,248,29.3,34.7,18,0.00,,---,0.00,VWS V14.01,2013-04-11 17:48:00,
2013-04-11 12:49:00,64.4,15.8,25.28,West,270,27.3,34.7,15,0.00,,---,0.00,VWS V14.01,2013-04-11 17:49:00,
2013-04-11 12:50:00,63.7,16.7,25.28,SW,225,19.5,27.3,16,0.00,,---,0.00,VWS V14.01,2013-04-11 17:50:00,
2013-04-11 12:51:00,63.7,16.7,25.28,West,270,23.3,25.3,16,0.00,,---,0.00,VWS V14.01,2013-04-11 17:51:00,
2013-04-11 12:52:00,63.7,16.7,25.28,WSW,248,33.3,33.3,16,0.00,,---,0.00,VWS V14.01,2013-04-11 17:52:00,
2013-04-11 12:53:00,63.7,16.7,25.28,SW,225,16.8,33.3,16,0.00,,---,0.00,VWS V14.01,2013-04-11 17:53:00,
2013-04-11 12:54:00,64.9,16.2,25.25,SW,225,18.6,22.4,15,0.00,,---,0.00,VWS V14.01,2013-04-11 17:54:00,
2013-04-11 12:55:00,65.3,16.5,25.25,WSW,248,21.9,22.8,15,0.00,,---,0.00,VWS V14.01,2013-04-11 17:55:00,
2013-04-11 12:56:00,65.5,16.6,25.25,WSW,248,26.0,26.0,15,0.00,,---,0.00,VWS V14.01,2013-04-11 17:56:00,
2013-04-11 12:57:00,65.7,16.8,25.25,SW,225,28.0,28.0,15,0.00,,---,0.00,VWS V14.01,2013-04-11 17:57:00,
2013-04-11 12:58:00,64.6,15.9,25.25,WSW,248,25.5,27.7,15,0.00,,---,0.00,VWS V14.01,2013-04-11 17:58:00,
2013-04-11 12:59:00,64.6,15.9,25.25,SW,225,23.5,27.7,15,0.00,,---,0.00,VWS V14.01,2013-04-11 17:59:00,
2013-04-11 13:00:00,64.4,15.8,25.25,SW,225,29.3,29.3,15,0.00,,---,0.00,VWS V14.01,2013-04-11 18:00:00,
2013-04-11 13:01:00,64.8,16.1,25.25,SW,225,17.5,29.3,15,0.00,,---,0.00,VWS V14.01,2013-04-11 18:01:00,
2013-04-11 13:02:00,65.3,16.5,25.25,WSW,248,22.8,22.8,15,0.00,,---,0.00,VWS V14.01,2013-04-11 18:02:00,
2013-04-11 13:03:00,65.5,16.6,25.25,WSW,248,17.7,22.8,15,0.00,,---,0.00,VWS V14.01,2013-04-11 18:03:00,
2013-04-11 13:04:00,64.8,16.1,25.25,WSW,248,22.2,24.4,15,0.00,,---,0.00,VWS V14.01,2013-04-11 18:04:00,
2013-04-11 13:05:00,64.8,16.1,25.25,West,270,25.5,25.5,15,0.00,,---,0.00,VWS V14.01,2013-04-11 18:05:00,
2013-04-11 13:06:00,64.8,16.1,25.25,WSW,248,17.5,25.5,15,0.00,,---,0.00,VWS V14.01,2013-04-11 18:06:00,
2013-04-11 13:07:00,64.4,15.8,25.25,WSW,248,17.0,21.0,15,0.00,,---,0.00,VWS V14.01,2013-04-11 18:07:00,
2013-04-11 13:08:00,64.9,16.2,25.25,WSW,248,14.1,17.0,15,0.00,,---,0.00,VWS V14.01,2013-04-11 18:08:00,
2013-04-11 13:09:00,64.6,15.9,25.25,West,270,17.7,26.0,15,0.00,,---,0.00,VWS V14.01,2013-04-11 18:09:00,
2013-04-11 13:10:00,64.6,15.9,25.25,WNW,292,26.0,27.3,15,0.00,,---,0.00,VWS V14.01,2013-04-11 18:10:00,
2013-04-11 13:12:00,65.1,16.4,25.25,SW,225,17.2,28.6,15,0.00,,---,0.00,VWS V14.01,2013-04-11 18:12:00,
2013-04-11 13:13:00,65.5,16.6,25.25,WSW,248,15.2,21.9,15,0.00,,---,0.00,VWS V14.01,2013-04-11 18:13:00,
2013-04-11 13:14:00,66.0,17.1,25.25,WSW,248,17.2,18.8,15,0.00,,---,0.00,VWS V14.01,2013-04-11 18:14:00,
2013-04-11 13:15:00,66.4,17.4,25.25,WSW,248,17.7,21.5,15,0.00,,---,0.00,VWS V14.01,2013-04-11 18:15:00,
2013-04-11 13:16:00,66.7,17.6,25.25,SW,225,28.0,28.0,15,0.00,,---,0.00,VWS V14.01,2013-04-11 18:16:00,
2013-04-11 13:17:00,66.2,17.2,25.25,WSW,248,14.3,28.0,15,0.00,,---,0.00,VWS V14.01,2013-04-11 18:17:00,
2013-04-11 13:18:00,65.8,16.9,25.25,WSW,248,17.2,17.2,15,0.00,,---,0.00,VWS V14.01,2013-04-11 18:18:00,
2013-04-11 13:19:00,66.2,17.2,25.25,WSW,248,13.0,20.6,15,0.00,,---,0.00,VWS V14.01,2013-04-11 18:19:00,
2013-04-11 13:21:00,65.5,16.6,25.25,West,270,25.5,27.3,15,0.00,,---,0.00,VWS V14.01,2013-04-11 18:21:00,
2013-04-11 13:23:00,65.7,16.8,25.25,West,270,28.4,28.4,15,0.00,,---,0.00,VWS V14.01,2013-04-11 18:23:00,
2013-04-11 13:24:00,65.5,16.6,25.25,West,270,23.3,30.9,15,0.00,,---,0.00,VWS V14.01,2013-04-11 18:24:00,
2013-04-11 13:25:00,65.1,16.4,25.25,WSW,248,24.4,24.4,15,0.00,,---,0.00,VWS V14.01,2013-04-11 18:25:00,
2013-04-11 13:26:00,65.3,16.5,25.25,WSW,248,25.3,25.3,15,0.00,,---,0.00,VWS V14.01,2013-04-11 18:26:00,
2013-04-11 13:27:00,65.8,16.9,25.25,West,270,29.1,29.1,15,0.00,,---,0.00,VWS V14.01,2013-04-11 18:27:00,
2013-04-11 13:28:00,65.7,16.8,25.25,West,270,23.7,29.5,15,0.00,,---,0.00,VWS V14.01,2013-04-11 18:28:00,
2013-04-11 13:29:00,65.7,16.8,25.25,WSW,248,23.9,28.9,15,0.00,,---,0.00,VWS V14.01,2013-04-11 18:29:00,
2013-04-11 13:30:00,65.7,16.8,25.25,SW,225,17.0,17.0,15,0.00,,---,0.00,VWS V14.01,2013-04-11 18:30:00,
2013-04-11 13:31:00,65.7,16.8,25.25,WSW,248,19.2,19.2,15,0.00,,---,0.00,VWS V14.01,2013-04-11 18:31:00,
2013-04-11 13:32:00,65.5,16.6,25.25,SW,225,20.8,23.0,15,0.00,,---,0.00,VWS V14.01,2013-04-11 18:32:00,
2013-04-11 13:33:00,65.8,16.9,25.25,WSW,248,23.0,25.1,15,0.00,,---,0.00,VWS V14.01,2013-04-11 18:33:00,
2013-04-11 13:34:00,65.8,16.9,25.25,WSW,248,22.2,22.2,15,0.00,,---,0.00,VWS V14.01,2013-04-11 18:34:00,
2013-04-11 13:35:00,66.2,17.2,25.25,WSW,248,18.6,26.2,15,0.00,,---,0.00,VWS V14.01,2013-04-11 18:35:00,
2013-04-11 13:36:00,65.8,16.9,25.25,WSW,248,26.6,26.6,15,0.00,,---,0.00,VWS V14.01,2013-04-11 18:36:00,
2013-04-11 13:37:00,65.8,16.9,25.25,West,270,23.0,26.6,15,0.00,,---,0.00,VWS V14.01,2013-04-11 18:37:00,
2013-04-11 13:39:00,65.7,16.8,25.25,WSW,248,28.0,28.0,15,0.00,,---,0.00,VWS V14.01,2013-04-11 18:39:00,
2013-04-11 13:40:00,65.3,16.5,25.22,WSW,248,25.5,25.5,15,0.00,,---,0.00,VWS V14.01,2013-04-11 18:40:00,
2013-04-11 13:41:00,65.7,16.8,25.22,WSW,248,23.0,27.1,15,0.00,,---,0.00,VWS V14.01,2013-04-11 18:41:00,
2013-04-11 13:42:00,65.5,16.6,25.22,WSW,248,19.9,28.9,15,0.00,,---,0.00,VWS V14.01,2013-04-11 18:42:00,
2013-04-11 13:44:00,65.8,16.9,25.22,WSW,248,22.4,24.6,15,0.00,,---,0.00,VWS V14.01,2013-04-11 18:44:00,
2013-04-11 13:45:00,65.8,16.9,25.22,West,270,17.5,22.4,15,0.00,,---,0.00,VWS V14.01,2013-04-11 18:45:00,
2013-04-11 13:46:00,65.8,16.9,25.22,WSW,248,23.5,23.5,15,0.00,,---,0.00,VWS V14.01,2013-04-11 18:46:00,
2013-04-11 13:48:00,65.7,16.8,25.22,WSW,248,22.8,27.5,15,0.00,,---,0.00,VWS V14.01,2013-04-11 18:48:00,
2013-04-11 13:49:00,65.1,16.4,25.22,WSW,248,22.2,22.2,15,0.00,,---,0.00,VWS V14.01,2013-04-11 18:49:00,
2013-04-11 13:50:00,65.5,16.6,25.22,SW,225,17.0,22.2,15,0.00,,---,0.00,VWS V14.01,2013-04-11 18:50:00,
2013-04-11 13:51:00,65.5,16.6,25.22,SW,225,16.3,24.4,15,0.00,,---,0.00,VWS V14.01,2013-04-11 18:51:00,
2013-04-11 13:52:00,66.0,17.1,25.22,WSW,248,12.3,16.3,15,0.00,,---,0.00,VWS V14.01,2013-04-11 18:52:00,
2013-04-11 13:53:00,66.6,17.5,25.22,SW,225,12.8,17.7,15,0.00,,---,0.00,VWS V14.01,2013-04-11 18:53:00,
2013-04-11 13:54:00,66.7,17.6,25.25,SW,225,23.0,23.0,15,0.00,,---,0.00,VWS V14.01,2013-04-11 18:54:00,
2013-04-11 13:55:00,66.6,17.5,25.25,WSW,248,25.1,25.1,15,0.00,,---,0.00,VWS V14.01,2013-04-11 18:55:00,
2013-04-11 13:56:00,66.2,17.2,25.25,WSW,248,25.5,25.5,15,0.00,,---,0.00,VWS V14.01,2013-04-11 18:56:00,
2013-04-11 13:57:00,65.8,16.9,25.25,West,270,22.4,26.9,15,0.00,,---,0.00,VWS V14.01,2013-04-11 18:57:00,
2013-04-11 13:58:00,65.8,16.9,25.25,WSW,248,23.3,26.2,15,0.00,,---,0.00,VWS V14.01,2013-04-11 18:58:00,
2013-04-11 13:59:00,65.5,16.6,25.25,WSW,248,25.7,25.7,15,0.00,,---,0.00,VWS V14.01,2013-04-11 18:59:00,
2013-04-11 14:00:00,65.8,16.9,25.25,SW,225,16.6,25.7,15,0.00,,---,0.00,VWS V14.01,2013-04-11 19:00:00,
2013-04-11 14:01:00,66.2,17.2,25.25,West,270,25.3,25.3,15,0.00,,---,0.00,VWS V14.01,2013-04-11 19:01:00,
2013-04-11 14:02:00,66.6,17.5,25.25,WSW,248,23.0,25.5,15,0.00,,---,0.00,VWS V14.01,2013-04-11 19:02:00,
2013-04-11 14:03:00,65.7,16.8,25.25,WSW,248,27.3,32.4,15,0.00,,---,0.00,VWS V14.01,2013-04-11 19:03:00,
2013-04-11 14:04:00,65.5,16.6,25.25,WNW,292,14.5,27.3,15,0.00,,---,0.00,VWS V14.01,2013-04-11 19:04:00,
2013-04-11 14:05:00,66.0,17.1,25.25,West,270,15.4,16.8,15,0.00,,---,0.00,VWS V14.01,2013-04-11 19:05:00,
2013-04-11 14:06:00,66.0,17.1,25.25,WSW,248,22.8,22.8,15,0.00,,---,0.00,VWS V14.01,2013-04-11 19:06:00,
2013-04-11 14:07:00,66.2,17.2,25.25,WSW,248,24.4,29.8,15,0.00,,---,0.00,VWS V14.01,2013-04-11 19:07:00,
2013-04-11 14:08:00,66.4,17.4,25.25,West,270,19.9,24.6,15,0.00,,---,0.00,VWS V14.01,2013-04-11 19:08:00,
2013-04-11 14:09:00,66.0,17.1,25.25,West,270,16.6,22.4,15,0.00,,---,0.00,VWS V14.01,2013-04-11 19:09:00,
2013-04-11 14:10:00,66.6,17.5,25.25,West,270,15.4,15.4,15,0.00,,---,0.00,VWS V14.01,2013-04-11 19:10:00,
2013-04-11 14:11:00,66.2,17.2,25.25,WSW,248,25.1,26.0,15,0.00,,---,0.00,VWS V14.01,2013-04-11 19:11:00,
2013-04-11 14:12:00,65.8,16.9,25.25,West,270,17.0,25.1,15,0.00,,---,0.00,VWS V14.01,2013-04-11 19:12:00,
2013-04-11 14:13:00,66.6,17.5,25.25,West,270,10.5,17.0,15,0.00,,---,0.00,VWS V14.01,2013-04-11 19:13:00,
2013-04-11 14:14:00,66.4,17.4,25.25,WSW,248,11.0,13.0,15,0.00,,---,0.00,VWS V14.01,2013-04-11 19:14:00,
2013-04-11 14:15:00,67.5,18.2,25.25,West,270,17.7,17.7,15,0.00,,---,0.00,VWS V14.01,2013-04-11 19:15:00,
2013-04-11 14:16:00,67.5,18.2,25.25,WSW,248,13.2,17.7,15,0.00,,---,0.00,VWS V14.01,2013-04-11 19:16:00,
2013-04-11 14:17:00,67.3,18.1,25.25,West,270,12.1,13.4,15,0.00,,---,0.00,VWS V14.01,2013-04-11 19:17:00,
2013-04-11 14:18:00,67.1,17.9,25.25,WSW,248,16.3,16.3,15,0.00,,---,0.00,VWS V14.01,2013-04-11 19:18:00,
2013-04-11 14:19:00,67.8,18.5,25.25,WSW,248,12.5,23.9,15,0.00,,---,0.00,VWS V14.01,2013-04-11 19:19:00,
2013-04-11 14:20:00,68.0,18.7,25.25,WSW,248,10.3,15.9,15,0.00,,---,0.00,VWS V14.01,2013-04-11 19:20:00,
2013-04-11 14:21:00,68.0,18.7,25.25,West,270,7.8,15.4,15,0.00,,---,0.00,VWS V14.01,2013-04-11 19:21:00,
2013-04-11 14:22:00,68.4,19.0,25.25,SW,225,19.0,19.0,15,0.00,,---,0.00,VWS V14.01,2013-04-11 19:22:00,
2013-04-11 14:23:00,68.2,18.8,25.25,WSW,248,15.7,19.0,15,0.00,,---,0.00,VWS V14.01,2013-04-11 19:23:00,
2013-04-11 14:24:00,68.5,19.1,25.22,WSW,248,27.5,27.5,15,0.00,,---,0.00,VWS V14.01,2013-04-11 19:24:00,
2013-04-11 14:25:00,67.6,18.4,25.22,West,270,26.2,27.5,15,0.00,,---,0.00,VWS V14.01,2013-04-11 19:25:00,
2013-04-11 14:26:00,66.4,17.4,25.22,WNW,292,19.7,26.2,15,0.00,,---,0.00,VWS V14.01,2013-04-11 19:26:00,
2013-04-11 14:27:00,67.1,17.9,25.22,West,270,15.4,19.7,15,0.00,,---,0.00,VWS V14.01,2013-04-11 19:27:00,
2013-04-11 14:28:00,67.1,17.9,25.22,West,270,15.4,15.4,15,0.00,,---,0.00,VWS V14.01,2013-04-11 19:28:00,
2013-04-11 14:29:00,67.3,18.1,25.22,West,270,13.2,17.7,15,0.00,,---,0.00,VWS V14.01,2013-04-11 19:29:00,
2013-04-11 14:30:00,67.3,18.1,25.22,West,270,23.3,23.3,15,0.00,,---,0.00,VWS V14.01,2013-04-11 19:30:00,
2013-04-11 14:31:00,67.3,18.1,25.22,West,270,15.7,23.3,15,0.00,,---,0.00,VWS V14.01,2013-04-11 19:31:00,
2013-04-11 14:32:00,67.3,18.1,25.22,West,270,13.0,13.0,15,0.00,,---,0.00,VWS V14.01,2013-04-11 19:32:00,
2013-04-11 14:33:00,67.6,18.4,25.22,West,270,12.8,13.6,15,0.00,,---,0.00,VWS V14.01,2013-04-11 19:33:00,
2013-04-11 14:34:00,67.5,18.2,25.22,West,270,14.5,21.5,15,0.00,,---,0.00,VWS V14.01,2013-04-11 19:34:00,
2013-04-11 14:35:00,66.7,17.6,25.22,West,270,22.2,22.2,15,0.00,,---,0.00,VWS V14.01,2013-04-11 19:35:00,
2013-04-11 14:36:00,67.1,17.9,25.22,WSW,248,16.8,23.7,15,0.00,,---,0.00,VWS V14.01,2013-04-11 19:36:00,
2013-04-11 14:37:00,67.5,18.2,25.22,WSW,248,23.5,23.7,15,0.00,,---,0.00,VWS V14.01,2013-04-11 19:37:00,
2013-04-11 14:38:00,67.3,18.1,25.22,SW,225,16.6,24.4,15,0.00,,---,0.00,VWS V14.01,2013-04-11 19:38:00,
2013-04-11 14:39:00,67.1,17.9,25.22,WSW,248,23.7,23.7,15,0.00,,---,0.00,VWS V14.01,2013-04-11 19:39:00,
2013-04-11 14:40:00,67.1,17.9,25.22,SW,225,12.8,12.8,15,0.00,,---,0.00,VWS V14.01,2013-04-11 19:40:00,
2013-04-11 14:41:00,67.3,18.1,25.22,WSW,248,18.8,18.8,15,0.00,,---,0.00,VWS V14.01,2013-04-11 19:41:00,
2013-04-11 14:42:00,67.1,17.9,25.22,WSW,248,17.2,21.3,15,0.00,,---,0.00,VWS V14.01,2013-04-11 19:42:00,
2013-04-11 14:43:00,67.3,18.1,25.22,WSW,248,12.3,17.2,15,0.00,,---,0.00,VWS V14.01,2013-04-11 19:43:00,
2013-04-11 14:44:00,66.7,17.6,25.22,West,270,12.3,17.7,15,0.00,,---,0.00,VWS V14.01,2013-04-11 19:44:00,
2013-04-11 14:45:00,66.7,17.6,25.22,West,270,17.7,17.7,15,0.00,,---,0.00,VWS V14.01,2013-04-11 19:45:00,
2013-04-11 14:46:00,68.0,18.7,25.22,West,270,19.9,30.7,15,0.00,,---,0.00,VWS V14.01,2013-04-11 19:46:00,
2013-04-11 14:47:00,68.0,18.7,25.22,West,270,19.9,19.9,15,0.00,,---,0.00,VWS V14.01,2013-04-11 19:47:00,
2013-04-11 14:48:00,68.0,18.7,25.22,WNW,292,17.7,23.7,15,0.00,,---,0.00,VWS V14.01,2013-04-11 19:48:00,
2013-04-11 14:49:00,67.5,18.2,25.22,WNW,292,22.2,23.3,15,0.00,,---,0.00,VWS V14.01,2013-04-11 19:49:00,
2013-04-11 14:50:00,67.1,17.9,25.22,WNW,292,19.0,22.8,15,0.00,,---,0.00,VWS V14.01,2013-04-11 19:50:00,
2013-04-11 14:51:00,67.3,18.1,25.22,West,270,33.3,33.3,15,0.00,,---,0.00,VWS V14.01,2013-04-11 19:51:00,
2013-04-11 14:52:00,67.5,18.2,25.22,West,270,22.6,33.3,15,0.00,,---,0.00,VWS V14.01,2013-04-11 19:52:00,
2013-04-11 14:53:00,67.1,17.9,25.22,West,270,20.4,23.5,15,0.00,,---,0.00,VWS V14.01,2013-04-11 19:53:00,
2013-04-11 14:54:00,67.3,18.1,25.25,West,270,17.2,20.8,15,0.00,,---,0.00,VWS V14.01,2013-04-11 19:54:00,
2013-04-11 14:55:00,67.5,18.2,25.25,SW,225,17.5,17.5,15,0.00,,---,0.00,VWS V14.01,2013-04-11 19:55:00,
2013-04-11 14:56:00,68.4,19.0,25.25,West,270,23.3,23.3,15,0.00,,---,0.00,VWS V14.01,2013-04-11 19:56:00,
2013-04-11 14:57:00,66.9,17.8,25.25,West,270,27.3,27.3,15,0.00,,---,0.00,VWS V14.01,2013-04-11 19:57:00,
2013-04-11 14:58:00,67.5,18.2,25.25,West,270,23.7,27.3,15,0.00,,---,0.00,VWS V14.01,2013-04-11 19:58:00,
2013-04-11 14:59:00,66.7,17.6,25.25,West,270,24.2,28.9,15,0.00,,---,0.00,VWS V14.01,2013-04-11 19:59:00,
2013-04-11 15:00:00,66.7,17.6,25.25,West,270,24.6,24.6,15,0.00,,---,0.00,VWS V14.01,2013-04-11 20:00:00,
2013-04-11 15:01:00,66.7,17.6,25.25,West,270,12.8,24.6,15,0.00,,---,0.00,VWS V14.01,2013-04-11 20:01:00,
2013-04-11 15:02:00,67.5,18.2,25.25,West,270,20.1,20.1,15,0.00,,---,0.00,VWS V14.01,2013-04-11 20:02:00,
2013-04-11 15:04:00,67.5,18.2,25.25,West,270,27.3,27.3,15,0.00,,---,0.00,VWS V14.01,2013-04-11 20:04:00,
2013-04-11 15:05:00,67.5,18.2,25.25,West,270,21.5,27.3,15,0.00,,---,0.00,VWS V14.01,2013-04-11 20:05:00,
2013-04-11 15:06:00,66.6,17.5,25.25,West,270,25.5,30.9,15,0.00,,---,0.00,VWS V14.01,2013-04-11 20:06:00,
2013-04-11 15:07:00,66.7,17.6,25.25,West,270,26.0,32.0,15,0.00,,---,0.00,VWS V14.01,2013-04-11 20:07:00,
2013-04-11 15:08:00,66.7,17.6,25.25,West,270,23.3,27.1,15,0.00,,---,0.00,VWS V14.01,2013-04-11 20:08:00,
2013-04-11 15:09:00,66.7,17.6,25.25,West,270,15.2,23.3,15,0.00,,---,0.00,VWS V14.01,2013-04-11 20:09:00,
2013-04-11 15:10:00,68.0,18.7,25.25,West,270,17.9,17.9,15,0.00,,---,0.00,VWS V14.01,2013-04-11 20:10:00,
2013-04-11 15:11:00,68.0,18.7,25.25,West,270,19.7,24.4,15,0.00,,---,0.00,VWS V14.01,2013-04-11 20:11:00,
2013-04-11 15:12:00,68.2,18.8,25.25,West,270,24.2,24.2,15,0.00,,---,0.00,VWS V14.01,2013-04-11 20:12:00,
2013-04-11 15:13:00,67.3,18.1,25.25,West,270,19.7,24.2,15,0.00,,---,0.00,VWS V14.01,2013-04-11 20:13:00,
2013-04-11 15:14:00,66.7,17.6,25.25,West,270,18.8,23.9,15,0.00,,---,0.00,VWS V14.01,2013-04-11 20:14:00,
2013-04-11 15:16:00,66.7,17.6,25.25,West,270,15.4,30.2,15,0.00,,---,0.00,VWS V14.01,2013-04-11 20:16:00,
2013-04-11 15:17:00,66.7,17.6,25.25,WNW,292,18.6,19.9,15,0.00,,---,0.00,VWS V14.01,2013-04-11 20:17:00,
2013-04-11 15:18:00,67.6,18.4,25.25,West,270,17.7,23.5,15,0.00,,---,0.00,VWS V14.01,2013-04-11 20:18:00,
2013-04-11 15:19:00,67.6,18.4,25.25,West,270,17.7,17.7,15,0.00,,---,0.00,VWS V14.01,2013-04-11 20:19:00,
2013-04-11 15:20:00,68.0,18.7,25.25,West,270,22.2,22.2,15,0.00,,---,0.00,VWS V14.01,2013-04-11 20:20:00,
2013-04-11 15:21:00,67.3,18.1,25.25,West,270,20.4,23.3,15,0.00,,---,0.00,VWS V14.01,2013-04-11 20:21:00,
2013-04-11 15:22:00,66.9,17.8,25.25,WNW,292,17.7,27.5,15,0.00,,---,0.00,VWS V14.01,2013-04-11 20:22:00,
2013-04-11 15:23:00,66.9,17.8,25.25,West,270,19.7,19.7,15,0.00,,---,0.00,VWS V14.01,2013-04-11 20:23:00,
2013-04-11 15:24:00,66.9,17.8,25.25,WNW,292,20.6,20.6,15,0.00,,---,0.00,VWS V14.01,2013-04-11 20:24:00,
2013-04-11 15:26:00,67.5,18.2,25.25,WNW,292,15.4,25.1,15,0.00,,---,0.00,VWS V14.01,2013-04-11 20:26:00,
2013-04-11 15:27:00,67.3,18.1,25.25,WSW,248,17.7,23.7,15,0.00,,---,0.00,VWS V14.01,2013-04-11 20:27:00,
2013-04-11 15:28:00,67.3,18.1,25.25,West,270,15.2,17.7,15,0.00,,---,0.00,VWS V14.01,2013-04-11 20:28:00,
2013-04-11 15:29:00,68.0,18.7,25.25,West,270,14.5,17.7,15,0.00,,---,0.00,VWS V14.01,2013-04-11 20:29:00,
2013-04-11 15:30:00,68.4,19.0,25.25,WSW,248,13.2,19.7,15,0.00,,---,0.00,VWS V14.01,2013-04-11 20:30:00,
2013-04-11 15:31:00,68.0,18.7,25.25,West,270,20.1,23.7,15,0.00,,---,0.00,VWS V14.01,2013-04-11 20:31:00,
2013-04-11 15:32:00,68.4,19.0,25.25,West,270,16.8,23.3,15,0.00,,---,0.00,VWS V14.01,2013-04-11 20:32:00,
2013-04-11 15:33:00,68.5,19.1,25.25,WSW,248,25.3,25.3,15,0.00,,---,0.00,VWS V14.01,2013-04-11 20:33:00,
2013-04-11 15:34:00,68.5,19.1,25.25,WSW,248,25.3,25.3,15,0.00,,---,0.00,VWS V14.01,2013-04-11 20:34:00,
2013-04-11 15:35:00,68.2,18.8,25.25,WSW,248,17.5,26.6,15,0.00,,---,0.00,VWS V14.01,2013-04-11 20:35:00,
2013-04-11 15:36:00,68.2,18.8,25.25,West,270,23.0,23.0,15,0.00,,---,0.00,VWS V14.01,2013-04-11 20:36:00,
2013-04-11 15:37:00,68.2,18.8,25.25,West,270,19.7,23.0,15,0.00,,---,0.00,VWS V14.01,2013-04-11 20:37:00,
2013-04-11 15:38:00,68.2,18.8,25.25,West,270,22.8,24.4,15,0.00,,---,0.00,VWS V14.01,2013-04-11 20:38:00,
2013-04-11 15:39:00,67.6,18.4,25.25,West,270,19.2,22.8,15,0.00,,---,0.00,VWS V14.01,2013-04-11 20:39:00,
2013-04-11 15:40:00,67.5,18.2,25.25,West,270,13.2,21.5,15,0.00,,---,0.00,VWS V14.01,2013-04-11 20:40:00,
2013-04-11 15:41:00,68.4,19.0,25.25,WSW,248,14.3,14.3,15,0.00,,---,0.00,VWS V14.01,2013-04-11 20:41:00,
2013-04-11 15:42:00,68.4,19.0,25.25,WSW,248,14.8,14.8,15,0.00,,---,0.00,VWS V14.01,2013-04-11 20:42:00,
2013-04-11 15:43:00,68.4,19.0,25.25,West,270,20.4,20.4,15,0.00,,---,0.00,VWS V14.01,2013-04-11 20:43:00,
2013-04-11 15:44:00,68.5,19.1,25.25,West,270,12.8,23.7,15,0.00,,---,0.00,VWS V14.01,2013-04-11 20:44:00,
2013-04-11 15:45:00,68.5,19.1,25.25,WSW,248,27.3,27.3,15,0.00,,---,0.00,VWS V14.01,2013-04-11 20:45:00,
2013-04-11 15:46:00,68.4,19.0,25.25,WSW,248,21.9,23.3,15,0.00,,---,0.00,VWS V14.01,2013-04-11 20:46:00,
2013-04-11 15:47:00,68.2,18.8,25.25,SW,225,21.9,28.4,15,0.00,,---,0.00,VWS V14.01,2013-04-11 20:47:00,
2013-04-11 15:48:00,68.4,19.0,25.25,WSW,248,17.5,21.9,15,0.00,,---,0.00,VWS V14.01,2013-04-11 20:48:00,
2013-04-11 15:49:00,68.2,18.8,25.25,SW,225,17.5,22.8,15,0.00,,---,0.00,VWS V14.01,2013-04-11 20:49:00,
2013-04-11 15:50:00,68.2,18.8,25.25,WSW,248,12.5,19.9,15,0.00,,---,0.00,VWS V14.01,2013-04-11 20:50:00,
2013-04-11 15:51:00,68.7,19.2,25.25,West,270,8.7,12.5,15,0.00,,---,0.00,VWS V14.01,2013-04-11 20:51:00,
2013-04-11 15:52:00,69.4,19.8,25.25,WSW,248,6.9,8.7,15,0.00,,---,0.00,VWS V14.01,2013-04-11 20:52:00,
2013-04-11 15:53:00,69.6,20.0,25.25,West,270,26.9,26.9,15,0.00,,---,0.00,VWS V14.01,2013-04-11 20:53:00,
2013-04-11 15:54:00,68.2,18.8,25.22,WNW,292,17.0,26.9,15,0.00,,---,0.00,VWS V14.01,2013-04-11 20:54:00,
2013-04-11 15:55:00,68.5,19.1,25.22,West,270,23.5,23.5,15,0.00,,---,0.00,VWS V14.01,2013-04-11 20:55:00,
2013-04-11 15:56:00,68.7,19.2,25.22,WSW,248,20.4,23.5,15,0.00,,---,0.00,VWS V14.01,2013-04-11 20:56:00,
2013-04-11 15:57:00,68.5,19.1,25.22,West,270,13.0,20.4,15,0.00,,---,0.00,VWS V14.01,2013-04-11 20:57:00,
2013-04-11 15:58:00,68.4,19.0,25.22,West,270,10.5,20.6,15,0.00,,---,0.00,VWS V14.01,2013-04-11 20:58:00,
2013-04-11 15:59:00,69.4,19.8,25.22,WNW,292,10.5,11.2,15,0.00,,---,0.00,VWS V14.01,2013-04-11 20:59:00,
2013-04-11 16:00:00,69.4,19.8,25.22,NW,315,15.2,15.2,15,0.00,,---,0.00,VWS V14.01,2013-04-11 21:00:00,
2013-04-11 16:01:00,69.4,19.8,25.22,WNW,292,10.5,15.2,15,0.00,,---,0.00,VWS V14.01,2013-04-11 21:01:00,
2013-04-11 16:02:00,69.4,19.8,25.22,WNW,292,12.3,12.3,15,0.00,,---,0.00,VWS V14.01,2013-04-11 21:02:00,
2013-04-11 16:03:00,69.4,19.8,25.22,WNW,292,17.7,17.7,15,0.00,,---,0.00,VWS V14.01,2013-04-11 21:03:00,
2013-04-11 16:04:00,71.1,19.5,25.22,WNW,292,9.2,17.7,14,0.00,,---,0.00,VWS V14.01,2013-04-11 21:04:00,
2013-04-11 16:05:00,71.1,19.5,25.22,West,270,12.3,12.5,14,0.00,,---,0.00,VWS V14.01,2013-04-11 21:05:00,
2013-04-11 16:06:00,70.9,19.4,25.22,NW,315,15.4,15.4,14,0.00,,---,0.00,VWS V14.01,2013-04-11 21:06:00,
2013-04-11 16:07:00,70.9,19.4,25.22,WNW,292,13.4,15.4,14,0.00,,---,0.00,VWS V14.01,2013-04-11 21:07:00,
2013-04-11 16:08:00,70.7,19.2,25.22,West,270,20.4,20.4,14,0.00,,---,0.00,VWS V14.01,2013-04-11 21:08:00,
2013-04-11 16:09:00,69.6,20.0,25.22,West,270,17.5,21.0,15,0.00,,---,0.00,VWS V14.01,2013-04-11 21:09:00,
2013-04-11 16:10:00,69.6,20.0,25.22,West,270,8.7,13.0,15,0.00,,---,0.00,VWS V14.01,2013-04-11 21:10:00,
2013-04-11 16:11:00,69.8,18.5,25.22,West,270,16.1,16.1,14,0.00,,---,0.00,VWS V14.01,2013-04-11 21:11:00,
2013-04-11 16:12:00,70.2,18.8,25.22,West,270,7.6,16.1,14,0.00,,---,0.00,VWS V14.01,2013-04-11 21:12:00,
2013-04-11 16:13:00,70.5,19.1,25.22,West,270,13.9,13.9,14,0.00,,---,0.00,VWS V14.01,2013-04-11 21:13:00,
2013-04-11 16:14:00,70.3,18.9,25.22,West,270,15.9,15.9,14,0.00,,---,0.00,VWS V14.01,2013-04-11 21:14:00,
2013-04-11 16:15:00,69.6,20.0,25.22,West,270,17.5,17.5,15,0.00,,---,0.00,VWS V14.01,2013-04-11 21:15:00,
2013-04-11 16:16:00,69.1,19.5,25.22,West,270,16.1,19.7,15,0.00,,---,0.00,VWS V14.01,2013-04-11 21:16:00,
2013-04-11 16:17:00,69.1,19.5,25.22,West,270,10.7,16.1,15,0.00,,---,0.00,VWS V14.01,2013-04-11 21:17:00,
2013-04-11 16:18:00,70.2,18.8,25.22,WNW,292,8.5,14.3,14,0.00,,---,0.00,VWS V14.01,2013-04-11 21:18:00,
2013-04-11 16:19:00,70.2,18.8,25.22,WSW,248,17.5,22.2,14,0.00,,---,0.00,VWS V14.01,2013-04-11 21:19:00,
2013-04-11 16:20:00,70.2,18.8,25.22,WSW,248,17.5,17.5,14,0.00,,---,0.00,VWS V14.01,2013-04-11 21:20:00,
2013-04-11 16:21:00,69.8,18.5,25.22,SW,225,10.1,17.5,14,0.00,,---,0.00,VWS V14.01,2013-04-11 21:21:00,
2013-04-11 16:22:00,69.8,18.5,25.22,WSW,248,14.1,14.1,14,0.00,,---,0.00,VWS V14.01,2013-04-11 21:22:00,
2013-04-11 16:23:00,70.0,18.6,25.22,West,270,11.0,15.2,14,0.00,,---,0.00,VWS V14.01,2013-04-11 21:23:00,
2013-04-11 16:24:00,70.0,18.6,25.22,WNW,292,11.0,12.3,14,0.00,,---,0.00,VWS V14.01,2013-04-11 21:24:00,
2013-04-11 16:25:00,70.0,18.6,25.22,West,270,16.1,16.1,14,0.00,,---,0.00,VWS V14.01,2013-04-11 21:25:00,
2013-04-11 16:26:00,69.1,19.5,25.22,WNW,292,11.0,16.1,15,0.00,,---,0.00,VWS V14.01,2013-04-11 21:26:00,
2013-04-11 16:27:00,70.2,18.8,25.22,WNW,292,13.0,13.4,14,0.00,,---,0.00,VWS V14.01,2013-04-11 21:27:00,
2013-04-11 16:28:00,70.2,18.8,25.22,WNW,292,8.5,13.0,14,0.00,,---,0.00,VWS V14.01,2013-04-11 21:28:00,
2013-04-11 16:29:00,70.0,18.6,25.22,WNW,292,12.3,12.8,14,0.00,,---,0.00,VWS V14.01,2013-04-11 21:29:00,
2013-04-11 16:30:00,70.0,18.6,25.22,WNW,292,12.8,19.2,14,0.00,,---,0.00,VWS V14.01,2013-04-11 21:30:00,
2013-04-11 16:31:00,70.0,18.6,25.22,West,270,23.7,23.7,14,0.00,,---,0.00,VWS V14.01,2013-04-11 21:31:00,
2013-04-11 16:32:00,68.4,19.0,25.22,West,270,22.2,25.3,15,0.00,,---,0.00,VWS V14.01,2013-04-11 21:32:00,
2013-04-11 16:33:00,68.4,19.0,25.22,West,270,14.1,22.8,15,0.00,,---,0.00,VWS V14.01,2013-04-11 21:33:00,
2013-04-11 16:34:00,68.7,19.2,25.22,West,270,14.8,14.8,15,0.00,,---,0.00,VWS V14.01,2013-04-11 21:34:00,
2013-04-11 16:35:00,68.9,19.4,25.22,West,270,11.4,15.7,15,0.00,,---,0.00,VWS V14.01,2013-04-11 21:35:00,
2013-04-11 16:36:00,69.6,20.0,25.22,West,270,9.8,12.3,15,0.00,,---,0.00,VWS V14.01,2013-04-11 21:36:00,
2013-04-11 16:37:00,69.8,18.5,25.22,West,270,11.0,13.2,14,0.00,,---,0.00,VWS V14.01,2013-04-11 21:37:00,
2013-04-11 16:38:00,69.8,18.5,25.22,WSW,248,9.8,13.0,14,0.00,,---,0.00,VWS V14.01,2013-04-11 21:38:00,
2013-04-11 16:39:00,69.8,18.5,25.22,WSW,248,12.3,12.3,14,0.00,,---,0.00,VWS V14.01,2013-04-11 21:39:00,
2013-04-11 16:40:00,69.6,20.0,25.22,WNW,292,7.8,7.8,15,0.00,,---,0.00,VWS V14.01,2013-04-11 21:40:00,
2013-04-11 16:41:00,70.2,18.8,25.22,West,270,5.8,7.8,14,0.00,,---,0.00,VWS V14.01,2013-04-11 21:41:00,
2013-04-11 16:42:00,70.7,19.2,25.22,West,270,8.7,8.7,14,0.00,,---,0.00,VWS V14.01,2013-04-11 21:42:00,
2013-04-11 16:43:00,70.5,19.1,25.22,WSW,248,6.5,9.2,14,0.00,,---,0.00,VWS V14.01,2013-04-11 21:43:00,
2013-04-11 16:44:00,70.9,19.4,25.22,SW,225,4.0,6.5,14,0.00,,---,0.00,VWS V14.01,2013-04-11 21:44:00,
2013-04-11 16:45:00,71.4,19.8,25.22,West,270,3.6,4.0,14,0.00,,---,0.00,VWS V14.01,2013-04-11 21:45:00,
2013-04-11 16:46:00,71.8,20.1,25.22,WSW,248,6.5,6.5,14,0.00,,---,0.00,VWS V14.01,2013-04-11 21:46:00,
2013-04-11 16:47:00,71.6,19.9,25.22,WSW,248,4.9,6.5,14,0.00,,---,0.00,VWS V14.01,2013-04-11 21:47:00,
2013-04-11 16:48:00,71.6,19.9,25.22,West,270,13.4,13.4,14,0.00,,---,0.00,VWS V14.01,2013-04-11 21:48:00,
2013-04-11 16:49:00,70.5,19.1,25.22,West,270,15.2,15.2,14,0.00,,---,0.00,VWS V14.01,2013-04-11 21:49:00,
2013-04-11 16:50:00,70.2,18.8,25.22,West,270,17.2,17.2,14,0.00,,---,0.00,VWS V14.01,2013-04-11 21:50:00,
2013-04-11 16:51:00,69.8,18.5,25.22,WSW,248,11.9,17.2,14,0.00,,---,0.00,VWS V14.01,2013-04-11 21:51:00,
2013-04-11 16:52:00,70.2,18.8,25.22,WNW,292,8.7,11.9,14,0.00,,---,0.00,VWS V14.01,2013-04-11 21:52:00,
2013-04-11 16:53:00,70.9,19.4,25.22,NW,315,5.8,8.7,14,0.00,,---,0.00,VWS V14.01,2013-04-11 21:53:00,
2013-04-11 16:54:00,70.5,19.1,25.19,WSW,248,14.8,26.6,14,0.00,,---,0.00,VWS V14.01,2013-04-11 21:54:00,
2013-04-11 16:55:00,70.0,18.6,25.19,WSW,248,13.2,15.9,14,0.00,,---,0.00,VWS V14.01,2013-04-11 21:55:00,
2013-04-11 16:56:00,70.0,18.6,25.19,SW,225,12.3,17.0,14,0.00,,---,0.00,VWS V14.01,2013-04-11 21:56:00,
2013-04-11 16:57:00,70.2,18.8,25.19,WSW,248,7.8,12.3,14,0.00,,---,0.00,VWS V14.01,2013-04-11 21:57:00,
2013-04-11 16:58:00,70.0,18.6,25.19,WSW,248,8.1,10.3,14,0.00,,---,0.00,VWS V14.01,2013-04-11 21:58:00,
2013-04-11 16:59:00,70.3,18.9,25.19,West,270,10.7,10.7,14,0.00,,---,0.00,VWS V14.01,2013-04-11 21:59:00,
2013-04-11 17:00:00,70.3,18.9,25.19,WNW,292,10.3,11.0,14,0.00,,---,0.00,VWS V14.01,2013-04-11 22:00:00,
2013-04-11 17:01:00,70.3,18.9,25.19,WNW,292,4.0,10.3,14,0.00,,---,0.00,VWS V14.01,2013-04-11 22:01:00,
2013-04-11 17:02:00,71.4,19.8,25.19,WNW,292,3.6,3.6,14,0.00,,---,0.00,VWS V14.01,2013-04-11 22:02:00,
2013-04-11 17:03:00,72.1,20.4,25.19,NW,315,6.0,6.3,14,0.00,,---,0.00,VWS V14.01,2013-04-11 22:03:00,
2013-04-11 17:04:00,72.1,20.4,25.19,NW,315,7.6,8.7,14,0.00,,---,0.00,VWS V14.01,2013-04-11 22:04:00,
2013-04-11 17:05:00,71.4,19.8,25.19,WNW,292,13.0,13.0,14,0.00,,---,0.00,VWS V14.01,2013-04-11 22:05:00,
2013-04-11 17:06:00,71.2,19.6,25.19,WNW,292,13.0,13.2,14,0.00,,---,0.00,VWS V14.01,2013-04-11 22:06:00,
2013-04-11 17:07:00,71.1,19.5,25.19,West,270,14.1,14.1,14,0.00,,---,0.00,VWS V14.01,2013-04-11 22:07:00,
2013-04-11 17:08:00,70.5,19.1,25.19,SW,225,8.5,14.1,14,0.00,,---,0.00,VWS V14.01,2013-04-11 22:08:00,
2013-04-11 17:09:00,70.5,19.1,25.22,SW,225,6.5,10.3,14,0.00,,---,0.00,VWS V14.01,2013-04-11 22:09:00,
2013-04-11 17:10:00,70.5,19.1,25.22,WNW,292,2.7,6.5,14,0.00,,---,0.00,VWS V14.01,2013-04-11 22:10:00,
2013-04-11 17:11:00,71.4,19.8,25.22,WSW,248,5.6,5.6,14,0.00,,---,0.00,VWS V14.01,2013-04-11 22:11:00,
2013-04-11 17:12:00,72.3,20.5,25.22,West,270,2.7,4.3,14,0.00,,---,0.00,VWS V14.01,2013-04-11 22:12:00,
2013-04-11 17:13:00,72.3,20.5,25.22,West,270,3.8,4.3,14,0.00,,---,0.00,VWS V14.01,2013-04-11 22:13:00,
2013-04-11 17:14:00,72.3,20.5,25.22,WSW,248,6.3,6.3,14,0.00,,---,0.00,VWS V14.01,2013-04-11 22:14:00,
2013-04-11 17:15:00,71.2,19.6,25.22,West,270,12.5,17.7,14,0.00,,---,0.00,VWS V14.01,2013-04-11 22:15:00,
2013-04-11 17:16:00,71.6,19.9,25.22,West,270,12.8,12.8,14,0.00,,---,0.00,VWS V14.01,2013-04-11 22:16:00,
2013-04-11 17:17:00,71.1,19.5,25.22,WNW,292,7.8,12.8,14,0.00,,---,0.00,VWS V14.01,2013-04-11 22:17:00,
2013-04-11 17:18:00,71.6,19.9,25.22,SW,225,8.1,8.1,14,0.00,,---,0.00,VWS V14.01,2013-04-11 22:18:00,
2013-04-11 17:19:00,71.6,19.9,25.22,West,270,12.1,13.9,14,0.00,,---,0.00,VWS V14.01,2013-04-11 22:19:00,
2013-04-11 17:20:00,71.1,19.5,25.22,West,270,7.6,12.3,14,0.00,,---,0.00,VWS V14.01,2013-04-11 22:20:00,
2013-04-11 17:21:00,70.9,19.4,25.22,West,270,7.4,9.6,14,0.00,,---,0.00,VWS V14.01,2013-04-11 22:21:00,
2013-04-11 17:22:00,70.5,19.1,25.22,West,270,12.5,13.2,14,0.00,,---,0.00,VWS V14.01,2013-04-11 22:22:00,
2013-04-11 17:23:00,70.3,18.9,25.22,West,270,12.8,14.5,14,0.00,,---,0.00,VWS V14.01,2013-04-11 22:23:00,
2013-04-11 17:24:00,70.0,18.6,25.19,West,270,7.4,12.8,14,0.00,,---,0.00,VWS V14.01,2013-04-11 22:24:00,
2013-04-11 17:25:00,70.5,19.1,25.19,WSW,248,10.3,10.3,14,0.00,,---,0.00,VWS V14.01,2013-04-11 22:25:00,
2013-04-11 17:26:00,70.5,19.1,25.19,SSW,202,9.2,10.3,14,0.00,,---,0.00,VWS V14.01,2013-04-11 22:26:00,
2013-04-11 17:27:00,70.2,18.8,25.19,WSW,248,11.0,12.3,14,0.00,,---,0.00,VWS V14.01,2013-04-11 22:27:00,
2013-04-11 17:28:00,70.2,18.8,25.19,WSW,248,8.7,11.0,14,0.00,,---,0.00,VWS V14.01,2013-04-11 22:28:00,
2013-04-11 17:29:00,70.2,18.8,25.19,WSW,248,7.6,8.7,14,0.00,,---,0.00,VWS V14.01,2013-04-11 22:29:00,
2013-04-11 17:30:00,70.2,18.8,25.19,SW,225,6.5,7.6,14,0.00,,---,0.00,VWS V14.01,2013-04-11 22:30:00,
2013-04-11 17:31:00,70.9,19.4,25.19,West,270,4.0,7.6,14,0.00,,---,0.00,VWS V14.01,2013-04-11 22:31:00,
2013-04-11 17:32:00,71.1,19.5,25.19,West,270,11.0,11.0,14,0.00,,---,0.00,VWS V14.01,2013-04-11 22:32:00,
2013-04-11 17:33:00,71.1,19.5,25.19,WNW,292,8.7,11.0,14,0.00,,---,0.00,VWS V14.01,2013-04-11 22:33:00,
2013-04-11 17:34:00,70.9,19.4,25.19,WNW,292,10.7,14.5,14,0.00,,---,0.00,VWS V14.01,2013-04-11 22:34:00,
2013-04-11 17:35:00,70.7,19.2,25.19,NW,315,8.5,10.7,14,0.00,,---,0.00,VWS V14.01,2013-04-11 22:35:00,
2013-04-11 17:36:00,70.7,19.2,25.19,NW,315,8.7,11.0,14,0.00,,---,0.00,VWS V14.01,2013-04-11 22:36:00,
2013-04-11 17:37:00,71.1,19.5,25.19,West,270,10.7,10.7,14,0.00,,---,0.00,VWS V14.01,2013-04-11 22:37:00,
2013-04-11 17:38:00,70.2,18.8,25.19,West,270,11.0,11.0,14,0.00,,---,0.00,VWS V14.01,2013-04-11 22:38:00,
2013-04-11 17:39:00,70.2,18.8,25.22,West,270,11.0,11.0,14,0.00,,---,0.00,VWS V14.01,2013-04-11 22:39:00,
2013-04-11 17:40:00,70.2,18.8,25.22,West,270,7.4,11.4,14,0.00,,---,0.00,VWS V14.01,2013-04-11 22:40:00,
2013-04-11 17:41:00,70.5,19.1,25.22,WNW,292,8.5,9.0,14,0.00,,---,0.00,VWS V14.01,2013-04-11 22:41:00,
2013-04-11 17:42:00,70.7,19.2,25.22,NNW,338,2.9,8.5,14,0.00,,---,0.00,VWS V14.01,2013-04-11 22:42:00,
2013-04-11 17:43:00,71.4,19.8,25.22,NNW,338,4.3,4.3,14,0.00,,---,0.00,VWS V14.01,2013-04-11 22:43:00,
2013-04-11 17:44:00,72.0,20.2,25.22,WNW,292,2.5,4.3,14,0.00,,---,0.00,VWS V14.01,2013-04-11 22:44:00,
2013-04-11 17:45:00,71.6,19.9,25.22,West,270,8.7,10.3,14,0.00,,---,0.00,VWS V14.01,2013-04-11 22:45:00,
2013-04-11 17:46:00,70.7,19.2,25.22,West,270,10.5,10.5,14,0.00,,---,0.00,VWS V14.01,2013-04-11 22:46:00,
2013-04-11 17:47:00,70.9,19.4,25.22,West,270,6.3,10.5,14,0.00,,---,0.00,VWS V14.01,2013-04-11 22:47:00,
2013-04-11 17:49:00,70.5,19.1,25.22,West,270,6.0,6.3,14,0.00,,---,0.00,VWS V14.01,2013-04-11 22:49:00,
2013-04-11 17:50:00,70.5,19.1,25.22,West,270,7.6,7.6,14,0.00,,---,0.00,VWS V14.01,2013-04-11 22:50:00,
2013-04-11 17:51:00,70.9,19.4,25.22,West,270,10.1,10.1,14,0.00,,---,0.00,VWS V14.01,2013-04-11 22:51:00,
2013-04-11 17:52:00,71.4,19.8,25.22,WNW,292,5.8,10.1,14,0.00,,---,0.00,VWS V14.01,2013-04-11 22:52:00,
2013-04-11 17:53:00,71.6,19.9,25.22,WNW,292,3.6,5.8,14,0.00,,---,0.00,VWS V14.01,2013-04-11 22:53:00,
2013-04-11 17:54:00,72.0,20.2,25.22,WSW,248,5.6,5.6,14,0.00,,---,0.00,VWS V14.01,2013-04-11 22:54:00,
2013-04-11 17:55:00,71.1,19.5,25.22,West,270,9.6,9.6,14,0.00,,---,0.00,VWS V14.01,2013-04-11 22:55:00,
2013-04-11 17:56:00,71.1,19.5,25.22,SW,225,6.5,12.5,14,0.00,,---,0.00,VWS V14.01,2013-04-11 22:56:00,
2013-04-11 17:57:00,70.9,19.4,25.22,SW,225,3.4,6.5,14,0.00,,---,0.00,VWS V14.01,2013-04-11 22:57:00,
2013-04-11 17:58:00,71.1,19.5,25.22,SW,225,2.0,3.4,14,0.00,,---,0.00,VWS V14.01,2013-04-11 22:58:00,
2013-04-11 17:59:00,71.1,19.5,25.22,WNW,292,2.7,2.7,14,0.00,,---,0.00,VWS V14.01,2013-04-11 22:59:00,
2013-04-11 18:00:00,72.0,20.2,25.22,NNE,22,4.3,4.3,14,0.00,,---,0.00,VWS V14.01,2013-04-11 23:00:00,
2013-04-11 18:01:00,72.0,20.2,25.22,ENE,68,3.8,4.3,14,0.00,,---,0.00,VWS V14.01,2013-04-11 23:01:00,
2013-04-11 18:02:00,72.0,20.2,25.22,West,270,7.6,7.6,14,0.00,,---,0.00,VWS V14.01,2013-04-11 23:02:00,
2013-04-11 18:03:00,72.0,20.2,25.22,SSW,202,1.3,7.6,14,0.00,,---,0.00,VWS V14.01,2013-04-11 23:03:00,
2013-04-11 18:04:00,72.1,20.4,25.22,West,270,4.0,4.0,14,0.00,,---,0.00,VWS V14.01,2013-04-11 23:04:00,
2013-04-11 18:05:00,72.0,20.2,25.22,West,270,3.8,4.0,14,0.00,,---,0.00,VWS V14.01,2013-04-11 23:05:00,
2013-04-11 18:06:00,72.0,20.2,25.22,West,270,3.8,3.8,14,0.00,,---,0.00,VWS V14.01,2013-04-11 23:06:00,
2013-04-11 18:07:00,71.6,19.9,25.22,WNW,292,7.4,8.1,14,0.00,,---,0.00,VWS V14.01,2013-04-11 23:07:00,
2013-04-11 18:08:00,72.0,20.2,25.22,NW,315,7.6,7.6,14,0.00,,---,0.00,VWS V14.01,2013-04-11 23:08:00,
2013-04-11 18:09:00,71.6,19.9,25.22,WNW,292,6.5,7.6,14,0.00,,---,0.00,VWS V14.01,2013-04-11 23:09:00,
2013-04-11 18:10:00,71.4,19.8,25.22,SW,225,6.5,11.2,14,0.00,,---,0.00,VWS V14.01,2013-04-11 23:10:00,
2013-04-11 18:11:00,71.1,19.5,25.22,SW,225,6.7,6.7,14,0.00,,---,0.00,VWS V14.01,2013-04-11 23:11:00,
2013-04-11 18:12:00,70.9,19.4,25.22,West,270,7.6,7.6,14,0.00,,---,0.00,VWS V14.01,2013-04-11 23:12:00,
2013-04-11 18:13:00,70.9,19.4,25.22,NNW,338,6.5,8.5,14,0.00,,---,0.00,VWS V14.01,2013-04-11 23:13:00,
2013-04-11 18:14:00,71.1,19.5,25.22,NW,315,6.0,6.5,14,0.00,,---,0.00,VWS V14.01,2013-04-11 23:14:00,
2013-04-11 18:15:00,71.2,19.6,25.22,NW,315,6.0,7.8,14,0.00,,---,0.00,VWS V14.01,2013-04-11 23:15:00,
2013-04-11 18:16:00,70.9,19.4,25.22,WNW,292,6.0,8.7,14,0.00,,---,0.00,VWS V14.01,2013-04-11 23:16:00,
2013-04-11 18:17:00,70.9,19.4,25.22,WNW,292,7.6,8.5,14,0.00,,---,0.00,VWS V14.01,2013-04-11 23:17:00,
2013-04-11 18:18:00,70.9,19.4,25.22,WNW,292,6.0,7.6,14,0.00,,---,0.00,VWS V14.01,2013-04-11 23:18:00,
2013-04-11 18:19:00,70.7,19.2,25.22,WNW,292,12.5,12.5,14,0.00,,---,0.00,VWS V14.01,2013-04-11 23:19:00,
2013-04-11 18:20:00,70.3,18.9,25.22,WNW,292,10.7,12.5,14,0.00,,---,0.00,VWS V14.01,2013-04-11 23:20:00,
2013-04-11 18:21:00,70.5,19.1,25.22,WNW,292,7.8,10.7,14,0.00,,---,0.00,VWS V14.01,2013-04-11 23:21:00,
2013-04-11 18:22:00,69.8,18.5,25.22,WNW,292,10.1,10.1,14,0.00,,---,0.00,VWS V14.01,2013-04-11 23:22:00,
2013-04-11 18:23:00,69.8,18.5,25.22,West,270,8.1,10.7,14,0.00,,---,0.00,VWS V14.01,2013-04-11 23:23:00,
2013-04-11 18:24:00,70.0,18.6,25.22,West,270,6.5,8.1,14,0.00,,---,0.00,VWS V14.01,2013-04-11 23:24:00,
2013-04-11 18:27:00,70.2,18.8,25.22,WNW,292,8.7,10.1,14,0.00,,---,0.00,VWS V14.01,2013-04-11 23:27:00,
2013-04-11 18:28:00,69.4,19.8,25.22,WNW,292,8.7,8.7,15,0.00,,---,0.00,VWS V14.01,2013-04-11 23:28:00,
2013-04-11 18:29:00,69.6,20.0,25.22,WNW,292,5.8,8.7,15,0.00,,---,0.00,VWS V14.01,2013-04-11 23:29:00,
2013-04-11 18:30:00,69.6,20.0,25.22,West,270,4.7,6.0,15,0.00,,---,0.00,VWS V14.01,2013-04-11 23:30:00,
2013-04-11 18:31:00,69.8,18.5,25.22,WSW,248,4.0,5.4,14,0.00,,---,0.00,VWS V14.01,2013-04-11 23:31:00,
2013-04-11 18:32:00,69.6,20.0,25.22,West,270,7.2,7.2,15,0.00,,---,0.00,VWS V14.01,2013-04-11 23:32:00,
2013-04-11 18:33:00,69.4,19.8,25.22,West,270,12.1,12.1,15,0.00,,---,0.00,VWS V14.01,2013-04-11 23:33:00,
2013-04-11 18:34:00,69.4,19.8,25.22,West,270,8.1,12.1,15,0.00,,---,0.00,VWS V14.01,2013-04-11 23:34:00,
2013-04-11 18:35:00,69.4,19.8,25.22,WNW,292,7.8,8.1,15,0.00,,---,0.00,VWS V14.01,2013-04-11 23:35:00,
2013-04-11 18:36:00,69.4,19.8,25.22,West,270,5.4,7.8,15,0.00,,---,0.00,VWS V14.01,2013-04-11 23:36:00,
2013-04-11 18:37:00,69.4,19.8,25.22,WNW,292,6.5,6.5,15,0.00,,---,0.00,VWS V14.01,2013-04-11 23:37:00,
2013-04-11 18:38:00,69.6,20.0,25.22,West,270,6.0,6.9,15,0.00,,---,0.00,VWS V14.01,2013-04-11 23:38:00,
2013-04-11 18:39:00,69.6,20.0,25.22,WNW,292,4.3,4.3,15,0.00,,---,0.00,VWS V14.01,2013-04-11 23:39:00,
2013-04-11 18:40:00,69.6,20.0,25.22,West,270,5.6,5.6,15,0.00,,---,0.00,VWS V14.01,2013-04-11 23:40:00,
2013-04-11 18:41:00,69.4,19.8,25.22,NW,315,6.0,6.0,15,0.00,,---,0.00,VWS V14.01,2013-04-11 23:41:00,
2013-04-11 18:42:00,69.6,20.0,25.22,WNW,292,3.8,6.0,15,0.00,,---,0.00,VWS V14.01,2013-04-11 23:42:00,
2013-04-11 18:43:00,69.6,20.0,25.22,WNW,292,4.3,4.3,15,0.00,,---,0.00,VWS V14.01,2013-04-11 23:43:00,
2013-04-11 18:44:00,69.6,20.0,25.22,NNW,338,5.4,5.8,15,0.00,,---,0.00,VWS V14.01,2013-04-11 23:44:00,
2013-04-11 18:45:00,69.6,20.0,25.22,NW,315,4.9,5.4,15,0.00,,---,0.00,VWS V14.01,2013-04-11 23:45:00,
2013-04-11 18:46:00,69.6,20.0,25.22,NW,315,4.9,5.6,15,0.00,,---,0.00,VWS V14.01,2013-04-11 23:46:00,
2013-04-11 18:47:00,69.6,20.0,25.22,NW,315,3.6,4.9,15,0.00,,---,0.00,VWS V14.01,2013-04-11 23:47:00,
2013-04-11 18:48:00,69.6,20.0,25.22,WNW,292,7.2,7.2,15,0.00,,---,0.00,VWS V14.01,2013-04-11 23:48:00,
2013-04-11 18:49:00,69.4,19.8,25.22,NW,315,5.8,7.2,15,0.00,,---,0.00,VWS V14.01,2013-04-11 23:49:00,
2013-04-11 18:50:00,69.4,19.8,25.22,NNW,338,3.8,5.8,15,0.00,,---,0.00,VWS V14.01,2013-04-11 23:50:00,
2013-04-11 18:51:00,69.4,19.8,25.22,WNW,292,2.9,3.8,15,0.00,,---,0.00,VWS V14.01,2013-04-11 23:51:00,
2013-04-11 18:52:00,69.4,19.8,25.22,West,270,2.9,3.8,15,0.00,,---,0.00,VWS V14.01,2013-04-11 23:52:00,
2013-04-11 18:53:00,69.6,20.0,25.22,West,270,2.2,2.9,15,0.00,,---,0.00,VWS V14.01,2013-04-11 23:53:00,
2013-04-11 18:54:00,69.6,20.0,25.22,WNW,292,2.0,2.2,15,0.00,,---,0.00,VWS V14.01,2013-04-11 23:54:00,
2013-04-11 18:55:00,69.6,20.0,25.22,WNW,292,0.0,2.7,15,0.00,,---,0.00,VWS V14.01,2013-04-11 23:55:00,
2013-04-11 18:56:00,69.6,20.0,25.22,NW,315,2.7,2.7,15,0.00,,---,0.00,VWS V14.01,2013-04-11 23:56:00,
2013-04-11 18:57:00,69.6,20.0,25.22,WNW,292,2.9,3.4,15,0.00,,---,0.00,VWS V14.01,2013-04-11 23:57:00,
2013-04-11 18:58:00,69.8,18.5,25.22,NW,315,3.4,3.4,14,0.00,,---,0.00,VWS V14.01,2013-04-11 23:58:00,
2013-04-11 18:59:00,69.8,18.5,25.22,West,270,3.1,3.8,14,0.00,,---,0.00,VWS V14.01,2013-04-11 23:59:00,
2013-04-11 19:00:00,69.4,19.8,25.22,West,270,3.1,3.1,15,0.00,,---,0.00,VWS V14.01,2013-04-12 00:00:00,
2013-04-11 19:01:00,69.4,19.8,25.22,West,270,3.1,3.1,15,0.00,,---,0.00,VWS V14.01,2013-04-12 00:01:00,
2013-04-11 19:02:00,69.4,19.8,25.22,West,270,3.1,3.1,15,0.00,,---,0.00,VWS V14.01,2013-04-12 00:02:00,
2013-04-11 19:03:00,69.4,19.8,25.22,West,270,1.1,1.1,15,0.00,,---,0.00,VWS V14.01,2013-04-12 00:03:00,
2013-04-11 19:04:00,69.3,19.7,25.22,West,270,1.1,1.1,15,0.00,,---,0.00,VWS V14.01,2013-04-12 00:04:00,
2013-04-11 19:05:00,69.1,19.5,25.22,West,270,2.5,2.5,15,0.00,,---,0.00,VWS V14.01,2013-04-12 00:05:00,
2013-04-11 19:06:00,69.1,19.5,25.22,West,270,2.5,2.5,15,0.00,,---,0.00,VWS V14.01,2013-04-12 00:06:00,
2013-04-11 19:07:00,69.1,19.5,25.22,West,270,2.7,2.7,15,0.00,,---,0.00,VWS V14.01,2013-04-12 00:07:00,
2013-04-11 19:08:00,69.1,19.5,25.22,West,270,2.7,2.7,15,0.00,,---,0.00,VWS V14.01,2013-04-12 00:08:00,
2013-04-11 19:10:00,69.1,19.5,25.22,West,270,2.7,2.7,15,0.00,,---,0.00,VWS V14.01,2013-04-12 00:10:00,
2013-04-11 19:11:00,68.7,19.2,25.22,West,270,1.3,2.7,15,0.00,,---,0.00,VWS V14.01,2013-04-12 00:11:00,
2013-04-11 19:13:00,68.5,19.1,25.22,West,270,3.4,3.4,15,0.00,,---,0.00,VWS V14.01,2013-04-12 00:13:00,
2013-04-11 19:14:00,68.5,19.1,25.22,West,270,3.4,3.4,15,0.00,,---,0.00,VWS V14.01,2013-04-12 00:14:00,
2013-04-11 19:15:00,67.8,18.5,25.22,West,270,2.2,3.4,15,0.00,,---,0.00,VWS V14.01,2013-04-12 00:15:00,
2013-04-11 19:16:00,67.8,18.5,25.22,West,270,3.4,3.4,15,0.00,,---,0.00,VWS V14.01,2013-04-12 00:16:00,
2013-04-11 19:17:00,67.6,18.4,25.22,West,270,3.4,3.4,15,0.00,,---,0.00,VWS V14.01,2013-04-12 00:17:00,
2013-04-11 19:18:00,67.5,18.2,25.22,WSW,248,2.9,3.4,15,0.00,,---,0.00,VWS V14.01,2013-04-12 00:18:00,
2013-04-11 19:19:00,67.5,18.2,25.22,WSW,248,2.9,2.9,15,0.00,,---,0.00,VWS V14.01,2013-04-12 00:19:00,
2013-04-11 19:20:00,67.1,17.9,25.22,WSW,248,2.9,2.9,15,0.00,,---,0.00,VWS V14.01,2013-04-12 00:20:00,
2013-04-11 19:21:00,67.1,17.9,25.22,WSW,248,2.5,2.9,15,0.00,,---,0.00,VWS V14.01,2013-04-12 00:21:00,
2013-04-11 19:22:00,66.9,17.8,25.22,WSW,248,2.7,2.7,15,0.00,,---,0.00,VWS V14.01,2013-04-12 00:22:00,
2013-04-11 19:23:00,66.6,17.5,25.22,SW,225,3.1,3.1,15,0.00,,---,0.00,VWS V14.01,2013-04-12 00:23:00,
2013-04-11 19:24:00,66.6,17.5,25.22,SW,225,3.4,3.4,15,0.00,,---,0.00,VWS V14.01,2013-04-12 00:24:00,
2013-04-11 19:25:00,66.2,17.2,25.22,SW,225,3.8,3.8,15,0.00,,---,0.00,VWS V14.01,2013-04-12 00:25:00,
2013-04-11 19:26:00,66.0,17.1,25.22,SW,225,3.6,3.8,15,0.00,,---,0.00,VWS V14.01,2013-04-12 00:26:00,
2013-04-11 19:27:00,65.8,16.9,25.22,SW,225,3.6,3.8,15,0.00,,---,0.00,VWS V14.01,2013-04-12 00:27:00,
2013-04-11 19:28:00,65.5,16.6,25.22,SSW,202,3.4,3.4,15,0.00,,---,0.00,VWS V14.01,2013-04-12 00:28:00,
2013-04-11 19:29:00,65.3,16.5,25.22,SSW,202,3.4,3.4,15,0.00,,---,0.00,VWS V14.01,2013-04-12 00:29:00,
2013-04-11 19:30:00,65.1,16.4,25.22,SW,225,3.1,3.4,15,0.00,,---,0.00,VWS V14.01,2013-04-12 00:30:00,
2013-04-11 19:31:00,65.1,16.4,25.22,SW,225,4.3,4.5,15,0.00,,---,0.00,VWS V14.01,2013-04-12 00:31:00,
2013-04-11 19:32:00,64.6,15.9,25.22,SW,225,3.8,3.8,15,0.00,,---,0.00,VWS V14.01,2013-04-12 00:32:00,
2013-04-11 19:33:00,64.2,17.1,25.22,SW,225,3.8,3.8,16,0.00,,---,0.00,VWS V14.01,2013-04-12 00:33:00,
2013-04-11 19:34:00,64.2,17.1,25.22,SW,225,3.8,4.3,16,0.00,,---,0.00,VWS V14.01,2013-04-12 00:34:00,
2013-04-11 19:35:00,63.7,16.7,25.22,SSW,202,4.0,4.0,16,0.00,,---,0.00,VWS V14.01,2013-04-12 00:35:00,
2013-04-11 19:36:00,63.5,16.5,25.22,SW,225,4.9,4.9,16,0.00,,---,0.00,VWS V14.01,2013-04-12 00:36:00,
2013-04-11 19:37:00,63.3,16.4,25.22,SW,225,4.9,4.9,16,0.00,,---,0.00,VWS V14.01,2013-04-12 00:37:00,
2013-04-11 19:38:00,63.1,16.2,25.22,SW,225,4.5,5.4,16,0.00,,---,0.00,VWS V14.01,2013-04-12 00:38:00,
2013-04-11 19:39:00,63.0,16.1,25.22,SW,225,4.9,4.9,16,0.00,,---,0.00,VWS V14.01,2013-04-12 00:39:00,
2013-04-11 19:40:00,62.8,15.9,25.22,SW,225,4.5,4.9,16,0.00,,---,0.00,VWS V14.01,2013-04-12 00:40:00,
2013-04-11 19:41:00,62.6,15.8,25.22,SW,225,3.8,4.9,16,0.00,,---,0.00,VWS V14.01,2013-04-12 00:41:00,
2013-04-11 19:42:00,62.4,15.7,25.22,SW,225,4.0,4.0,16,0.00,,---,0.00,VWS V14.01,2013-04-12 00:42:00,
2013-04-11 19:43:00,62.4,15.7,25.22,SW,225,4.3,4.3,16,0.00,,---,0.00,VWS V14.01,2013-04-12 00:43:00,
2013-04-11 19:44:00,62.1,15.4,25.22,SW,225,4.0,4.3,16,0.00,,---,0.00,VWS V14.01,2013-04-12 00:44:00,
2013-04-11 19:45:00,62.1,15.4,25.22,SW,225,4.0,4.0,16,0.00,,---,0.00,VWS V14.01,2013-04-12 00:45:00,
2013-04-11 19:46:00,62.1,15.4,25.22,SW,225,4.0,4.0,16,0.00,,---,0.00,VWS V14.01,2013-04-12 00:46:00,
2013-04-11 19:47:00,62.1,15.4,25.22,SW,225,4.0,4.0,16,0.00,,---,0.00,VWS V14.01,2013-04-12 00:47:00,
2013-04-11 19:49:00,62.1,15.4,25.22,SW,225,4.0,4.0,16,0.00,,---,0.00,VWS V14.01,2013-04-12 00:49:00,
2013-04-11 19:50:00,61.7,15.1,25.22,SSW,202,3.1,3.1,16,0.00,,---,0.00,VWS V14.01,2013-04-12 00:50:00,
2013-04-11 19:51:00,61.7,15.1,25.22,SSW,202,3.1,3.1,16,0.00,,---,0.00,VWS V14.01,2013-04-12 00:51:00,
2013-04-11 19:52:00,61.3,14.8,25.22,SSW,202,3.1,3.1,16,0.00,,---,0.00,VWS V14.01,2013-04-12 00:52:00,
2013-04-11 19:53:00,61.3,14.8,25.22,SSW,202,3.1,3.1,16,0.00,,---,0.00,VWS V14.01,2013-04-12 00:53:00,
2013-04-11 19:55:00,61.0,14.5,25.25,SSW,202,3.1,3.1,16,0.00,,---,0.00,VWS V14.01,2013-04-12 00:55:00,
2013-04-11 19:56:00,60.6,15.6,25.25,SSW,202,3.6,3.8,17,0.00,,---,0.00,VWS V14.01,2013-04-12 00:56:00,
2013-04-11 19:57:00,60.3,15.3,25.25,SSW,202,4.0,4.0,17,0.00,,---,0.00,VWS V14.01,2013-04-12 00:57:00,
2013-04-11 19:58:00,60.1,15.1,25.25,SSW,202,4.9,4.9,17,0.00,,---,0.00,VWS V14.01,2013-04-12 00:58:00,
2013-04-11 19:59:00,60.1,15.1,25.25,SSW,202,4.9,4.9,17,0.00,,---,0.00,VWS V14.01,2013-04-12 00:59:00,
2013-04-11 20:00:00,60.1,15.1,25.25,SSW,202,4.3,4.9,17,0.00,,---,0.00,VWS V14.01,2013-04-12 01:00:00,
2013-04-11 20:01:00,59.7,14.9,25.25,SSW,202,4.3,4.3,17,0.00,,---,0.00,VWS V14.01,2013-04-12 01:01:00,
2013-04-11 20:02:00,59.4,14.6,25.25,SSW,202,4.3,4.3,17,0.00,,---,0.00,VWS V14.01,2013-04-12 01:02:00,
2013-04-11 20:03:00,59.2,14.4,25.25,SSW,202,4.3,4.3,17,0.00,,---,0.00,VWS V14.01,2013-04-12 01:03:00,
2013-04-11 20:04:00,59.2,14.4,25.25,SSW,202,4.3,4.3,17,0.00,,---,0.00,VWS V14.01,2013-04-12 01:04:00,
2013-04-11 20:05:00,59.2,14.4,25.25,SSW,202,4.3,4.3,17,0.00,,---,0.00,VWS V14.01,2013-04-12 01:05:00,
2013-04-11 20:06:00,59.4,14.6,25.25,SSW,202,4.3,4.3,17,0.00,,---,0.00,VWS V14.01,2013-04-12 01:06:00,
2013-04-11 20:07:00,59.4,14.6,25.25,SSW,202,3.4,4.3,17,0.00,,---,0.00,VWS V14.01,2013-04-12 01:07:00,
2013-04-11 20:08:00,59.4,14.6,25.25,SSW,202,2.9,3.4,17,0.00,,---,0.00,VWS V14.01,2013-04-12 01:08:00,
2013-04-11 20:09:00,59.4,14.6,25.25,SSW,202,4.3,4.3,17,0.00,,---,0.00,VWS V14.01,2013-04-12 01:09:00,
2013-04-11 20:10:00,59.7,14.9,25.25,SSW,202,4.3,4.3,17,0.00,,---,0.00,VWS V14.01,2013-04-12 01:10:00,
2013-04-11 20:11:00,59.7,14.9,25.25,SSW,202,4.3,4.3,17,0.00,,---,0.00,VWS V14.01,2013-04-12 01:11:00,
2013-04-11 20:12:00,59.5,14.7,25.25,SSW,202,4.0,4.3,17,0.00,,---,0.00,VWS V14.01,2013-04-12 01:12:00,
2013-04-11 20:13:00,59.5,14.7,25.25,SSW,202,4.0,4.0,17,0.00,,---,0.00,VWS V14.01,2013-04-12 01:13:00,
2013-04-11 20:14:00,59.4,14.6,25.25,SSW,202,4.0,4.0,17,0.00,,---,0.00,VWS V14.01,2013-04-12 01:14:00,
2013-04-11 20:15:00,59.2,14.4,25.25,SSW,202,3.8,4.0,17,0.00,,---,0.00,VWS V14.01,2013-04-12 01:15:00,
2013-04-11 20:16:00,59.0,14.3,25.25,SSW,202,3.8,3.8,17,0.00,,---,0.00,VWS V14.01,2013-04-12 01:16:00,
2013-04-11 20:17:00,59.0,14.3,25.25,SSW,202,3.1,3.8,17,0.00,,---,0.00,VWS V14.01,2013-04-12 01:17:00,
2013-04-11 20:18:00,58.8,14.1,25.25,SSW,202,3.1,3.1,17,0.00,,---,0.00,VWS V14.01,2013-04-12 01:18:00,
2013-04-11 20:19:00,58.8,14.1,25.25,SSW,202,3.1,3.1,17,0.00,,---,0.00,VWS V14.01,2013-04-12 01:19:00,
2013-04-11 20:20:00,58.6,14.0,25.25,SSW,202,4.0,4.0,17,0.00,,---,0.00,VWS V14.01,2013-04-12 01:20:00,
2013-04-11 20:21:00,58.6,14.0,25.25,SSW,202,4.0,4.0,17,0.00,,---,0.00,VWS V14.01,2013-04-12 01:21:00,
2013-04-11 20:22:00,58.6,14.0,25.25,SSW,202,4.0,4.0,17,0.00,,---,0.00,VWS V14.01,2013-04-12 01:22:00,
2013-04-11 20:23:00,58.5,13.8,25.25,SSW,202,3.1,4.0,17,0.00,,---,0.00,VWS V14.01,2013-04-12 01:23:00,
2013-04-11 20:24:00,58.3,13.7,25.25,SSW,202,3.1,3.1,17,0.00,,---,0.00,VWS V14.01,2013-04-12 01:24:00,
2013-04-11 20:25:00,58.3,13.7,25.25,SSW,202,3.1,3.1,17,0.00,,---,0.00,VWS V14.01,2013-04-12 01:25:00,
2013-04-11 20:26:00,58.3,13.7,25.25,SSW,202,3.1,3.1,17,0.00,,---,0.00,VWS V14.01,2013-04-12 01:26:00,
2013-04-11 20:27:00,58.3,13.7,25.25,SSW,202,3.4,3.4,17,0.00,,---,0.00,VWS V14.01,2013-04-12 01:27:00,
2013-04-11 20:28:00,58.3,13.7,25.25,SSW,202,3.4,3.4,17,0.00,,---,0.00,VWS V14.01,2013-04-12 01:28:00,
2013-04-11 20:29:00,58.3,13.7,25.25,SSW,202,3.4,3.4,17,0.00,,---,0.00,VWS V14.01,2013-04-12 01:29:00,
2013-04-11 20:30:00,58.5,13.8,25.25,SSW,202,3.4,3.4,17,0.00,,---,0.00,VWS V14.01,2013-04-12 01:30:00,
2013-04-11 20:31:00,58.3,13.7,25.25,SSW,202,3.4,3.4,17,0.00,,---,0.00,VWS V14.01,2013-04-12 01:31:00,
2013-04-11 20:32:00,58.3,13.7,25.25,SSW,202,3.4,3.4,17,0.00,,---,0.00,VWS V14.01,2013-04-12 01:32:00,
2013-04-11 20:33:00,58.3,13.7,25.25,SSW,202,3.4,3.4,17,0.00,,---,0.00,VWS V14.01,2013-04-12 01:33:00,
2013-04-11 20:34:00,58.1,13.5,25.25,South,180,4.0,4.0,17,0.00,,---,0.00,VWS V14.01,2013-04-12 01:34:00,
2013-04-11 20:35:00,57.9,13.4,25.25,South,180,4.0,4.0,17,0.00,,---,0.00,VWS V14.01,2013-04-12 01:35:00,
2013-04-11 20:36:00,57.9,13.4,25.25,South,180,4.0,4.0,17,0.00,,---,0.00,VWS V14.01,2013-04-12 01:36:00,
2013-04-11 20:37:00,57.9,13.4,25.25,South,180,4.0,4.0,17,0.00,,---,0.00,VWS V14.01,2013-04-12 01:37:00,
2013-04-11 20:38:00,57.7,13.2,25.25,South,180,4.0,4.0,17,0.00,,---,0.00,VWS V14.01,2013-04-12 01:38:00,
2013-04-11 20:39:00,57.6,13.1,25.25,South,180,4.0,4.0,17,0.00,,---,0.00,VWS V14.01,2013-04-12 01:39:00,
2013-04-11 20:40:00,57.6,13.1,25.25,South,180,4.0,4.0,17,0.00,,---,0.00,VWS V14.01,2013-04-12 01:40:00,
2013-04-11 20:41:00,57.6,13.1,25.25,SSW,202,3.6,4.0,17,0.00,,---,0.00,VWS V14.01,2013-04-12 01:41:00,
2013-04-11 20:42:00,57.6,13.1,25.25,SSW,202,3.6,3.6,17,0.00,,---,0.00,VWS V14.01,2013-04-12 01:42:00,
2013-04-11 20:43:00,57.4,12.9,25.25,SSW,202,3.4,3.6,17,0.00,,---,0.00,VWS V14.01,2013-04-12 01:43:00,
2013-04-11 20:44:00,57.6,13.1,25.25,SSW,202,3.4,3.4,17,0.00,,---,0.00,VWS V14.01,2013-04-12 01:44:00,
2013-04-11 20:45:00,57.4,12.9,25.25,SSW,202,4.0,4.0,17,0.00,,---,0.00,VWS V14.01,2013-04-12 01:45:00,
2013-04-11 20:46:00,57.2,12.8,25.25,SSW,202,4.0,4.0,17,0.00,,---,0.00,VWS V14.01,2013-04-12 01:46:00,
2013-04-11 20:47:00,57.2,12.8,25.25,SSW,202,4.0,4.0,17,0.00,,---,0.00,VWS V14.01,2013-04-12 01:47:00,
2013-04-11 20:48:00,57.2,12.8,25.25,SSW,202,4.0,4.0,17,0.00,,---,0.00,VWS V14.01,2013-04-12 01:48:00,
2013-04-11 20:49:00,57.0,12.7,25.25,SSW,202,3.4,4.0,17,0.00,,---,0.00,VWS V14.01,2013-04-12 01:49:00,
2013-04-11 20:50:00,57.0,12.7,25.25,SSW,202,3.4,3.4,17,0.00,,---,0.00,VWS V14.01,2013-04-12 01:50:00,
2013-04-11 20:51:00,57.0,12.7,25.25,SSW,202,3.4,3.4,17,0.00,,---,0.00,VWS V14.01,2013-04-12 01:51:00,
2013-04-11 20:52:00,56.8,12.5,25.25,SSW,202,3.4,3.4,17,0.00,,---,0.00,VWS V14.01,2013-04-12 01:52:00,
2013-04-11 20:53:00,57.2,12.8,25.25,SSW,202,3.4,3.4,17,0.00,,---,0.00,VWS V14.01,2013-04-12 01:53:00,
2013-04-11 20:54:00,57.2,12.8,25.25,SSW,202,3.4,3.4,17,0.00,,---,0.00,VWS V14.01,2013-04-12 01:54:00,
2013-04-11 20:55:00,57.2,12.8,25.25,SSW,202,3.4,3.4,17,0.00,,---,0.00,VWS V14.01,2013-04-12 01:55:00,
2013-04-11 20:56:00,57.2,12.8,25.25,SSW,202,3.4,3.4,17,0.00,,---,0.00,VWS V14.01,2013-04-12 01:56:00,
2013-04-11 20:57:00,57.2,12.8,25.25,SSW,202,3.8,3.8,17,0.00,,---,0.00,VWS V14.01,2013-04-12 01:57:00,
2013-04-11 20:58:00,57.2,12.8,25.25,SSW,202,3.8,3.8,17,0.00,,---,0.00,VWS V14.01,2013-04-12 01:58:00,
2013-04-11 20:59:00,57.2,12.8,25.25,SSW,202,3.8,3.8,17,0.00,,---,0.00,VWS V14.01,2013-04-12 01:59:00,
2013-04-11 21:00:00,57.0,12.7,25.25,SSW,202,3.8,3.8,17,0.00,,---,0.00,VWS V14.01,2013-04-12 02:00:00,
2013-04-11 21:01:00,56.8,12.5,25.25,SSW,202,4.3,4.3,17,0.00,,---,0.00,VWS V14.01,2013-04-12 02:01:00,
2013-04-11 21:02:00,56.8,12.5,25.25,SSW,202,4.3,4.3,17,0.00,,---,0.00,VWS V14.01,2013-04-12 02:02:00,
2013-04-11 21:03:00,56.7,12.4,25.25,SSW,202,4.3,4.3,17,0.00,,---,0.00,VWS V14.01,2013-04-12 02:03:00,
2013-04-11 21:04:00,56.7,12.4,25.25,SSW,202,4.3,4.3,17,0.00,,---,0.00,VWS V14.01,2013-04-12 02:04:00,
2013-04-11 21:05:00,56.7,12.4,25.25,SSW,202,4.3,4.3,17,0.00,,---,0.00,VWS V14.01,2013-04-12 02:05:00,
2013-04-11 21:06:00,56.7,12.4,25.25,SSW,202,4.3,4.3,17,0.00,,---,0.00,VWS V14.01,2013-04-12 02:06:00,
2013-04-11 21:07:00,56.5,12.2,25.25,SSW,202,4.5,4.5,17,0.00,,---,0.00,VWS V14.01,2013-04-12 02:07:00,
2013-04-11 21:09:00,56.5,12.2,25.25,SSW,202,4.5,4.5,17,0.00,,---,0.00,VWS V14.01,2013-04-12 02:09:00,
2013-04-11 21:10:00,56.1,11.9,25.25,SSW,202,5.4,5.4,17,0.00,,---,0.00,VWS V14.01,2013-04-12 02:10:00,
2013-04-11 21:11:00,56.1,11.9,25.25,SSW,202,4.9,5.4,17,0.00,,---,0.00,VWS V14.01,2013-04-12 02:11:00,
2013-04-11 21:12:00,56.3,12.1,25.25,SSW,202,5.6,5.6,17,0.00,,---,0.00,VWS V14.01,2013-04-12 02:12:00,
2013-04-11 21:13:00,56.1,11.9,25.25,SSW,202,5.6,5.6,17,0.00,,---,0.00,VWS V14.01,2013-04-12 02:13:00,
2013-04-11 21:14:00,56.1,11.9,25.25,SSW,202,5.6,5.6,17,0.00,,---,0.00,VWS V14.01,2013-04-12 02:14:00,
2013-04-11 21:15:00,55.9,11.8,25.25,SSW,202,5.6,5.6,17,0.00,,---,0.00,VWS V14.01,2013-04-12 02:15:00,
2013-04-11 21:16:00,56.1,11.9,25.25,SSW,202,5.6,5.6,17,0.00,,---,0.00,VWS V14.01,2013-04-12 02:16:00,
2013-04-11 21:17:00,56.1,11.9,25.25,SSW,202,5.6,5.6,17,0.00,,---,0.00,VWS V14.01,2013-04-12 02:17:00,
2013-04-11 21:18:00,55.9,11.8,25.25,SSW,202,5.6,5.6,17,0.00,,---,0.00,VWS V14.01,2013-04-12 02:18:00,
2013-04-11 21:19:00,55.9,11.8,25.25,SSW,202,5.6,5.6,17,0.00,,---,0.00,VWS V14.01,2013-04-12 02:19:00,
2013-04-11 21:20:00,55.9,11.8,25.25,SSW,202,5.6,5.6,17,0.00,,---,0.00,VWS V14.01,2013-04-12 02:20:00,
2013-04-11 21:21:00,55.9,11.8,25.25,SSW,202,5.6,5.6,17,0.00,,---,0.00,VWS V14.01,2013-04-12 02:21:00,
2013-04-11 21:22:00,56.1,11.9,25.25,SSW,202,5.6,5.6,17,0.00,,---,0.00,VWS V14.01,2013-04-12 02:22:00,
2013-04-11 21:23:00,56.3,12.1,25.25,SSW,202,5.6,5.6,17,0.00,,---,0.00,VWS V14.01,2013-04-12 02:23:00,
2013-04-11 21:24:00,56.3,12.1,25.25,SSW,202,5.6,5.6,17,0.00,,---,0.00,VWS V14.01,2013-04-12 02:24:00,
2013-04-11 21:25:00,56.3,12.1,25.25,SSW,202,5.6,5.6,17,0.00,,---,0.00,VWS V14.01,2013-04-12 02:25:00,
2013-04-11 21:26:00,56.1,11.9,25.25,SSW,202,5.6,5.6,17,0.00,,---,0.00,VWS V14.01,2013-04-12 02:26:00,
2013-04-11 21:27:00,55.9,11.8,25.25,SSW,202,5.6,5.6,17,0.00,,---,0.00,VWS V14.01,2013-04-12 02:27:00,
2013-04-11 21:28:00,55.9,11.8,25.25,SSW,202,5.6,5.6,17,0.00,,---,0.00,VWS V14.01,2013-04-12 02:28:00,
2013-04-11 21:29:00,55.8,11.6,25.25,SSW,202,5.6,5.6,17,0.00,,---,0.00,VWS V14.01,2013-04-12 02:29:00,
2013-04-11 21:30:00,55.8,11.6,25.25,SSW,202,5.6,5.6,17,0.00,,---,0.00,VWS V14.01,2013-04-12 02:30:00,
2013-04-11 21:31:00,55.8,11.6,25.25,SSW,202,5.6,5.6,17,0.00,,---,0.00,VWS V14.01,2013-04-12 02:31:00,
2013-04-11 21:32:00,55.6,11.5,25.25,SSW,202,5.6,5.6,17,0.00,,---,0.00,VWS V14.01,2013-04-12 02:32:00,
2013-04-11 21:33:00,55.6,11.5,25.25,SSW,202,5.6,5.6,17,0.00,,---,0.00,VWS V14.01,2013-04-12 02:33:00,
2013-04-11 21:34:00,55.6,11.5,25.25,SSW,202,5.6,5.6,17,0.00,,---,0.00,VWS V14.01,2013-04-12 02:34:00,
2013-04-11 21:35:00,55.4,11.3,25.25,SSW,202,5.6,5.6,17,0.00,,---,0.00,VWS V14.01,2013-04-12 02:35:00,
2013-04-11 21:36:00,55.4,11.3,25.25,SSW,202,5.6,5.6,17,0.00,,---,0.00,VWS V14.01,2013-04-12 02:36:00,
2013-04-11 21:37:00,55.6,11.5,25.25,SSW,202,5.6,5.6,17,0.00,,---,0.00,VWS V14.01,2013-04-12 02:37:00,
2013-04-11 21:38:00,55.6,11.5,25.25,SSW,202,5.6,5.6,17,0.00,,---,0.00,VWS V14.01,2013-04-12 02:38:00,
2013-04-11 21:39:00,55.4,11.3,25.25,SSW,202,5.6,5.6,17,0.00,,---,0.00,VWS V14.01,2013-04-12 02:39:00,
2013-04-11 21:40:00,55.4,11.3,25.25,SSW,202,5.6,5.6,17,0.00,,---,0.00,VWS V14.01,2013-04-12 02:40:00,
2013-04-11 21:41:00,55.4,11.3,25.25,SSW,202,5.6,5.6,17,0.00,,---,0.00,VWS V14.01,2013-04-12 02:41:00,
2013-04-11 21:42:00,55.2,12.5,25.25,SSW,202,5.6,5.6,18,0.00,,---,0.00,VWS V14.01,2013-04-12 02:42:00,
2013-04-11 21:43:00,55.2,12.5,25.25,SSW,202,5.6,5.6,18,0.00,,---,0.00,VWS V14.01,2013-04-12 02:43:00,
2013-04-11 21:44:00,55.4,11.3,25.25,SSW,202,5.6,5.6,17,0.00,,---,0.00,VWS V14.01,2013-04-12 02:44:00,
2013-04-11 21:46:00,55.4,11.3,25.25,SSW,202,5.6,5.6,17,0.00,,---,0.00,VWS V14.01,2013-04-12 02:46:00,
2013-04-11 21:47:00,55.6,11.5,25.25,SSW,202,5.6,5.6,17,0.00,,---,0.00,VWS V14.01,2013-04-12 02:47:00,
2013-04-11 21:48:00,55.6,11.5,25.25,SSW,202,5.6,5.6,17,0.00,,---,0.00,VWS V14.01,2013-04-12 02:48:00,
2013-04-11 21:49:00,55.6,11.5,25.25,SSW,202,5.6,5.6,17,0.00,,---,0.00,VWS V14.01,2013-04-12 02:49:00,
2013-04-11 21:50:00,55.6,11.5,25.25,SSW,202,5.6,5.6,17,0.00,,---,0.00,VWS V14.01,2013-04-12 02:50:00,
2013-04-11 21:51:00,55.4,11.3,25.25,SSW,202,5.6,5.6,17,0.00,,---,0.00,VWS V14.01,2013-04-12 02:51:00,
2013-04-11 21:52:00,55.2,12.5,25.25,SSW,202,5.6,5.6,18,0.00,,---,0.00,VWS V14.01,2013-04-12 02:52:00,
2013-04-11 21:53:00,55.0,12.3,25.25,SSW,202,5.6,5.6,18,0.00,,---,0.00,VWS V14.01,2013-04-12 02:53:00,
2013-04-11 21:54:00,55.0,12.3,25.25,SSW,202,5.6,5.6,18,0.00,,---,0.00,VWS V14.01,2013-04-12 02:54:00,
2013-04-11 21:55:00,55.0,12.3,25.25,SSW,202,5.6,5.6,18,0.00,,---,0.00,VWS V14.01,2013-04-12 02:55:00,
2013-04-11 21:56:00,54.9,12.2,25.28,SSW,202,5.6,5.6,18,0.00,,---,0.00,VWS V14.01,2013-04-12 02:56:00,
2013-04-11 21:57:00,54.7,12.0,25.28,SSW,202,5.6,5.6,18,0.00,,---,0.00,VWS V14.01,2013-04-12 02:57:00,
2013-04-11 21:58:00,54.7,12.0,25.28,SSW,202,5.6,5.6,18,0.00,,---,0.00,VWS V14.01,2013-04-12 02:58:00,
2013-04-11 21:59:00,54.7,12.0,25.28,SSW,202,5.6,5.6,18,0.00,,---,0.00,VWS V14.01,2013-04-12 02:59:00,
2013-04-11 22:00:00,54.3,11.7,25.28,South,180,3.4,5.6,18,0.00,,---,0.00,VWS V14.01,2013-04-12 03:00:00,
2013-04-11 22:01:00,54.3,11.7,25.28,South,180,4.0,4.0,18,0.00,,---,0.00,VWS V14.01,2013-04-12 03:01:00,
2013-04-11 22:02:00,54.5,11.9,25.28,South,180,2.9,4.0,18,0.00,,---,0.00,VWS V14.01,2013-04-12 03:02:00,
2013-04-11 22:03:00,54.5,11.9,25.28,South,180,4.7,4.7,18,0.00,,---,0.00,VWS V14.01,2013-04-12 03:03:00,
2013-04-11 22:04:00,54.5,11.9,25.28,South,180,3.1,4.7,18,0.00,,---,0.00,VWS V14.01,2013-04-12 03:04:00,
2013-04-11 22:05:00,54.5,11.9,25.28,South,180,3.6,3.6,18,0.00,,---,0.00,VWS V14.01,2013-04-12 03:05:00,
2013-04-11 22:06:00,54.5,11.9,25.28,South,180,3.4,4.3,18,0.00,,---,0.00,VWS V14.01,2013-04-12 03:06:00,
2013-04-11 22:07:00,54.7,12.0,25.28,South,180,3.6,3.6,18,0.00,,---,0.00,VWS V14.01,2013-04-12 03:07:00,
2013-04-11 22:08:00,54.7,12.0,25.28,South,180,2.9,3.6,18,0.00,,---,0.00,VWS V14.01,2013-04-12 03:08:00,
2013-04-11 22:09:00,54.7,12.0,25.28,South,180,3.6,3.6,18,0.00,,---,0.00,VWS V14.01,2013-04-12 03:09:00,
2013-04-11 22:10:00,54.5,11.9,25.28,South,180,2.9,3.6,18,0.00,,---,0.00,VWS V14.01,2013-04-12 03:10:00,
2013-04-11 22:11:00,54.5,11.9,25.28,South,180,3.1,3.1,18,0.00,,---,0.00,VWS V14.01,2013-04-12 03:11:00,
2013-04-11 22:12:00,54.5,11.9,25.28,South,180,3.1,3.1,18,0.00,,---,0.00,VWS V14.01,2013-04-12 03:12:00,
2013-04-11 22:13:00,54.3,11.7,25.28,South,180,3.1,3.1,18,0.00,,---,0.00,VWS V14.01,2013-04-12 03:13:00,
2013-04-11 22:14:00,54.3,11.7,25.28,South,180,3.1,3.1,18,0.00,,---,0.00,VWS V14.01,2013-04-12 03:14:00,
2013-04-11 22:15:00,54.3,11.7,25.28,South,180,3.8,3.8,18,0.00,,---,0.00,VWS V14.01,2013-04-12 03:15:00,
2013-04-11 22:16:00,54.3,11.7,25.28,South,180,4.0,4.0,18,0.00,,---,0.00,VWS V14.01,2013-04-12 03:16:00,
2013-04-11 22:17:00,54.5,11.9,25.28,SSW,202,3.1,4.0,18,0.00,,---,0.00,VWS V14.01,2013-04-12 03:17:00,
2013-04-11 22:18:00,54.5,11.9,25.28,SSW,202,3.8,4.0,18,0.00,,---,0.00,VWS V14.01,2013-04-12 03:18:00,
2013-04-11 22:19:00,54.5,11.9,25.28,South,180,2.9,3.8,18,0.00,,---,0.00,VWS V14.01,2013-04-12 03:19:00,
2013-04-11 22:20:00,54.3,11.7,25.28,South,180,3.4,3.4,18,0.00,,---,0.00,VWS V14.01,2013-04-12 03:20:00,
2013-04-11 22:21:00,54.3,11.7,25.28,South,180,3.6,4.0,18,0.00,,---,0.00,VWS V14.01,2013-04-12 03:21:00,
2013-04-11 22:22:00,54.1,11.6,25.28,South,180,2.7,3.6,18,0.00,,---,0.00,VWS V14.01,2013-04-12 03:22:00,
2013-04-11 22:23:00,54.1,11.6,25.28,South,180,2.9,2.9,18,0.00,,---,0.00,VWS V14.01,2013-04-12 03:23:00,
2013-04-11 22:24:00,54.0,11.4,25.31,SSW,202,2.9,2.9,18,0.00,,---,0.00,VWS V14.01,2013-04-12 03:24:00,
2013-04-11 22:25:00,54.0,11.4,25.31,SSW,202,2.5,2.9,18,0.00,,---,0.00,VWS V14.01,2013-04-12 03:25:00,
2013-04-11 22:26:00,53.8,11.3,25.31,SSW,202,2.5,2.5,18,0.00,,---,0.00,VWS V14.01,2013-04-12 03:26:00,
2013-04-11 22:27:00,53.8,11.3,25.31,SSW,202,2.5,2.5,18,0.00,,---,0.00,VWS V14.01,2013-04-12 03:27:00,
2013-04-11 22:28:00,53.8,11.3,25.31,South,180,2.9,2.9,18,0.00,,---,0.00,VWS V14.01,2013-04-12 03:28:00,
2013-04-11 22:29:00,54.0,11.4,25.31,South,180,3.1,3.1,18,0.00,,---,0.00,VWS V14.01,2013-04-12 03:29:00,
2013-04-11 22:30:00,54.0,11.4,25.31,South,180,2.7,2.7,18,0.00,,---,0.00,VWS V14.01,2013-04-12 03:30:00,
2013-04-11 22:31:00,54.0,11.4,25.31,South,180,2.5,3.1,18,0.00,,---,0.00,VWS V14.01,2013-04-12 03:31:00,
2013-04-11 22:32:00,54.0,11.4,25.31,SSE,158,2.7,2.7,18,0.00,,---,0.00,VWS V14.01,2013-04-12 03:32:00,
2013-04-11 22:33:00,54.1,11.6,25.31,SSW,202,2.5,2.7,18,0.00,,---,0.00,VWS V14.01,2013-04-12 03:33:00,
2013-04-11 22:34:00,54.1,11.6,25.31,South,180,3.1,3.1,18,0.00,,---,0.00,VWS V14.01,2013-04-12 03:34:00,
2013-04-11 22:35:00,54.0,11.4,25.31,South,180,3.1,3.4,18,0.00,,---,0.00,VWS V14.01,2013-04-12 03:35:00,
2013-04-11 22:36:00,54.0,11.4,25.31,South,180,2.9,3.1,18,0.00,,---,0.00,VWS V14.01,2013-04-12 03:36:00,
2013-04-11 22:37:00,53.8,11.3,25.31,South,180,2.5,2.9,18,0.00,,---,0.00,VWS V14.01,2013-04-12 03:37:00,
2013-04-11 22:38:00,53.6,11.1,25.31,South,180,3.1,3.1,18,0.00,,---,0.00,VWS V14.01,2013-04-12 03:38:00,
2013-04-11 22:39:00,53.6,11.1,25.31,South,180,2.9,3.4,18,0.00,,---,0.00,VWS V14.01,2013-04-12 03:39:00,
2013-04-11 22:40:00,53.6,11.1,25.31,South,180,3.1,3.1,18,0.00,,---,0.00,VWS V14.01,2013-04-12 03:40:00,
2013-04-11 22:41:00,53.4,11.0,25.31,South,180,3.1,3.1,18,0.00,,---,0.00,VWS V14.01,2013-04-12 03:41:00,
2013-04-11 22:42:00,53.4,11.0,25.31,South,180,3.1,3.1,18,0.00,,---,0.00,VWS V14.01,2013-04-12 03:42:00,
2013-04-11 22:43:00,53.2,10.9,25.31,North,0,0.0,3.1,18,0.00,,---,0.00,VWS V14.01,2013-04-12 03:43:00,
2013-04-11 22:44:00,53.1,10.7,25.31,NNE,22,2.2,2.5,18,0.00,,---,0.00,VWS V14.01,2013-04-12 03:44:00,
2013-04-11 22:45:00,52.7,10.4,25.31,NNE,22,2.2,2.2,18,0.00,,---,0.00,VWS V14.01,2013-04-12 03:45:00,
2013-04-11 22:46:00,52.3,10.1,25.31,NE,45,2.5,2.5,18,0.00,,---,0.00,VWS V14.01,2013-04-12 03:46:00,
2013-04-11 22:47:00,52.2,10.0,25.31,NE,45,2.5,2.5,18,0.00,,---,0.00,VWS V14.01,2013-04-12 03:47:00,
2013-04-11 22:48:00,52.0,9.8,25.31,ESE,112,2.9,3.4,18,0.00,,---,0.00,VWS V14.01,2013-04-12 03:48:00,
2013-04-11 22:49:00,51.8,9.7,25.31,ESE,112,4.3,4.3,18,0.00,,---,0.00,VWS V14.01,2013-04-12 03:49:00,
2013-04-11 22:50:00,51.6,10.7,25.31,ESE,112,4.3,4.3,19,0.00,,---,0.00,VWS V14.01,2013-04-12 03:50:00,
2013-04-11 22:51:00,51.6,10.7,25.31,ESE,112,4.7,4.9,19,0.00,,---,0.00,VWS V14.01,2013-04-12 03:51:00,
2013-04-11 22:52:00,51.6,10.7,25.31,ESE,112,4.9,4.9,19,0.00,,---,0.00,VWS V14.01,2013-04-12 03:52:00,
2013-04-11 22:53:00,50.5,9.8,25.31,SE,135,4.3,4.9,19,0.00,,---,0.00,VWS V14.01,2013-04-12 03:53:00,
2013-04-11 22:54:00,50.0,9.4,25.31,SE,135,4.3,4.3,19,0.00,,---,0.00,VWS V14.01,2013-04-12 03:54:00,
2013-04-11 22:55:00,49.8,9.2,25.31,SE,135,4.3,4.3,19,0.00,,---,0.00,VWS V14.01,2013-04-12 03:55:00,
2013-04-11 22:56:00,49.8,9.2,25.31,SE,135,4.3,4.3,19,0.00,,---,0.00,VWS V14.01,2013-04-12 03:56:00,
2013-04-11 22:57:00,49.8,9.2,25.31,SE,135,4.7,4.7,19,0.00,,---,0.00,VWS V14.01,2013-04-12 03:57:00,
2013-04-11 22:58:00,49.8,9.2,25.31,SE,135,5.4,5.4,19,0.00,,---,0.00,VWS V14.01,2013-04-12 03:58:00,
2013-04-11 22:59:00,49.6,9.1,25.31,SE,135,4.9,5.4,19,0.00,,---,0.00,VWS V14.01,2013-04-12 03:59:00,
2013-04-11 23:00:00,49.6,9.1,25.31,SE,135,4.3,4.9,19,0.00,,---,0.00,VWS V14.01,2013-04-12 04:00:00,
2013-04-11 23:01:00,49.6,9.1,25.31,SE,135,4.0,5.4,19,0.00,,---,0.00,VWS V14.01,2013-04-12 04:01:00,
2013-04-11 23:02:00,49.6,9.1,25.31,ESE,112,4.5,4.5,19,0.00,,---,0.00,VWS V14.01,2013-04-12 04:02:00,
2013-04-11 23:03:00,49.6,9.1,25.31,SE,135,4.9,4.9,19,0.00,,---,0.00,VWS V14.01,2013-04-12 04:03:00,
2013-04-11 23:04:00,49.8,9.2,25.31,ESE,112,4.0,4.9,19,0.00,,---,0.00,VWS V14.01,2013-04-12 04:04:00,
2013-04-11 23:05:00,49.8,9.2,25.31,SE,135,4.0,4.0,19,0.00,,---,0.00,VWS V14.01,2013-04-12 04:05:00,
2013-04-11 23:06:00,50.0,9.4,25.31,SE,135,4.7,5.4,19,0.00,,---,0.00,VWS V14.01,2013-04-12 04:06:00,
2013-04-11 23:07:00,50.0,9.4,25.31,ESE,112,4.9,4.9,19,0.00,,---,0.00,VWS V14.01,2013-04-12 04:07:00,
2013-04-11 23:08:00,50.0,9.4,25.31,SE,135,4.7,4.9,19,0.00,,---,0.00,VWS V14.01,2013-04-12 04:08:00,
2013-04-11 23:09:00,50.4,9.7,25.31,SE,135,4.9,5.4,19,0.00,,---,0.00,VWS V14.01,2013-04-12 04:09:00,
2013-04-11 23:10:00,50.4,9.7,25.31,ESE,112,4.0,4.0,19,0.00,,---,0.00,VWS V14.01,2013-04-12 04:10:00,
2013-04-11 23:11:00,50.2,9.5,25.31,ESE,112,4.3,4.3,19,0.00,,---,0.00,VWS V14.01,2013-04-12 04:11:00,
2013-04-11 23:12:00,50.2,9.5,25.31,SE,135,4.0,4.3,19,0.00,,---,0.00,VWS V14.01,2013-04-12 04:12:00,
2013-04-11 23:13:00,50.0,9.4,25.31,SE,135,4.0,4.0,19,0.00,,---,0.00,VWS V14.01,2013-04-12 04:13:00,
2013-04-11 23:14:00,49.8,9.2,25.31,SSE,158,3.8,4.0,19,0.00,,---,0.00,VWS V14.01,2013-04-12 04:14:00,
2013-04-11 23:15:00,49.6,9.1,25.31,SE,135,4.3,4.5,19,0.00,,---,0.00,VWS V14.01,2013-04-12 04:15:00,
2013-04-11 23:16:00,49.5,8.9,25.31,ESE,112,4.9,4.9,19,0.00,,---,0.00,VWS V14.01,2013-04-12 04:16:00,
2013-04-11 23:17:00,49.6,9.1,25.31,SSE,158,4.9,5.4,19,0.00,,---,0.00,VWS V14.01,2013-04-12 04:17:00,
2013-04-11 23:18:00,49.8,9.2,25.31,SSE,158,4.9,4.9,19,0.00,,---,0.00,VWS V14.01,2013-04-12 04:18:00,
2013-04-11 23:19:00,50.2,9.5,25.31,SSE,158,4.9,4.9,19,0.00,,---,0.00,VWS V14.01,2013-04-12 04:19:00,
2013-04-11 23:20:00,50.4,9.7,25.31,SSE,158,4.9,4.9,19,0.00,,---,0.00,VWS V14.01,2013-04-12 04:20:00,
2013-04-11 23:21:00,50.5,9.8,25.31,SSE,158,4.0,4.0,19,0.00,,---,0.00,VWS V14.01,2013-04-12 04:21:00,
2013-04-11 23:22:00,50.9,10.1,25.31,SSE,158,4.0,4.0,19,0.00,,---,0.00,VWS V14.01,2013-04-12 04:22:00,
2013-04-11 23:24:00,51.8,9.7,25.31,SE,135,4.3,4.3,18,0.00,,---,0.00,VWS V14.01,2013-04-12 04:24:00,
2013-04-11 23:25:00,51.8,9.7,25.31,SE,135,4.3,4.3,18,0.00,,---,0.00,VWS V14.01,2013-04-12 04:25:00,
2013-04-11 23:26:00,52.0,9.8,25.31,SE,135,4.3,4.3,18,0.00,,---,0.00,VWS V14.01,2013-04-12 04:26:00,
2013-04-11 23:27:00,52.3,10.1,25.31,SE,135,4.3,4.3,18,0.00,,---,0.00,VWS V14.01,2013-04-12 04:27:00,
2013-04-11 23:28:00,52.5,10.2,25.31,SE,135,4.3,4.3,18,0.00,,---,0.00,VWS V14.01,2013-04-12 04:28:00,
2013-04-11 23:29:00,52.7,10.4,25.31,SE,135,4.3,4.3,18,0.00,,---,0.00,VWS V14.01,2013-04-12 04:29:00,
2013-04-11 23:30:00,52.9,10.6,25.31,SE,135,4.3,4.3,18,0.00,,---,0.00,VWS V14.01,2013-04-12 04:30:00,
2013-04-11 23:31:00,53.1,10.7,25.31,SSE,158,3.4,4.3,18,0.00,,---,0.00,VWS V14.01,2013-04-12 04:31:00,
2013-04-11 23:32:00,53.2,10.9,25.31,SSE,158,3.4,3.4,18,0.00,,---,0.00,VWS V14.01,2013-04-12 04:32:00,
2013-04-11 23:33:00,53.1,10.7,25.31,South,180,2.7,3.4,18,0.00,,---,0.00,VWS V14.01,2013-04-12 04:33:00,
2013-04-11 23:34:00,52.7,10.4,25.31,South,180,2.7,2.7,18,0.00,,---,0.00,VWS V14.01,2013-04-12 04:34:00,
2013-04-11 23:35:00,52.7,10.4,25.31,ESE,112,4.5,4.5,18,0.00,,---,0.00,VWS V14.01,2013-04-12 04:35:00,
2013-04-11 23:36:00,52.7,10.4,25.31,ESE,112,4.5,4.5,18,0.00,,---,0.00,VWS V14.01,2013-04-12 04:36:00,
2013-04-11 23:37:00,52.7,10.4,25.31,ESE,112,4.5,4.5,18,0.00,,---,0.00,VWS V14.01,2013-04-12 04:37:00,
2013-04-11 23:38:00,52.9,10.6,25.31,SE,135,4.3,4.5,18,0.00,,---,0.00,VWS V14.01,2013-04-12 04:38:00,
2013-04-11 23:39:00,52.9,10.6,25.31,SE,135,4.3,4.3,18,0.00,,---,0.00,VWS V14.01,2013-04-12 04:39:00,
2013-04-11 23:40:00,53.1,10.7,25.31,ESE,112,3.4,4.3,18,0.00,,---,0.00,VWS V14.01,2013-04-12 04:40:00,
2013-04-11 23:41:00,53.1,10.7,25.31,ESE,112,3.4,3.4,18,0.00,,---,0.00,VWS V14.01,2013-04-12 04:41:00,
2013-04-11 23:42:00,53.1,10.7,25.31,ESE,112,3.4,3.4,18,0.00,,---,0.00,VWS V14.01,2013-04-12 04:42:00,
2013-04-11 23:43:00,53.2,10.9,25.31,ESE,112,2.9,3.4,18,0.00,,---,0.00,VWS V14.01,2013-04-12 04:43:00,
2013-04-11 23:44:00,53.2,10.9,25.31,ESE,112,2.9,2.9,18,0.00,,---,0.00,VWS V14.01,2013-04-12 04:44:00,
2013-04-11 23:45:00,53.2,10.9,25.31,ESE,112,2.9,2.9,18,0.00,,---,0.00,VWS V14.01,2013-04-12 04:45:00,
2013-04-11 23:46:00,53.2,10.9,25.31,ESE,112,2.9,2.9,18,0.00,,---,0.00,VWS V14.01,2013-04-12 04:46:00,
2013-04-11 23:47:00,53.4,11.0,25.31,ESE,112,2.9,3.4,18,0.00,,---,0.00,VWS V14.01,2013-04-12 04:47:00,
2013-04-11 23:48:00,53.4,11.0,25.31,ESE,112,3.1,3.1,18,0.00,,---,0.00,VWS V14.01,2013-04-12 04:48:00,
2013-04-11 23:49:00,53.4,11.0,25.31,ESE,112,3.1,3.1,18,0.00,,---,0.00,VWS V14.01,2013-04-12 04:49:00,
2013-04-11 23:50:00,53.2,10.9,25.31,ESE,112,3.1,3.1,18,0.00,,---,0.00,VWS V14.01,2013-04-12 04:50:00,
2013-04-11 23:51:00,53.2,10.9,25.31,ESE,112,3.4,3.4,18,0.00,,---,0.00,VWS V14.01,2013-04-12 04:51:00,
2013-04-11 23:52:00,53.2,10.9,25.31,SE,135,3.1,3.4,18,0.00,,---,0.00,VWS V14.01,2013-04-12 04:52:00,
2013-04-11 23:53:00,53.2,10.9,25.31,ESE,112,3.1,3.1,18,0.00,,---,0.00,VWS V14.01,2013-04-12 04:53:00,
2013-04-11 23:54:00,53.2,10.9,25.31,ESE,112,3.1,3.1,18,0.00,,---,0.00,VWS V14.01,2013-04-12 04:54:00,
2013-04-11 23:55:00,53.2,10.9,25.31,ESE,112,2.9,3.1,18,0.00,,---,0.00,VWS V14.01,2013-04-12 04:55:00,
2013-04-11 23:56:00,53.2,10.9,25.31,ESE,112,2.7,2.9,18,0.00,,---,0.00,VWS V14.01,2013-04-12 04:56:00,
2013-04-11 23:57:00,53.2,10.9,25.31,ESE,112,3.8,3.8,18,0.00,,---,0.00,VWS V14.01,2013-04-12 04:57:00,
2013-04-11 23:58:00,53.2,10.9,25.31,ESE,112,3.8,3.8,18,0.00,,---,0.00,VWS V14.01,2013-04-12 04:58:00,
2013-04-11 23:59:00,53.2,10.9,25.31,SE,135,3.8,3.8,18,0.00,,---,0.00,VWS V14.01,2013-04-12 04:59:00,